GFSMA_700_spd_000.txt.gz
Wind_Speed
20 20 19 22 26 29 32 32 34 35 38 39 38 38 35 31 32 32 30 30 31 32 31 32 30 28 25 26 29 28 28 28 29 30 29 28 26 26 26 24 24 22 26
21 21 22 27 33 34 35 36 37 39 44 43 44 42 40 38 37 34 33 33 34 36 35 34 32 30 30 29 28 31 32 31 31 31 32 32 31 30 28 28 27 26 24
22 26 31 33 35 36 37 39 41 44 47 48 47 46 44 44 43 39 38 37 37 38 39 38 37 35 31 30 32 31 33 35 34 34 33 34 35 34 32 30 30 30 29
25 30 32 33 33 36 42 44 46 48 51 50 49 46 45 40 39 39 40 41 40 40 41 41 41 40 38 35 32 32 34 34 37 37 36 35 36 37 36 34 33 33 33
27 30 30 34 34 43 47 46 49 52 52 51 48 45 40 38 38 37 39 41 44 46 45 45 45 43 43 42 40 37 35 35 35 38 39 40 38 37 37 38 37 36 35
31 34 36 39 43 43 46 49 49 51 53 53 48 46 44 41 42 41 41 45 47 48 48 48 48 48 47 46 45 44 41 38 37 36 38 40 41 42 40 39 39 39 38
35 36 38 41 45 47 50 53 55 53 50 51 49 47 46 46 47 49 48 46 47 49 50 50 52 52 51 51 50 48 48 45 42 40 39 40 38 41 43 43 42 41 41
36 40 44 47 49 52 55 54 51 51 50 50 50 51 53 53 53 50 48 45 44 47 50 52 53 52 53 54 54 53 52 52 49 44 42 41 40 40 41 44 44 43 42
42 46 51 51 54 51 50 48 50 51 50 52 53 52 51 52 51 48 45 43 43 45 46 48 52 55 55 54 54 54 54 53 54 53 47 46 47 45 43 44 45 45 45
51 53 55 53 49 48 48 52 55 58 55 45 42 42 43 46 49 51 49 44 45 48 49 50 52 56 58 57 56 54 54 54 55 55 54 53 50 50 49 45 44 46 46
54 53 51 50 51 53 55 54 50 48 47 46 44 43 42 43 45 47 48 50 55 55 51 48 51 53 54 55 58 57 56 54 53 55 55 56 53 52 54 48 42 44 44
50 49 49 49 47 47 47 43 47 50 37 41 42 44 45 45 47 50 51 49 44 40 46 47 46 44 43 43 49 52 55 57 58 55 56 58 54 54 56 55 48 44 44
49 48 48 48 50 50 46 43 48 42 44 42 41 44 45 42 42 42 42 44 43 38 44 45 43 39 33 34 37 40 42 42 42 48 51 58 61 59 57 56 53 49 45
48 49 51 51 49 45 39 48 48 45 44 36 36 39 39 36 32 34 37 41 45 43 43 42 38 34 33 28 32 35 35 35 33 33 35 38 54 57 61 58 59 54 49
48 48 48 45 33 41 37 39 31 36 36 36 37 34 30 31 33 35 36 37 40 48 48 45 41 32 31 29 26 31 32 32 29 28 30 36 38 56 60 48 57 56 55
44 45 44 34 37 36 34 33 35 32 32 33 34 32 33 35 36 38 40 42 43 44 51 46 44 37 30 31 28 29 31 30 27 27 28 33 39 40 44 47 51 57 53
43 43 42 39 39 39 39 33 27 31 34 34 33 33 34 36 39 42 44 44 43 42 45 43 40 35 33 31 29 26 33 30 25 25 28 29 30 33 35 36 43 51 54
42 39 38 35 32 27 30 27 30 31 32 32 33 35 35 39 42 45 45 45 43 39 38 39 35 30 32 32 29 31 24 34 32 27 24 27 30 28 32 34 33 38 41
40 36 33 30 26 25 25 29 31 33 32 31 31 35 40 43 45 45 45 42 38 35 33 35 33 28 29 33 32 26 30 34 26 32 29 24 24 28 26 30 36 42 38
38 34 30 25 22 26 25 30 31 32 30 31 34 39 41 43 44 45 42 39 38 36 33 32 30 27 26 29 32 30 30 29 39 22 28 30 25 26 21 27 36 37 35
34 30 26 21 19 25 27 30 32 33 33 35 38 39 41 43 44 41 40 39 38 36 31 30 27 23 20 22 29 32 32 32 34 35 35 30 30 26 29 24 25 29 26
32 27 25 21 25 26 29 31 34 35 35 38 40 39 41 44 40 37 37 36 34 31 28 27 25 23 24 21 24 27 28 29 29 30 32 34 35 32 28 28 26 23 24
28 26 21 24 27 30 29 34 36 34 36 37 39 41 43 41 36 36 34 31 29 26 23 23 24 22 23 28 23 26 29 27 25 29 33 32 35 34 35 28 31 26 26
27 22 22 25 28 30 33 35 32 34 34 35 37 41 42 36 33 32 30 28 25 22 21 22 22 22 23 24 30 33 33 31 29 28 31 33 34 36 37 33 31 33 32
26 24 25 27 29 31 30 31 34 33 32 34 37 40 38 31 30 29 28 26 24 21 20 21 23 21 20 22 23 25 28 30 30 28 30 32 29 33 42 39 34 32 33
25 24 24 24 26 28 30 33 33 31 32 34 36 37 32 27 27 26 25 25 25 21 18 17 18 20 18 18 20 22 21 22 23 26 26 28 25 30 37 43 43 39 34

GFSMA_700_spd_003.txt.gz
Wind_Speed
15 19 19 19 21 25 28 31 32 32 35 37 38 39 39 38 36 34 33 35 35 32 30 31 33 32 31 32 33 31 32 33 32 31 32 31 31 30 29 28 26 25 23
16 20 20 23 24 29 33 33 34 37 40 40 43 44 44 45 43 41 39 37 36 34 34 35 35 35 36 34 33 34 32 33 34 34 35 34 34 34 32 30 28 28 28
18 20 22 25 32 33 37 38 38 42 43 45 46 45 45 45 45 42 40 37 36 35 35 37 38 39 38 39 38 36 36 34 33 35 37 36 36 36 35 34 31 31 31
20 24 28 34 36 38 39 41 44 44 47 48 48 48 47 47 46 44 44 43 39 37 36 36 38 41 42 42 43 42 40 39 37 34 36 40 39 38 37 36 36 34 34
27 31 36 35 38 41 42 43 47 49 51 51 51 51 49 48 46 46 46 45 45 45 45 44 41 41 44 45 46 47 47 44 43 41 37 36 39 41 39 38 38 39 37
31 34 36 36 37 40 42 47 49 52 54 54 52 49 48 49 50 48 47 48 50 50 50 50 49 47 45 47 48 48 48 50 48 47 44 40 39 40 42 41 41 41 41
30 32 35 39 43 47 49 50 50 48 49 50 52 54 55 54 53 53 53 52 51 49 48 46 45 46 49 49 49 51 51 50 52 52 49 46 43 41 39 42 44 43 41
38 41 43 46 48 49 49 48 48 49 51 54 55 58 60 57 56 52 53 51 51 47 45 43 42 41 44 48 50 51 52 54 53 53 53 51 49 46 44 42 42 42 43
43 44 45 47 46 47 49 50 52 53 54 56 56 56 53 54 54 49 45 45 44 45 46 47 46 45 46 47 50 54 53 53 55 55 55 55 53 52 49 46 44 41 41
44 45 45 45 46 48 49 48 48 49 50 49 47 46 36 37 41 45 42 41 40 41 42 44 47 49 52 52 56 57 56 57 54 56 57 56 56 55 55 51 50 47 43
44 43 43 43 43 44 44 44 44 42 41 40 39 37 41 39 40 44 47 46 44 42 44 46 48 46 43 40 42 51 54 56 57 54 55 57 57 56 53 55 55 52 48
42 43 43 43 43 43 43 42 40 36 43 46 43 46 38 37 40 45 44 42 41 43 43 43 43 42 41 35 34 36 37 39 47 50 49 52 54 55 56 55 58 57 50
42 42 44 44 44 43 42 41 40 46 43 41 37 36 36 37 38 39 37 34 35 36 40 42 42 41 36 35 32 32 32 32 33 35 35 41 48 51 54 57 59 58 56
43 43 42 43 43 42 40 35 45 38 36 36 36 33 31 32 31 31 33 36 40 41 41 43 44 42 38 34 31 27 30 32 32 31 32 35 39 44 52 56 59 59 59
41 41 41 41 40 37 35 37 39 35 33 31 29 33 33 30 30 32 35 38 42 47 47 44 43 39 37 33 30 25 26 29 31 32 30 31 33 34 40 47 53 59 61
42 41 39 37 35 34 31 30 28 31 30 31 32 33 31 30 31 33 38 41 43 46 50 42 40 36 33 30 28 26 26 30 32 33 30 28 31 33 36 32 39 51 56
43 40 38 34 31 29 28 28 30 30 31 31 32 31 30 32 34 37 40 43 44 44 46 38 35 32 29 30 27 26 26 33 30 34 32 28 28 28 29 38 32 34 53
43 40 35 31 27 26 23 25 28 32 32 33 32 32 32 33 37 39 41 42 44 42 40 38 35 34 30 28 28 26 25 30 29 35 35 29 25 26 27 25 30 34 34
41 38 34 30 25 22 22 25 28 33 32 33 33 32 33 36 38 39 41 44 42 39 38 38 37 34 31 26 28 29 25 26 33 27 33 33 26 21 20 26 24 30 30
41 37 32 26 23 22 21 28 30 31 34 34 33 33 35 37 38 40 42 41 39 38 36 35 32 30 26 24 25 25 26 29 28 28 32 24 31 26 19 15 20 27 31
39 34 29 24 24 20 26 29 31 33 33 33 33 34 35 35 38 40 40 35 36 35 33 31 29 27 22 20 17 21 25 29 32 29 22 31 29 25 27 18 16 17 25
37 32 28 25 22 25 24 32 33 34 35 33 34 34 35 36 38 38 33 32 32 31 30 28 26 24 21 19 22 20 24 23 25 30 33 30 28 29 23 20 14 21 23
34 31 27 25 24 28 29 31 33 33 32 33 33 34 35 36 37 34 31 30 29 27 27 27 25 22 21 19 21 28 20 26 25 25 28 31 31 27 29 25 18 20 22
32 29 27 26 26 26 27 28 29 30 32 31 31 34 34 34 34 30 30 28 27 25 25 23 22 21 21 18 21 24 29 28 27 26 25 29 33 30 30 29 25 23 26
29 26 25 24 24 26 27 29 30 31 30 28 30 32 33 33 29 27 27 27 26 23 22 21 20 19 18 18 19 21 19 32 34 32 30 29 30 32 32 32 30 25 29
26 24 25 25 26 28 30 31 31 29 26 27 28 30 31 30 25 24 24 26 25 23 22 20 18 18 16 14 17 21 23 24 17 22 25 28 28 29 30 31 35 33 29

GFSMA_700_spd_006.txt.gz
Wind_Speed
19 15 11 14 18 23 26 28 33 34 34 36 38 38 40 40 38 36 36 36 34 32 32 32 33 33 34 34 33 32 31 31 29 31 31 31 32 32 31 29 30 29 25
31 11 12 18 23 27 32 35 35 37 39 39 40 42 44 45 44 42 40 42 40 35 34 33 32 35 37 38 37 36 35 33 32 32 34 32 32 32 32 33 32 31 31
22 12 14 19 28 33 34 36 39 41 40 42 44 45 45 47 46 45 40 39 42 44 39 37 35 35 37 40 42 41 39 38 36 35 34 37 34 33 33 34 35 34 32
16 16 24 30 34 35 37 39 40 41 46 46 47 47 46 44 47 45 45 43 43 41 45 43 39 39 38 40 42 45 44 44 42 38 37 37 39 37 34 34 35 36 36
23 27 29 31 34 37 39 41 44 46 47 48 46 45 46 46 47 47 50 51 50 49 45 52 46 44 46 46 45 46 48 48 47 46 42 40 40 41 40 37 35 37 37
22 26 31 35 38 41 42 43 46 47 47 50 46 46 48 50 50 49 48 49 50 54 51 53 54 51 54 49 48 50 49 53 52 50 47 45 43 44 43 41 39 36 37
28 31 35 38 38 42 43 45 44 44 47 50 48 49 49 48 41 51 49 50 51 55 54 54 53 55 53 52 47 49 47 51 55 54 51 48 46 45 46 45 42 41 38
33 36 38 40 42 42 44 45 45 45 45 52 52 51 52 46 29 31 48 54 54 56 52 49 51 48 49 48 48 46 46 48 51 55 55 52 50 48 47 47 46 43 42
36 38 40 41 42 43 43 44 46 46 46 47 54 53 52 49 52 49 40 44 44 44 45 47 49 50 52 51 50 49 49 47 47 51 54 54 54 51 50 49 48 48 45
39 39 40 40 41 40 41 43 44 44 47 45 47 46 47 46 47 47 37 35 41 40 42 45 48 48 47 48 50 52 54 53 51 51 53 56 55 55 53 51 51 50 49
39 40 40 41 40 40 41 41 44 45 44 44 40 42 40 42 37 33 36 30 31 29 36 38 40 41 41 41 41 43 49 50 49 51 53 54 57 57 55 54 53 53 51
39 39 40 39 40 40 41 41 41 39 35 38 46 39 41 35 34 29 30 33 33 29 27 35 38 41 42 40 39 40 42 43 45 49 47 47 53 58 56 54 54 54 54
39 38 37 38 38 39 39 39 34 37 37 40 42 38 34 26 24 25 24 27 30 31 34 33 33 36 42 45 41 40 41 40 40 40 39 41 38 45 52 46 48 54 55
39 38 38 38 38 38 38 31 31 43 37 36 32 32 26 22 22 22 23 26 33 36 38 42 40 42 42 42 42 38 37 37 37 34 34 31 31 31 35 37 37 48 55
40 40 38 37 37 35 31 30 37 33 31 29 27 23 23 23 23 25 23 23 29 43 46 42 40 39 40 40 38 36 33 30 31 28 30 28 28 30 33 32 36 38 43
41 40 39 38 36 30 30 32 29 27 27 25 21 25 27 28 27 26 23 27 30 36 46 40 39 39 37 35 32 30 29 27 29 28 29 29 28 29 30 33 37 37 41
41 39 38 37 32 30 28 26 27 23 23 22 25 26 28 30 27 28 31 32 31 31 36 44 41 36 36 36 34 32 29 25 22 30 30 28 33 28 28 31 36 39 36
41 39 38 36 32 28 24 23 23 20 24 29 29 32 33 32 32 33 34 33 34 35 43 44 39 38 37 34 33 32 29 24 22 32 31 31 30 29 26 28 29 32 36
41 40 38 35 30 25 23 22 22 25 31 32 35 36 36 34 35 35 36 39 41 43 42 39 38 36 34 31 29 28 27 21 25 29 32 26 30 30 25 23 26 27 35
41 39 38 35 28 25 23 23 26 30 31 34 35 36 35 35 34 35 37 39 41 38 36 36 35 33 30 27 24 22 19 18 26 26 26 31 23 26 28 20 16 22 23
40 38 35 32 27 24 22 23 31 30 35 35 35 35 35 34 33 35 36 37 35 33 33 32 32 30 27 22 19 18 19 19 23 21 23 26 20 28 21 27 16 15 19
38 35 32 24 27 26 25 26 28 30 31 33 34 35 33 34 35 36 34 32 30 31 30 29 28 29 25 19 17 17 18 20 27 20 23 19 19 18 21 22 24 19 25
35 33 28 26 24 25 24 24 24 27 30 32 33 32 31 33 33 32 32 28 28 27 28 27 27 24 21 19 20 19 19 18 24 23 11 15 18 20 19 23 21 22 16
33 32 28 26 25 24 24 25 27 29 30 31 30 29 30 30 31 31 28 25 25 26 25 24 26 24 21 18 19 18 21 27 23 28 31 25 16 21 25 27 23 22 18
32 30 27 25 24 27 26 27 29 30 28 28 27 28 27 27 28 28 25 24 24 25 24 24 24 22 19 17 18 21 20 22 20 24 20 23 19 23 28 28 26 24 23
32 28 24 25 25 27 27 29 30 29 26 25 25 25 25 25 27 26 24 24 25 25 24 24 20 18 15 12 13 16 15 19 17 14 21 24 22 17 22 25 27 27 28

GFSMA_700_spd_009.txt.gz
Wind_Speed
19 23 28 31 30 23 22 25 30 33 35 37 37 41 40 41 42 42 37 40 41 34 31 28 27 30 32 32 33 34 34 32 31 30 31 30 29 27 27 29 29 30 28
23 25 21 18 16 19 21 28 33 35 36 39 41 43 46 46 47 45 39 35 39 41 36 32 31 31 32 33 34 35 36 36 36 35 34 34 33 31 30 29 30 30 31
21 26 15 11 19 26 26 31 36 39 42 45 47 49 48 44 41 40 40 35 29 33 36 44 40 36 35 35 36 37 39 39 39 39 39 38 37 36 33 32 31 31 30
18 21 22 23 25 29 33 37 41 44 45 45 48 49 46 41 38 37 31 25 29 33 37 42 45 43 39 42 41 41 41 43 43 42 42 42 41 40 40 36 35 33 31
17 21 25 27 29 34 39 42 42 42 46 47 46 46 41 42 37 38 40 34 28 34 35 42 46 45 43 47 46 44 46 48 48 48 46 45 45 46 43 41 39 37 34
20 24 30 30 33 37 41 43 44 44 45 46 46 48 45 40 41 35 29 26 30 34 39 43 48 46 45 54 53 44 47 47 48 53 52 49 46 48 49 46 43 41 38
24 26 31 35 38 40 42 44 46 47 43 43 47 49 49 45 31 28 24 26 32 38 41 50 54 54 58 59 54 50 44 44 47 48 50 53 52 48 51 51 48 46 43
30 33 36 37 39 40 41 43 44 45 43 43 44 49 50 48 40 31 37 40 42 37 33 41 53 55 56 58 51 50 49 49 47 47 46 50 51 50 49 53 53 50 47
34 36 37 38 39 40 41 42 43 45 43 44 42 45 45 42 47 44 44 44 41 38 36 42 46 49 51 51 50 51 52 50 47 47 48 47 48 49 47 49 53 53 50
37 36 37 38 39 39 40 40 40 45 44 45 46 43 44 45 44 50 35 28 25 30 31 36 33 39 41 39 39 40 42 45 45 44 45 47 49 49 50 49 50 53 52
37 37 38 38 39 39 39 41 43 40 43 44 45 44 44 42 38 31 34 28 26 25 26 25 26 33 30 33 35 36 37 39 41 41 41 42 45 45 44 43 47 51 53
37 38 38 38 38 38 37 37 39 40 42 38 38 39 35 26 26 28 28 28 26 25 24 26 26 27 30 32 38 41 43 40 39 39 40 41 40 41 44 43 45 49 53
38 38 38 38 37 36 37 37 37 36 34 35 36 42 23 24 26 25 25 27 28 25 26 24 26 29 32 36 39 42 45 44 40 41 40 40 42 43 44 44 43 50 55
38 40 40 39 38 36 37 36 26 25 30 27 37 27 25 22 22 23 26 26 31 29 28 30 30 32 32 32 37 41 41 39 37 40 39 38 42 42 42 40 39 42 55
39 40 40 40 39 37 30 24 33 29 28 31 27 23 24 26 27 24 25 23 28 36 36 34 37 31 31 36 36 41 39 34 33 32 31 30 34 36 36 34 34 39 39
41 41 39 37 39 37 31 28 24 28 23 25 29 23 27 29 29 28 24 25 29 33 42 35 35 33 38 37 36 37 36 32 30 28 30 29 30 32 31 30 31 39 40
41 40 38 37 36 34 25 25 25 22 21 27 25 22 26 31 30 29 27 29 30 31 38 43 39 40 44 40 39 36 35 32 29 26 29 29 28 30 31 26 26 30 34
41 40 40 40 37 30 26 25 19 19 22 23 26 31 33 30 31 29 28 29 31 32 37 45 45 44 40 39 37 33 30 27 27 22 25 23 31 30 28 30 26 26 32
40 41 41 39 33 31 25 19 19 21 22 26 30 34 36 34 33 33 34 35 36 39 43 44 43 39 38 35 32 29 27 26 23 17 26 26 27 32 32 28 24 25 27
41 42 42 37 35 25 21 18 20 23 27 29 31 38 37 36 36 35 34 35 38 40 41 39 37 36 34 30 27 26 25 17 18 19 21 29 28 27 28 27 24 23 25
41 41 39 32 26 25 28 25 24 26 28 31 32 34 35 37 35 32 33 33 36 37 35 34 33 32 30 27 26 22 20 19 17 21 29 22 15 20 23 20 23 23 20
41 38 30 27 22 22 28 26 25 24 26 29 33 33 33 33 33 34 34 32 32 31 29 30 30 29 27 25 21 17 20 19 18 16 19 13 17 17 19 16 22 24 20
39 32 25 24 23 23 22 26 26 26 27 30 32 31 29 30 31 30 32 32 30 28 28 28 28 26 27 25 20 20 20 20 20 18 19 13 16 12 13 14 31 25 26
30 27 24 24 24 27 25 27 26 27 29 31 30 28 28 28 30 28 29 29 26 25 26 26 27 28 28 25 24 25 25 25 24 25 20 24 16 19 16 22 30 25 28
28 25 23 24 25 28 26 26 26 27 30 29 28 26 27 26 27 27 28 27 25 24 24 27 28 28 23 20 19 19 20 23 22 18 23 23 25 26 25 22 27 24 25
30 26 26 28 26 26 27 26 26 27 28 27 25 27 28 24 24 24 26 26 25 24 24 25 27 20 16 15 13 13 13 14 16 14 11 18 19 20 24 27 22 23 26

GFSMA_700_spd_012.txt.gz
Wind_Speed
15 18 23 24 28 28 33 25 24 27 29 31 34 38 39 40 43 42 43 38 34 35 37 33 33 31 29 27 27 29 30 30 30 29 29 30 30 25 27 26 25 24 25
18 22 18 25 24 25 18 20 26 28 32 35 40 43 45 45 44 40 41 42 37 33 35 36 36 34 33 33 32 31 32 34 34 34 33 32 33 32 29 30 28 26 25
17 16 16 16 18 19 20 22 27 32 35 37 39 41 43 44 44 37 38 35 33 35 36 41 44 42 39 34 34 36 36 35 36 37 38 37 36 36 35 32 33 30 27
16 17 17 18 22 27 30 32 35 37 39 42 44 44 44 43 38 39 34 35 34 30 39 44 41 49 45 43 41 37 37 40 41 39 41 42 41 40 40 38 36 35 33
16 20 21 22 24 29 33 37 38 40 41 41 41 41 45 43 39 36 33 33 28 25 33 39 47 50 49 51 51 47 41 43 41 44 48 45 45 45 44 44 41 39 37
17 22 27 28 30 33 36 38 39 41 41 43 43 42 44 44 41 37 33 30 31 33 36 40 47 48 52 55 60 57 55 48 49 50 51 48 49 50 49 48 47 44 43
21 24 26 32 35 36 37 38 39 41 42 42 43 43 43 45 42 36 42 40 39 37 38 41 46 50 57 59 56 56 55 51 52 45 42 44 47 51 52 52 52 49 46
27 31 35 34 35 37 37 38 39 41 42 42 42 43 46 47 46 46 40 37 37 40 41 47 51 50 53 57 58 53 47 48 49 46 45 42 41 46 50 51 54 54 51
30 34 36 37 36 35 36 37 38 41 43 42 41 43 46 48 51 48 47 45 46 48 47 41 47 47 45 47 44 42 39 39 42 39 38 40 40 40 45 48 49 53 53
33 35 35 34 34 36 37 38 38 39 40 42 42 43 44 47 50 51 47 48 41 38 31 31 36 37 39 43 37 33 35 37 36 37 35 36 35 36 36 43 47 48 53
35 34 33 33 35 36 37 37 38 39 39 39 42 44 45 44 43 42 51 46 39 32 28 27 32 35 34 36 34 33 37 42 41 39 35 36 36 34 34 34 41 46 49
35 33 33 36 37 37 37 36 37 39 41 42 41 42 38 39 39 40 39 38 33 31 25 26 30 31 34 32 34 37 40 43 44 45 43 38 38 36 34 32 34 39 43
35 35 36 38 39 38 37 37 38 41 36 33 34 35 39 36 41 33 30 31 34 36 35 30 31 31 32 35 36 38 40 42 42 41 41 39 37 34 36 35 34 35 39
35 36 39 40 41 39 40 39 40 37 33 29 28 30 36 34 26 29 31 34 36 36 36 31 29 30 35 35 38 41 42 44 42 39 35 34 33 29 31 33 31 35 37
35 38 40 40 40 42 43 42 38 33 30 27 32 32 23 36 30 31 31 32 35 40 38 36 39 35 36 40 42 42 43 45 39 33 30 29 28 28 27 29 31 32 35
36 39 40 40 38 39 42 40 37 31 31 28 23 21 31 36 27 26 40 38 33 33 43 39 37 38 42 44 44 44 42 38 37 34 30 30 28 27 27 29 30 29 31
37 39 40 39 38 38 37 33 31 28 25 21 23 28 32 30 35 41 40 35 36 35 40 39 38 42 44 43 43 41 37 35 33 30 27 27 29 29 28 29 30 27 27
39 39 38 38 39 39 37 31 27 26 21 26 26 27 32 37 39 42 42 38 38 37 38 43 41 43 43 42 38 37 34 32 29 27 22 27 25 24 25 24 28 25 28
38 38 37 39 38 34 33 28 25 25 23 26 27 32 36 34 40 42 38 37 36 36 37 41 42 41 40 36 34 33 30 29 27 24 21 19 21 25 21 24 29 25 29
38 38 38 38 36 32 28 27 24 25 25 28 30 32 33 37 36 37 35 34 34 36 37 38 38 37 34 32 31 32 30 27 25 22 23 20 21 18 24 24 21 26 26
37 37 38 36 35 32 23 25 26 28 29 29 30 31 32 35 35 32 30 31 31 33 34 35 33 32 30 28 27 27 27 23 18 19 17 21 24 16 19 17 23 22 24
36 38 37 34 33 33 23 25 25 28 29 30 30 31 31 32 33 31 31 32 32 33 33 32 30 28 27 28 29 30 26 24 21 18 20 17 21 21 14 10 17 23 21
37 38 36 34 34 33 29 24 23 27 29 30 30 31 30 28 29 28 29 30 30 30 30 30 30 29 30 31 32 28 25 26 26 20 21 20 21 12 16 13 18 24 18
34 33 33 32 36 34 33 28 26 29 29 30 30 30 28 28 28 29 29 27 28 28 27 27 28 27 28 29 27 24 23 22 21 23 21 27 17 14 16 14 18 23 28
34 33 31 32 35 33 32 29 28 29 30 29 29 28 26 26 28 28 26 25 25 26 26 25 25 28 27 20 18 18 16 17 15 14 13 22 22 17 21 19 18 24 25
34 31 32 32 35 34 32 29 26 29 29 27 26 25 26 27 27 25 24 24 24 25 26 22 22 24 19 16 14 13 15 16 16 13 9 13 12 14 15 19 21 24 22

GFSMA_700_spd_015.txt.gz
Wind_Speed
15 15 17 20 20 21 25 22 20 21 26 28 29 32 34 35 36 37 37 36 36 36 33 32 33 30 29 26 26 28 29 29 30 30 29 29 29 28 26 26 23 22 22
22 23 23 18 17 18 20 19 22 26 27 28 31 34 36 37 35 34 36 35 37 36 36 37 39 40 37 33 30 27 29 32 33 33 34 33 33 32 31 30 30 27 25
20 19 16 17 19 21 23 24 26 28 30 31 33 36 37 37 36 36 34 35 34 36 35 37 41 43 43 43 41 33 30 32 34 33 36 37 37 37 36 35 33 32 30
16 16 16 19 23 26 28 29 31 34 35 36 35 34 36 37 35 35 35 35 37 39 39 41 43 47 48 50 49 45 41 39 35 36 38 41 41 41 41 39 38 36 35
15 15 16 19 23 26 27 30 33 35 33 32 32 33 35 36 35 35 36 36 34 36 39 41 45 47 51 54 56 56 55 51 47 47 47 46 43 41 44 45 44 43 40
14 16 18 21 24 27 30 33 34 31 31 33 33 33 35 38 38 39 39 38 37 36 37 40 45 50 53 54 56 57 56 57 60 59 54 51 51 49 46 48 50 49 47
16 20 24 25 28 31 32 31 31 32 33 33 34 35 35 37 39 41 42 42 40 38 38 42 47 51 54 55 56 59 60 61 61 62 58 45 45 53 54 50 53 53 52
20 21 21 28 30 29 28 29 32 33 34 35 36 37 40 40 41 43 44 42 45 44 40 41 47 52 55 56 59 61 59 58 55 47 40 39 30 30 37 46 51 54 54
24 26 32 32 31 29 29 31 32 34 35 35 38 40 43 46 47 48 47 47 45 41 40 43 44 45 46 46 48 50 49 45 35 31 26 30 34 29 28 32 43 50 54
29 35 37 37 33 30 32 33 34 35 35 36 38 40 42 44 47 50 49 46 42 42 40 32 34 39 42 44 46 45 42 39 34 32 32 29 31 35 32 29 31 42 49
33 39 35 37 31 31 32 34 35 34 35 37 40 42 42 43 42 43 46 44 44 41 31 27 25 35 39 40 41 39 40 38 36 36 36 37 37 35 36 34 31 33 40
37 40 36 35 32 32 33 34 35 36 38 39 40 39 41 43 40 40 40 40 41 36 31 32 34 30 34 37 37 38 37 36 37 39 38 37 38 38 36 37 35 34 37
41 39 35 35 32 32 35 34 35 37 40 38 38 37 39 38 37 37 38 42 36 33 36 31 30 32 30 31 36 38 37 36 38 38 40 40 39 37 37 34 34 35 36
41 37 38 36 35 36 37 36 36 37 38 36 34 35 36 35 36 33 36 35 32 39 41 37 31 30 32 35 38 39 37 38 41 41 41 40 35 36 34 30 32 34 37
36 34 35 35 34 37 38 38 37 38 36 36 35 34 34 31 30 31 34 35 33 43 44 37 35 33 35 35 36 36 38 41 41 42 41 36 35 34 32 28 29 30 34
39 34 35 33 32 35 37 38 38 37 34 34 35 32 29 28 27 34 35 37 40 43 50 40 36 37 38 38 38 39 41 40 40 38 37 36 35 32 31 29 28 28 28
42 35 34 33 34 34 35 33 32 31 31 31 29 28 25 31 34 35 39 44 42 45 46 43 39 38 39 40 39 38 38 37 35 34 32 30 30 30 30 30 29 29 28
37 35 33 33 34 35 35 34 31 28 29 26 26 26 28 32 33 38 43 42 41 40 42 42 37 38 38 38 38 36 33 31 31 30 28 27 29 29 28 26 26 29 27
38 36 33 31 33 34 31 33 30 29 28 26 27 28 30 33 35 36 37 37 36 33 34 38 38 36 36 36 33 31 30 30 29 29 29 28 28 28 27 26 26 26 25
38 27 27 30 33 37 35 31 28 28 29 28 31 32 32 34 35 37 36 33 31 32 33 34 35 34 33 30 29 31 30 28 28 27 26 26 24 24 22 22 24 23 18
26 25 27 29 33 37 37 28 26 28 28 27 31 31 33 34 36 35 31 29 31 31 32 32 31 31 28 28 28 28 31 32 26 25 25 22 23 23 24 24 23 23 24
21 24 25 29 34 37 36 31 28 29 28 29 30 32 32 33 34 30 28 29 31 33 32 33 32 30 27 27 28 30 32 28 22 19 25 20 22 20 16 18 14 18 20
24 23 28 33 35 38 36 32 30 32 31 31 32 33 33 33 30 27 28 29 27 27 29 30 30 29 28 28 31 29 23 22 21 19 22 18 19 20 15 16 9 2 10
22 26 31 33 37 38 35 33 34 36 34 32 32 33 33 31 25 26 27 26 24 25 26 28 30 28 28 28 27 23 21 19 18 16 16 19 17 21 21 13 13 14 14
23 28 34 36 35 34 33 32 34 36 33 32 32 32 31 26 24 27 24 23 22 23 24 25 27 25 25 25 21 19 18 17 15 13 11 18 14 16 18 18 16 19 18
26 32 34 32 30 27 28 30 32 31 30 30 31 30 25 23 25 25 23 22 21 22 23 23 23 23 22 19 16 16 13 10 14 11 13 19 13 13 15 16 23 24 22

GFSMA_700_spd_018.txt.gz
Wind_Speed
12 15 18 20 21 20 20 20 22 20 21 25 27 30 31 31 29 30 31 31 32 33 34 36 33 33 34 31 28 27 29 31 32 32 32 32 33 32 30 30 30 28 26
19 21 16 15 17 18 19 20 20 22 24 26 30 31 31 31 30 30 31 33 34 34 34 35 36 37 37 37 36 32 29 29 32 33 35 38 37 36 36 33 32 32 31
15 14 14 14 16 19 22 24 26 30 31 32 33 33 31 31 32 32 31 31 31 32 34 36 39 43 43 44 45 43 43 40 34 36 36 39 39 38 37 38 36 34 35
13 14 13 16 19 23 27 29 27 27 31 34 32 28 29 30 30 29 29 30 32 33 34 38 40 44 47 50 53 53 52 50 48 43 41 42 41 40 40 39 40 41 38
12 13 14 16 21 23 23 26 29 31 31 28 27 27 28 30 29 29 29 31 33 34 36 39 42 46 49 52 54 57 61 60 57 54 51 51 48 47 46 43 43 45 45
14 14 16 18 17 20 25 26 27 27 27 27 27 27 27 29 30 31 31 33 34 37 39 41 44 47 49 52 54 57 58 60 62 61 57 57 57 56 54 53 48 49 48
16 15 20 18 20 25 30 28 27 26 28 29 28 28 27 30 32 34 35 36 38 37 38 40 43 47 51 54 56 57 57 58 60 59 62 66 62 50 52 56 59 55 54
18 18 22 24 30 31 31 30 27 28 29 30 30 30 31 33 34 36 38 39 39 38 38 39 42 46 51 56 57 56 56 56 56 53 49 43 40 32 29 32 42 53 56
16 21 25 31 32 31 34 32 30 30 31 33 32 33 36 38 40 41 43 44 44 43 40 37 39 42 45 49 51 51 49 50 48 42 27 27 29 32 29 29 32 34 44
22 26 29 34 34 33 33 34 35 33 33 34 35 36 39 42 43 45 45 46 44 43 40 39 35 33 33 37 41 45 48 46 46 42 32 29 29 33 35 31 32 35 36
26 29 32 37 37 35 33 34 37 37 36 37 38 39 40 41 42 44 47 45 44 40 37 34 29 30 32 36 39 40 44 47 46 42 37 34 32 33 35 37 34 35 38
33 35 37 39 41 38 37 35 37 37 38 38 39 41 41 41 41 42 44 42 41 35 35 29 29 31 33 33 35 37 39 42 43 41 39 39 37 36 36 38 39 37 38
39 40 42 45 50 39 38 36 40 38 36 37 39 40 40 38 39 41 41 38 37 34 35 32 36 35 33 33 32 34 36 38 41 41 41 41 40 40 39 39 39 37 38
43 47 47 44 54 38 41 40 39 37 37 37 38 38 35 35 35 36 34 33 35 35 39 39 42 41 39 36 34 33 34 36 37 39 40 42 43 41 40 40 37 34 35
45 48 52 49 43 39 41 39 37 36 36 36 34 32 32 33 32 29 28 30 38 42 43 46 43 42 42 40 38 37 37 38 39 41 42 42 42 41 38 36 35 32 32
49 52 52 53 42 39 35 40 34 36 36 33 33 34 31 29 28 28 30 33 38 42 48 50 47 45 44 41 39 38 39 39 39 40 40 40 39 38 36 34 32 32 31
51 56 54 50 43 41 32 30 31 30 31 31 32 31 30 29 30 30 35 38 41 44 45 47 45 42 40 40 39 39 39 38 37 36 35 34 34 35 34 33 32 32 32
52 56 55 48 43 28 25 26 29 35 33 30 30 29 29 30 32 33 34 36 38 40 41 44 40 37 38 38 38 37 34 33 31 30 31 30 31 32 32 32 31 30 30
53 54 54 46 41 35 31 33 29 30 32 31 31 32 31 34 35 34 35 37 38 38 39 40 40 37 37 35 34 33 30 28 28 30 31 31 31 32 32 32 30 29 28
51 51 49 39 39 33 26 26 27 27 29 30 31 33 32 33 34 35 35 37 37 36 36 37 37 34 32 30 30 30 28 27 28 31 32 33 31 28 28 26 26 27 25
53 52 42 40 30 22 27 29 30 29 29 31 32 32 32 33 33 34 35 36 35 36 36 35 31 30 30 29 27 26 29 30 27 27 25 22 26 24 25 24 23 22 20
58 42 37 32 23 27 30 33 34 32 30 33 34 37 34 33 34 34 34 33 34 36 35 32 30 31 31 31 28 28 29 29 24 21 20 17 26 22 23 20 14 18 22
43 37 33 22 24 28 32 35 35 34 31 34 35 40 34 34 34 33 31 32 33 32 32 31 29 30 31 31 28 28 25 24 20 19 25 19 20 19 20 17 12 20 14
35 31 19 21 25 30 33 32 33 32 33 33 35 33 32 33 33 29 29 30 28 27 27 27 28 28 30 29 28 27 23 19 16 12 20 20 18 14 16 19 20 15 15
31 16 18 24 32 30 28 29 30 30 31 35 32 32 32 33 29 27 28 26 23 23 25 26 26 27 28 28 28 25 20 18 12 10 12 20 18 14 12 18 23 19 15
19 18 23 30 28 26 26 27 28 29 31 30 29 30 32 30 27 26 26 23 22 22 22 23 24 24 25 26 25 23 19 17 14 10 14 19 18 18 11 15 19 22 24

GFSMA_700_spd_024.txt.gz
Wind_Speed
8 11 13 15 11 10 10 13 16 20 23 26 28 29 30 30 28 25 25 25 26 24 26 24 21 18 16 16 17 18 18 18 19 21 23 24 25 26 28 30 31 32 33
9 10 8 7 6 8 11 15 18 21 25 28 30 32 33 31 29 27 26 27 27 27 27 28 29 27 25 23 24 25 27 28 29 28 29 30 28 28 32 33 34 34 36
7 7 6 7 7 9 14 17 19 21 25 29 31 34 35 34 33 33 32 30 29 30 30 31 32 33 34 35 34 34 36 37 39 39 40 38 36 37 36 36 38 40 41
8 7 7 8 10 14 19 22 23 25 29 33 34 35 36 36 36 37 37 36 35 34 35 36 37 37 37 38 39 41 42 45 47 48 48 46 48 48 44 44 46 45 45
8 9 10 12 14 17 20 24 26 28 30 32 34 35 36 36 37 38 39 38 37 38 39 40 42 42 43 43 44 46 48 50 52 53 56 55 54 55 55 55 54 53 53
9 10 12 14 17 19 26 25 27 28 29 31 33 36 37 37 37 38 39 39 40 40 42 43 45 46 47 48 49 50 51 53 55 56 57 57 60 62 64 64 64 62 59
11 13 14 16 20 22 24 26 27 27 31 31 33 36 36 36 38 39 41 42 43 44 45 46 47 48 49 50 51 52 52 54 55 53 51 53 55 58 56 56 56 59 60
13 15 16 17 20 23 26 29 32 35 35 34 35 37 34 36 40 42 42 44 46 47 49 49 48 48 48 49 50 51 53 55 53 52 48 48 49 48 47 48 50 51 49
17 18 18 20 24 28 32 35 38 39 41 39 41 35 37 39 42 43 45 47 49 49 50 49 48 47 48 47 47 47 49 47 47 45 43 43 44 45 43 43 45 45 43
21 23 24 26 31 34 38 41 42 42 42 46 42 38 39 42 44 46 46 48 49 47 46 44 42 41 42 40 40 39 40 41 41 41 41 41 42 42 42 42 42 41 38
25 27 29 33 37 41 45 47 50 46 43 49 44 44 43 41 42 44 48 47 46 43 42 40 38 37 36 36 37 38 39 40 40 41 41 42 43 43 40 40 39 38 35
28 32 35 39 42 45 48 52 50 53 46 46 46 44 41 40 42 42 44 43 42 39 38 36 33 35 36 37 38 38 40 41 40 40 41 42 44 43 41 38 37 37 37
34 37 41 47 43 45 49 53 51 43 46 45 40 40 36 38 40 40 38 38 39 40 37 35 34 33 34 35 36 39 40 41 41 40 39 40 42 43 41 40 38 38 37
32 34 35 37 37 42 44 45 49 50 48 45 40 37 37 36 34 37 38 36 38 39 40 37 35 34 35 35 37 40 40 40 39 39 39 39 40 41 40 40 39 39 39
28 38 37 40 42 42 48 48 46 48 45 43 41 40 38 39 37 33 33 34 35 37 39 37 37 38 40 40 40 39 39 39 39 39 40 40 40 40 41 40 39 39 39
28 38 37 37 42 42 45 46 50 43 42 39 40 38 34 30 31 31 32 32 34 35 38 36 37 39 40 40 39 39 39 41 40 39 39 37 37 37 38 36 34 34 35
31 35 35 41 39 44 45 47 47 41 40 38 35 29 29 31 30 29 29 31 33 34 36 35 37 39 39 39 39 40 40 38 37 36 35 35 34 33 32 31 30 28 28
32 35 34 40 41 46 48 49 43 40 40 33 30 30 31 32 31 32 33 34 36 35 36 37 38 38 37 38 39 38 35 35 36 36 36 34 32 31 30 32 32 31 30
34 36 42 43 45 52 49 36 36 42 33 30 30 31 32 33 33 34 33 36 37 35 37 39 37 36 37 37 36 34 32 32 33 34 33 32 32 32 32 31 30 30 31
37 41 46 49 52 53 44 36 42 32 27 29 30 32 32 33 32 33 33 36 35 35 37 37 35 36 36 34 34 34 30 31 30 30 29 28 28 28 27 27 27 25 25
44 39 45 51 58 47 38 42 38 28 27 31 33 32 32 32 32 32 34 35 34 35 36 34 34 35 34 33 33 33 33 30 26 29 26 23 24 23 25 27 28 27 26
41 45 50 55 48 45 39 43 30 27 31 33 34 33 31 32 32 33 33 33 33 35 33 33 33 33 32 33 32 32 32 30 27 25 23 16 22 20 21 22 23 22 19
50 52 62 49 45 41 43 36 25 31 34 35 33 32 31 32 32 33 33 31 32 33 31 32 32 31 30 31 32 32 31 29 26 23 26 16 20 17 21 23 21 19 16
47 45 48 44 44 42 41 28 29 34 35 33 32 31 31 31 31 32 31 30 31 30 30 30 30 29 28 29 32 33 31 28 24 21 25 21 17 18 20 23 21 17 15
45 42 40 40 41 39 30 30 33 35 34 33 32 31 31 32 31 32 31 30 30 28 28 28 28 26 26 28 31 33 31 28 23 18 18 24 18 17 15 16 20 17 15
37 38 38 39 36 32 30 33 34 34 34 33 33 33 32 32 32 31 32 30 29 27 26 26 26 24 24 26 29 31 31 29 26 20 18 20 14 18 21 15 19 21 17

GFSMA_700_spd_027.txt.gz
Wind_Speed
7 9 10 11 10 7 8 9 13 15 17 19 21 24 26 26 25 26 26 26 26 26 26 26 25 24 23 21 21 23 23 23 22 23 25 24 25 25 27 26 26 26 26
9 10 8 5 5 6 7 11 15 18 20 23 27 28 27 27 26 26 27 28 28 27 28 28 28 29 29 28 28 29 29 30 31 32 33 34 34 32 30 31 31 31 32
3 3 2 3 4 6 9 13 18 22 24 25 26 26 27 27 28 29 29 29 30 30 30 31 32 33 34 34 34 35 36 36 37 39 41 43 42 40 41 39 36 35 37
2 2 2 3 6 9 11 13 20 20 22 23 26 27 28 30 31 31 30 31 32 33 35 36 37 39 40 42 43 42 42 44 45 45 47 49 51 53 52 50 49 47 43
3 4 5 6 9 12 14 18 18 20 23 27 31 32 29 33 35 33 31 34 37 38 38 39 41 43 45 46 47 48 49 49 49 50 52 54 55 58 59 58 55 53 53
5 6 8 9 11 14 16 18 20 23 25 29 32 33 32 39 37 33 34 38 40 41 41 43 45 47 49 50 51 50 51 52 52 52 52 53 56 59 60 62 62 62 61
8 9 11 11 13 15 18 20 24 27 30 33 37 39 38 39 36 37 36 38 41 42 43 46 48 50 52 53 53 54 54 54 53 53 53 53 52 52 55 58 60 60 61
13 13 13 14 16 19 22 26 30 33 35 38 44 41 41 40 40 40 38 40 44 43 44 47 50 51 53 53 54 54 54 53 51 51 50 48 46 44 45 47 48 50 50
18 17 16 17 19 23 27 31 34 36 42 45 42 40 42 42 39 38 35 42 44 43 45 48 51 52 52 51 50 49 49 49 49 47 45 45 44 44 43 42 42 42 43
20 21 22 23 25 28 32 35 36 39 45 49 41 39 39 35 36 40 40 39 42 43 45 47 47 48 47 45 46 46 46 45 45 44 43 43 43 43 42 42 43 42 41
25 25 26 28 30 32 37 42 47 37 41 40 43 42 35 37 37 38 39 41 41 40 41 41 42 43 42 40 41 42 41 41 41 41 42 43 44 44 44 44 43 41 39
25 27 27 33 32 32 34 32 38 34 39 41 37 37 37 37 38 38 38 37 38 38 39 38 37 37 38 39 38 38 38 39 40 42 43 43 43 43 43 43 42 41 39
26 26 28 30 28 31 35 37 37 34 39 35 38 39 37 36 36 35 35 36 35 36 36 36 36 36 37 36 35 36 39 39 40 41 41 41 41 41 41 40 40 39 39
27 29 30 28 31 39 38 35 39 39 37 39 39 36 34 35 34 32 30 32 34 36 38 37 35 35 35 34 36 37 38 39 39 40 40 41 41 41 42 41 40 38 38
26 27 26 29 37 35 35 39 34 40 40 41 36 35 35 33 30 30 30 31 31 34 35 34 36 36 36 37 38 39 38 39 39 41 41 40 39 38 38 37 36 36 36
27 28 24 32 31 40 33 37 41 39 50 36 34 37 34 31 29 30 30 30 31 33 36 35 34 34 36 37 39 38 38 40 40 39 38 36 35 34 33 32 30 29 30
28 24 24 31 33 38 36 39 41 47 40 34 37 33 31 30 29 31 30 30 31 32 35 34 35 33 36 37 37 38 39 38 38 36 36 35 34 33 30 29 27 27 27
27 18 28 33 34 43 44 47 47 42 33 39 34 32 30 30 30 32 31 31 31 33 34 35 33 35 36 35 37 38 36 35 36 35 35 36 34 31 30 29 28 27 28
27 27 27 37 35 41 36 43 47 33 40 35 33 31 30 31 32 31 31 31 32 33 35 34 33 35 34 35 36 35 33 33 33 34 34 33 31 30 28 28 27 25 24
27 26 34 38 40 44 47 47 31 38 41 37 32 30 30 32 32 31 31 30 31 33 33 33 33 33 33 34 34 34 30 30 31 31 32 32 30 27 25 26 27 26 25
30 34 38 45 53 52 50 38 39 39 39 35 31 31 32 33 31 31 32 31 32 33 32 33 32 32 32 32 31 30 31 32 30 29 30 27 26 23 23 24 25 25 23
34 37 43 42 42 33 38 38 39 40 42 33 31 31 34 34 33 32 32 31 32 31 31 32 32 31 30 29 28 28 30 32 30 27 29 23 24 20 22 22 22 21 20
38 45 50 45 44 39 37 38 39 45 36 33 32 35 35 34 33 33 32 33 31 30 30 31 30 29 29 27 25 25 28 30 28 26 29 26 22 19 20 22 22 20 17
46 43 46 38 34 34 35 39 42 35 35 33 36 36 36 35 34 34 34 34 32 30 29 30 29 28 28 25 23 24 26 28 29 25 28 30 24 20 18 18 23 21 18
30 26 31 31 33 34 34 35 35 34 35 36 37 37 36 36 35 34 36 33 33 30 30 30 29 28 27 25 23 23 24 27 29 24 25 27 24 21 14 16 17 23 21
31 31 31 31 31 32 32 32 34 37 38 38 38 37 37 36 35 36 38 35 34 30 31 29 29 28 27 25 23 24 24 26 28 29 27 25 20 22 13 13 16 21 23

GFSMA_700_spd_030.txt.gz
Wind_Speed
12 11 9 9 11 9 5 5 7 10 15 17 19 19 18 18 19 21 23 23 23 24 24 25 24 23 23 23 24 24 25 26 27 28 29 29 29 27 27 27 30 31 31
11 10 10 11 9 7 4 5 9 14 15 16 16 18 19 19 19 22 25 24 24 24 26 27 28 28 27 26 27 30 31 31 33 35 36 36 35 37 39 38 33 31 31
10 10 10 9 8 6 4 6 9 14 15 16 17 20 22 20 21 26 29 28 26 25 29 30 30 30 32 32 32 32 35 36 37 38 40 43 45 45 44 44 46 44 42
11 10 9 9 6 5 6 9 12 14 16 18 21 23 23 25 25 31 28 27 26 32 32 33 35 35 36 37 39 40 40 42 43 43 45 46 49 51 52 52 52 51 50
10 9 8 7 6 7 8 10 12 16 18 22 25 28 32 34 33 32 31 30 31 32 33 35 36 38 39 40 43 45 47 48 48 50 51 52 52 53 55 58 57 56 57
10 10 7 8 9 9 10 12 15 19 22 26 30 34 37 36 34 34 36 36 36 35 34 36 39 40 39 42 45 46 48 50 52 53 54 53 53 53 52 54 56 58 58
14 11 10 11 11 11 13 16 19 23 26 30 35 38 41 38 35 33 34 34 34 34 33 39 38 40 45 46 47 48 51 52 52 53 52 52 52 50 50 49 50 52 53
17 16 16 15 15 16 18 21 24 27 30 34 36 37 40 42 39 35 31 32 33 36 38 39 40 42 43 45 50 51 52 52 52 51 52 52 52 51 49 47 45 46 47
19 21 21 21 21 21 22 24 26 30 34 39 42 33 35 33 39 41 34 33 35 36 38 41 43 44 45 45 48 50 53 52 51 51 51 51 51 50 48 46 44 44 44
22 23 25 26 27 27 26 27 28 28 30 36 35 30 31 30 29 31 39 40 36 36 39 40 41 43 44 43 45 47 47 49 49 49 48 47 45 44 44 44 44 43 44
28 28 29 30 29 29 28 28 28 33 30 31 34 35 29 31 30 30 31 33 41 41 40 39 38 37 39 41 41 44 45 45 44 45 45 45 45 44 44 45 44 43 43
26 27 26 28 31 31 31 35 31 37 28 40 37 36 31 33 32 33 34 35 37 37 37 35 35 36 37 38 39 40 39 41 41 41 42 43 43 43 43 43 44 43 42
28 29 30 29 28 29 30 32 36 38 36 36 35 33 38 37 32 33 35 35 34 34 33 34 33 34 33 35 36 39 37 40 39 40 41 41 43 43 44 44 45 44 44
29 32 36 32 27 30 33 35 36 33 36 36 37 37 43 37 34 36 33 31 31 29 23 23 28 32 34 33 34 36 36 38 39 39 41 42 43 43 43 42 43 42 42
30 33 34 31 35 32 34 39 34 34 37 40 37 41 39 33 35 33 30 29 28 30 29 22 24 28 35 35 36 37 36 38 39 41 42 42 41 39 37 36 37 36 36
31 33 35 35 35 33 38 37 33 38 38 44 40 37 34 33 33 31 29 29 30 31 32 24 22 27 33 32 36 36 36 37 39 40 39 39 39 37 35 34 34 33 34
34 38 39 38 31 27 29 34 36 36 41 43 33 33 32 33 32 30 28 29 30 30 30 28 25 26 36 35 35 35 36 37 38 39 38 38 37 36 35 33 30 29 29
34 34 30 28 24 31 35 37 39 43 44 34 35 36 33 34 33 28 29 31 31 29 29 32 30 32 33 36 35 35 35 35 35 36 36 38 37 35 33 30 28 27 27
34 33 32 33 30 34 36 41 48 47 40 33 35 36 36 33 31 28 30 30 27 28 30 32 34 33 34 35 35 34 34 32 32 34 37 38 35 33 30 27 26 25 25
36 34 33 35 36 37 44 40 43 32 34 35 36 36 35 32 30 30 31 29 30 30 30 33 35 34 34 34 34 33 32 30 29 32 34 37 33 31 26 25 25 25 26
37 34 30 36 40 37 41 47 41 37 35 36 36 39 37 32 30 33 35 35 35 33 34 34 34 34 34 33 33 32 31 28 28 31 33 36 32 29 25 25 25 25 25
32 32 33 37 41 46 44 35 32 35 36 37 39 38 34 34 32 35 37 38 37 38 37 34 34 34 33 33 32 31 30 27 27 28 32 34 29 27 23 21 23 22 21
30 31 34 34 35 35 28 30 32 36 38 38 37 34 34 34 38 38 39 38 39 39 37 34 35 34 33 32 31 30 29 26 26 27 31 32 30 27 20 20 23 21 24
32 34 36 34 32 29 29 30 34 37 38 37 37 36 37 38 39 40 38 40 40 40 38 36 35 32 33 31 30 29 28 26 25 27 29 32 29 30 22 19 19 20 22
31 33 34 30 29 30 29 30 33 38 38 37 38 39 40 41 39 40 39 40 40 41 39 36 36 34 33 31 29 29 28 27 26 26 27 30 28 30 24 17 16 19 22
24 25 25 26 28 29 30 31 35 38 40 40 41 42 42 41 40 41 40 40 41 40 38 39 35 34 33 31 29 28 27 27 26 25 27 29 29 28 28 16 16 19 23

GFSMA_700_spd_033.txt.gz
Wind_Speed
14 11 10 8 8 9 6 3 3 3 6 9 10 12 15 15 14 18 17 23 25 24 24 25 25 25 24 23 22 22 23 23 25 27 28 30 32 33 31 31 28 28 29
14 13 11 11 12 9 6 5 5 5 7 9 11 14 15 16 17 19 27 24 24 24 24 27 28 27 27 27 27 27 27 28 29 30 30 31 33 34 37 40 41 40 37
13 13 14 13 11 10 7 7 6 7 8 9 12 14 16 18 21 23 25 32 26 25 26 29 30 29 30 31 30 30 31 33 34 35 37 38 39 39 40 41 43 46 48
15 14 14 12 12 9 9 9 8 8 9 12 16 18 21 25 28 26 25 25 28 37 32 29 30 31 31 33 34 34 34 38 39 40 40 42 44 47 49 50 51 52 50
15 15 14 12 12 12 10 11 9 11 13 16 21 24 26 29 29 31 31 27 26 28 33 33 30 33 34 35 36 38 39 42 43 44 46 48 48 50 52 53 53 54 56
16 14 14 12 14 13 13 12 13 15 18 21 26 31 34 35 36 35 31 29 32 27 27 28 33 36 35 34 36 38 41 43 45 47 48 50 51 51 52 52 52 52 52
17 16 15 14 15 15 17 16 17 19 21 24 28 35 41 42 36 32 31 30 31 30 31 31 29 31 37 40 43 41 42 42 45 48 51 52 52 51 51 50 50 51 52
18 20 19 17 19 21 20 20 22 23 26 25 28 33 34 34 39 38 31 30 29 28 32 33 31 33 35 36 43 47 46 41 44 47 50 52 53 54 54 53 52 50 48
17 20 24 23 25 26 24 25 26 27 29 30 32 34 27 22 29 36 39 30 31 30 31 32 36 39 41 40 39 42 45 45 45 46 48 49 50 51 52 52 50 49 47
23 25 25 25 29 30 31 31 32 32 31 35 39 34 26 33 26 27 35 41 39 36 35 36 35 37 42 44 43 43 42 42 45 45 46 47 48 50 50 49 48 47 46
26 28 29 30 32 32 35 35 36 34 36 36 36 31 38 31 29 28 30 27 36 40 43 43 41 40 41 40 40 43 42 41 43 43 43 45 47 47 46 46 45 44 45
28 30 31 34 34 34 35 37 36 39 42 37 34 38 31 31 33 36 35 30 31 34 37 41 41 42 41 39 38 39 39 38 41 40 40 42 43 43 44 45 46 46 47
29 34 38 37 34 34 37 39 40 35 39 31 36 32 30 31 34 35 31 32 36 36 35 39 42 41 39 38 37 38 38 37 38 38 37 38 41 43 44 45 45 45 45
37 32 36 45 35 32 44 44 37 38 32 32 29 40 34 39 39 35 30 33 35 37 36 36 29 31 36 35 39 36 36 35 36 37 39 40 41 42 43 43 42 42 42
46 48 35 30 32 35 38 39 41 31 33 39 38 39 37 36 32 31 32 33 36 37 36 30 27 26 33 36 40 37 37 36 36 37 38 38 39 40 40 40 39 38 39
32 31 32 32 35 39 41 38 37 27 29 33 39 43 38 33 33 34 33 35 37 36 37 30 24 26 33 36 39 38 34 35 35 37 38 36 35 36 39 38 38 37 36
32 32 34 36 38 37 34 32 33 36 34 38 44 43 33 31 33 33 34 36 35 33 33 31 25 27 33 36 36 38 37 37 36 37 37 32 33 37 38 38 37 35 33
32 33 37 38 37 39 38 31 39 34 36 39 41 33 30 33 34 35 36 34 33 31 31 34 29 30 33 34 34 36 37 35 35 34 34 31 34 35 37 36 34 32 29
37 39 39 40 37 37 35 38 37 42 40 46 33 30 32 35 37 37 35 33 34 32 31 33 35 31 35 34 33 36 37 38 35 34 33 32 36 36 38 34 31 29 26
37 39 40 39 39 37 37 38 38 45 44 29 32 33 35 35 36 36 35 32 35 35 34 39 35 34 33 33 35 36 37 38 37 34 31 31 34 37 38 35 30 25 23
35 34 31 32 33 33 36 38 36 39 35 32 35 35 36 37 38 36 34 34 34 37 40 42 41 36 36 33 34 34 38 38 37 34 32 29 32 35 37 34 29 29 25
34 33 31 31 33 32 33 35 38 36 35 35 36 37 38 38 37 36 35 35 37 40 42 44 47 45 41 39 38 37 39 39 38 32 32 29 32 33 36 34 27 29 24
36 36 35 36 34 37 36 37 36 36 36 38 38 38 39 38 37 37 39 43 43 40 42 44 46 45 43 45 43 40 38 38 37 33 32 32 31 32 33 33 29 28 23
34 34 33 33 34 33 35 33 33 34 38 38 38 40 40 41 41 41 44 45 46 48 45 44 43 42 41 45 42 39 38 37 35 32 31 32 30 31 31 33 27 26 20
31 30 30 29 29 29 31 30 33 36 38 38 38 39 41 42 42 43 45 49 49 49 48 47 44 41 40 42 39 38 37 36 35 31 30 30 30 30 30 33 26 25 25
27 26 26 27 27 27 30 31 32 35 37 39 41 42 44 46 48 49 49 49 51 48 45 47 42 42 41 40 39 37 35 35 33 30 27 28 28 29 29 30 29 22 23

GFSMA_700_spd_036.txt.gz
Wind_Speed
18 16 9 8 7 6 5 2 1 2 1 2 4 6 9 10 16 14 16 19 21 23 21 22 22 22 21 21 22 23 24 24 23 24 25 26 27 29 32 32 30 30 30
20 17 10 9 8 8 7 5 6 5 3 4 5 7 9 12 18 25 20 20 21 22 21 25 27 27 25 24 24 24 27 27 26 27 28 29 30 32 33 34 35 38 39
18 13 13 11 11 11 9 8 8 7 7 7 8 9 11 16 18 22 29 27 27 24 24 25 26 26 27 27 26 27 28 28 29 31 33 34 35 36 36 37 39 40 42
16 16 14 13 13 11 11 11 11 10 10 11 11 13 18 21 24 26 27 32 31 29 25 25 23 26 27 28 29 30 31 31 33 35 38 40 41 42 44 46 47 47 48
17 15 15 14 13 12 14 13 14 13 12 14 15 17 20 25 27 28 26 21 23 30 31 29 26 26 29 29 29 31 32 34 38 40 41 41 41 42 44 46 49 52 54
17 16 15 14 12 15 16 16 16 16 17 17 20 24 25 26 28 31 25 24 25 21 27 30 30 30 29 29 29 32 34 36 39 41 41 41 43 45 46 48 50 52 54
15 15 16 13 15 17 18 19 20 19 22 23 23 26 30 33 32 31 28 32 29 27 25 26 27 31 32 32 34 37 37 35 36 39 41 43 44 45 47 50 52 54 55
13 15 17 17 18 22 24 23 21 24 27 26 28 29 27 32 33 33 34 32 29 29 30 30 28 28 31 34 36 41 42 39 36 38 40 41 43 45 47 49 51 52 53
17 16 18 22 21 24 29 28 27 29 31 33 31 32 31 31 35 35 36 34 31 28 29 31 34 34 34 33 35 41 41 41 41 39 39 40 42 44 46 48 50 51 51
21 23 23 22 23 26 31 32 32 32 35 38 38 36 36 37 40 34 36 35 37 38 37 34 33 33 35 39 42 46 44 41 39 41 41 42 44 44 46 46 48 48 48
22 23 26 27 28 32 32 39 36 36 37 38 40 42 42 41 31 30 29 29 38 39 40 42 40 38 37 41 42 45 46 43 38 41 40 41 43 43 44 45 45 45 46
24 26 30 28 30 32 34 34 38 36 38 40 49 48 48 38 32 32 33 36 32 32 35 39 42 44 44 43 44 46 45 41 38 40 39 40 41 41 41 42 43 43 44
23 22 29 32 38 49 40 36 28 35 43 40 44 43 38 33 32 31 33 37 34 31 33 34 38 42 45 46 47 49 45 38 36 37 38 39 39 38 39 41 40 41 43
22 20 30 33 33 28 29 30 32 33 36 37 41 35 28 31 34 31 35 37 33 31 32 34 35 38 41 43 47 49 48 38 36 36 37 38 38 37 39 38 38 40 42
23 27 31 29 31 28 29 32 34 33 30 31 31 32 30 26 32 38 33 32 33 34 34 34 36 36 37 40 44 47 45 39 35 34 35 36 35 36 36 33 37 38 42
28 28 30 32 31 30 30 32 31 34 42 34 38 40 33 37 33 31 32 31 33 36 40 37 36 37 35 37 41 44 44 39 34 34 35 37 36 36 35 33 37 40 41
28 29 31 32 34 34 34 35 33 36 35 35 44 36 37 35 36 33 32 32 34 34 37 36 38 37 36 38 40 41 44 41 35 33 33 35 35 36 34 33 36 39 40
28 30 34 35 35 36 36 37 34 35 45 40 38 40 39 34 32 36 36 36 34 35 38 40 38 35 34 33 39 42 41 42 38 34 34 34 35 35 33 33 34 37 38
29 33 36 37 37 39 39 36 39 35 36 36 36 41 36 35 36 36 36 35 36 38 38 38 39 37 37 38 41 45 45 43 41 38 37 36 37 39 35 35 35 35 36
33 35 36 38 37 34 31 35 33 34 32 33 36 37 40 38 37 36 36 36 36 38 38 38 40 41 42 42 44 47 47 48 45 43 39 37 37 37 35 34 35 36 35
35 37 35 33 35 30 32 32 36 38 37 39 39 39 38 36 36 35 35 35 35 36 38 40 43 46 47 47 48 48 50 52 48 46 41 39 37 35 34 34 35 34 34
34 32 33 33 34 32 32 36 35 37 36 37 38 36 34 33 33 35 35 35 36 38 41 43 46 48 48 50 51 53 52 53 49 48 42 39 37 36 35 34 33 31 33
34 33 33 33 34 33 32 32 33 33 34 35 33 33 33 33 33 35 37 39 41 42 44 47 50 51 49 45 47 54 54 52 48 46 43 38 35 36 35 31 30 29 31
33 33 32 32 32 31 31 30 31 33 33 33 33 33 35 37 37 39 42 45 46 47 49 50 52 52 51 47 45 48 51 49 46 44 38 38 34 34 33 30 29 28 29
30 30 30 30 30 31 30 30 30 31 32 32 32 34 36 37 40 43 47 51 54 55 54 54 53 52 50 50 44 42 42 42 42 40 35 35 32 33 32 28 28 28 29
29 29 28 28 28 31 31 29 30 32 31 32 34 36 37 41 45 49 53 56 60 59 59 58 57 50 47 49 45 41 37 37 35 33 30 32 31 31 30 25 26 26 28

GFSMA_700_spd_039.txt.gz
Wind_Speed
23 17 17 10 6 5 2 3 5 3 2 2 0 3 7 7 9 12 14 13 14 17 17 17 16 17 16 16 17 18 17 18 19 19 20 21 22 23 25 26 27 28 29
24 22 13 9 9 7 6 6 5 3 4 3 2 3 7 11 11 13 16 20 20 20 19 19 20 17 15 17 18 19 20 20 22 24 24 26 27 28 29 30 31 31 32
23 21 14 15 12 10 6 5 7 8 7 7 4 5 8 14 17 17 20 22 18 17 18 19 20 22 24 23 22 21 21 23 25 27 29 31 32 34 34 34 33 34 35
27 18 17 13 10 9 8 9 9 11 10 8 7 10 13 16 18 23 25 23 19 19 18 18 20 22 23 24 24 24 24 26 29 32 34 35 35 34 35 36 37 38 39
24 20 17 13 13 10 11 10 10 12 12 13 12 16 19 21 20 19 25 26 25 26 21 20 20 23 23 24 25 26 26 29 32 36 38 38 37 37 38 38 40 41 42
21 19 16 14 12 12 12 11 13 15 15 18 19 22 24 27 25 26 23 25 27 31 26 25 25 23 24 25 27 27 27 29 33 37 40 39 39 40 40 40 42 43 45
19 18 17 13 10 12 12 14 16 18 18 22 26 28 30 29 30 33 31 26 23 26 29 28 27 28 28 31 31 31 29 29 34 38 39 39 41 42 43 43 44 44 44
17 18 18 14 12 14 16 18 20 21 23 27 29 31 32 34 35 33 32 30 31 29 27 29 30 29 31 31 33 32 31 33 36 36 38 40 41 43 44 44 44 45 45
16 17 18 17 15 18 19 22 23 26 28 32 34 33 35 38 40 37 34 35 29 30 30 33 35 33 30 32 32 33 34 38 38 38 38 40 41 43 43 44 44 44 45
19 19 20 18 18 20 23 24 27 34 30 37 39 41 38 39 43 44 44 39 31 32 31 34 37 35 35 34 33 35 39 40 38 38 40 40 42 43 43 43 43 43 45
19 19 20 22 23 22 26 30 34 31 26 35 40 39 34 38 45 51 48 35 30 32 34 37 40 40 37 34 36 39 43 42 42 42 39 38 39 42 42 42 42 42 43
19 22 22 24 25 24 25 29 35 30 29 26 26 30 38 41 42 40 40 30 30 33 38 37 38 40 40 42 43 44 46 43 40 41 41 39 40 40 41 41 41 41 40
25 26 20 22 22 27 28 30 28 25 24 28 28 32 30 33 34 31 27 28 35 36 37 35 36 38 40 43 47 48 49 46 44 42 39 36 37 37 38 38 39 40 39
26 22 25 24 22 20 23 27 27 27 28 28 30 30 29 29 29 35 35 34 33 38 35 30 35 37 40 43 46 47 47 46 46 47 41 35 36 37 37 37 38 37 38
29 28 19 23 23 25 26 27 28 29 31 30 34 35 33 33 38 30 33 35 37 38 37 29 32 34 37 41 43 45 45 46 48 47 41 37 36 35 35 36 36 36 37
22 20 20 24 28 27 27 29 30 32 34 31 36 36 34 35 32 34 34 37 35 37 41 35 34 33 33 36 38 41 43 45 42 41 38 37 36 36 35 36 35 35 37
18 18 22 25 25 28 31 32 34 35 36 36 32 35 35 40 37 32 40 37 33 34 38 37 35 34 37 34 34 37 40 41 42 42 40 35 36 36 36 36 34 34 35
16 19 22 25 27 31 33 36 38 37 31 34 40 37 31 32 34 39 36 35 33 33 36 40 38 36 35 34 35 39 42 45 45 44 46 43 39 38 38 39 35 33 34
17 23 25 28 30 33 35 37 34 33 30 35 33 30 31 30 37 37 36 35 34 34 36 40 40 38 38 38 40 43 45 45 47 48 50 50 46 41 41 40 38 36 35
24 28 30 31 34 34 32 31 32 28 33 27 34 34 37 38 38 36 34 33 33 35 36 38 39 40 40 41 45 45 48 50 49 49 50 54 49 43 43 41 40 39 36
30 31 33 36 33 30 30 31 27 30 31 34 32 33 32 34 34 33 35 34 34 35 36 39 42 42 44 45 46 47 49 50 49 47 53 54 47 46 44 42 40 37 35
30 33 34 31 30 30 30 30 31 29 31 30 32 31 30 30 30 33 32 34 35 38 40 42 45 48 49 50 51 51 49 48 50 47 50 49 49 47 41 40 39 35 33
33 32 30 29 29 30 30 30 30 29 30 29 29 29 29 30 32 34 33 34 36 38 40 45 50 52 54 54 55 56 54 53 49 48 45 55 46 49 38 37 36 33 29
29 28 29 30 31 30 30 29 29 28 28 27 28 29 31 32 33 36 37 39 42 44 47 50 53 57 59 59 59 57 55 52 49 46 41 45 42 39 31 34 33 29 27
28 29 30 31 31 30 28 27 27 28 28 29 30 31 32 33 35 37 42 46 50 50 53 56 56 56 56 56 55 52 53 50 46 45 40 35 32 30 30 30 28 26 26
29 30 31 32 31 30 29 27 28 29 30 30 30 30 31 34 36 40 45 49 52 54 56 54 52 51 51 51 47 45 44 46 44 40 33 33 30 29 29 22 23 22 23

GFSMA_700_spd_042.txt.gz
Wind_Speed
26 21 19 18 10 6 3 5 8 8 7 3 2 2 2 3 7 10 11 14 15 14 13 13 12 12 10 12 13 12 13 13 13 14 15 17 19 21 23 24 25 25 26
27 26 22 19 10 7 5 6 7 7 4 2 4 3 3 5 7 9 12 15 15 13 14 16 15 14 14 14 14 14 14 16 17 17 19 21 24 26 28 29 28 27 28
32 28 23 17 10 10 7 8 10 8 5 5 6 7 7 11 12 12 14 15 16 15 18 19 16 17 18 17 16 15 16 17 21 23 24 25 27 30 33 32 31 31 31
32 24 23 15 12 11 9 11 10 8 8 8 9 11 11 14 16 17 19 19 18 19 22 20 20 20 21 19 19 19 19 21 24 27 28 29 31 34 35 34 35 36 36
30 34 24 17 16 12 10 11 9 10 9 9 12 14 16 19 21 22 25 24 21 21 20 19 21 22 22 22 23 24 24 25 26 29 30 32 35 38 38 37 38 39 40
33 31 22 18 13 10 11 10 11 11 9 11 14 18 21 24 28 29 30 30 29 27 24 24 23 22 23 24 25 27 28 28 29 30 32 36 40 41 41 41 42 43 44
35 26 21 18 12 11 13 12 12 12 12 15 21 24 28 30 30 31 33 35 37 34 30 27 24 23 26 27 29 29 29 30 30 30 34 40 42 42 42 43 44 45 47
29 25 23 16 15 15 14 15 14 14 17 21 27 29 31 34 34 35 34 37 39 39 36 28 27 28 28 29 31 31 32 32 31 31 36 40 42 42 43 45 46 47 48
25 24 22 21 18 18 17 16 15 18 22 25 29 31 36 38 38 38 39 37 40 44 37 26 30 30 28 30 32 33 34 33 32 35 38 39 40 43 45 46 46 47 48
21 20 23 23 20 20 18 17 18 21 20 30 32 25 35 36 37 39 35 36 40 41 34 30 34 33 34 34 34 34 35 35 37 38 38 37 40 44 44 44 44 45 44
23 22 24 25 26 24 22 22 21 21 23 27 17 19 25 28 26 30 30 29 38 32 32 30 35 36 38 40 38 35 37 39 40 39 38 38 41 43 44 43 42 42 41
25 27 27 27 29 27 25 22 22 25 23 25 23 23 25 26 32 28 31 26 30 25 26 31 35 37 40 44 42 39 40 42 43 42 40 41 41 41 41 42 41 41 41
24 25 27 29 24 25 24 23 22 24 27 26 25 27 27 32 29 34 32 34 33 30 30 33 36 39 42 41 43 43 45 46 45 45 44 44 43 42 41 41 40 40 40
25 24 29 22 23 24 20 19 21 23 26 27 28 30 32 27 37 37 33 36 36 31 32 32 34 38 38 40 42 44 45 45 46 46 46 47 44 39 36 38 37 38 38
27 28 28 25 30 28 24 22 24 27 29 30 32 32 33 31 34 32 31 39 38 40 39 34 39 36 39 41 41 43 44 45 46 46 47 47 43 37 37 36 36 38 39
31 28 22 24 22 24 18 23 28 31 33 34 35 34 35 33 36 38 39 42 39 45 46 39 35 36 37 39 39 42 43 44 46 47 47 46 43 42 39 38 39 39 39
42 14 19 21 20 25 24 28 32 34 37 35 37 35 39 40 36 33 32 35 39 40 48 41 40 37 38 39 39 39 38 41 44 46 46 45 46 44 45 42 39 42 40
40 6 12 15 17 22 25 29 33 37 35 37 44 40 40 35 42 31 37 38 40 42 43 46 43 40 38 38 39 39 40 43 46 47 50 49 45 45 48 48 45 41 40
39 12 14 15 18 23 29 33 35 36 37 38 35 34 35 36 37 33 38 42 40 40 41 43 43 41 40 37 39 40 42 44 48 48 49 54 46 51 51 52 44 43 43
17 20 21 21 24 29 31 33 33 32 33 33 31 34 36 37 40 36 36 37 40 41 39 41 42 41 41 40 42 43 46 46 48 52 51 51 53 50 48 48 48 45 44
19 22 25 27 29 31 32 31 31 31 32 34 31 34 31 39 32 37 38 38 37 35 35 37 40 42 44 45 48 49 53 52 54 54 53 51 51 48 48 45 52 51 41
24 26 27 28 30 32 32 31 31 32 30 29 30 29 34 32 38 35 33 34 35 35 37 39 42 46 49 51 53 56 58 59 61 57 56 55 53 52 47 45 47 47 38
28 27 30 32 33 31 30 29 28 27 28 28 28 33 32 33 33 32 31 32 33 35 38 42 47 50 52 54 57 58 58 60 61 59 58 56 51 51 45 43 41 43 32
27 29 30 30 29 29 27 27 28 28 29 29 30 32 32 33 33 34 33 34 34 35 40 44 47 49 52 54 55 56 57 57 56 54 52 51 45 47 41 36 34 35 31
28 30 29 28 28 28 27 27 29 29 29 30 32 32 33 33 34 35 36 38 39 41 45 47 49 50 52 53 53 56 55 54 53 50 44 41 37 41 31 30 29 27 27
30 30 29 29 29 28 28 28 29 30 30 31 32 32 33 34 35 36 38 41 43 47 50 50 50 51 52 52 53 52 53 51 50 49 40 35 30 34 41 28 30 24 22

GFSMA_700_spd_045.txt.gz
Wind_Speed
27 22 20 20 15 13 7 9 9 8 6 7 6 6 4 3 1 4 6 9 12 12 12 12 12 11 11 12 12 11 11 11 11 12 13 14 15 16 18 19 21 23 22
27 23 21 18 16 14 9 9 10 10 8 9 6 5 4 4 2 4 6 9 12 13 13 15 16 14 15 14 14 13 13 12 14 16 18 19 19 20 22 23 25 26 25
27 25 22 17 21 14 9 7 10 10 10 9 6 6 6 7 6 7 9 11 14 16 16 19 19 15 15 16 17 17 16 16 18 21 22 22 23 24 26 29 32 33 31
28 28 25 21 24 13 9 9 10 11 10 7 6 7 9 11 11 12 13 15 17 20 20 21 21 21 20 18 18 19 19 20 22 24 25 26 28 29 30 33 36 37 35
32 31 26 24 24 15 11 11 10 12 10 9 10 12 13 15 16 17 18 20 21 22 23 26 25 25 24 21 21 22 23 24 25 26 27 29 31 33 35 37 40 40 40
34 34 28 28 22 15 13 12 11 11 12 15 15 16 18 20 21 22 24 26 26 27 27 29 27 27 23 24 24 26 26 26 27 28 30 32 34 36 40 41 43 45 44
38 32 31 30 22 18 15 14 13 13 14 16 18 21 22 24 26 28 30 30 29 30 30 27 28 26 24 26 27 27 28 30 31 31 32 34 35 39 42 45 47 47 46
39 37 33 32 25 20 16 15 14 14 16 16 20 24 27 27 29 32 34 33 32 34 26 27 27 26 25 27 29 29 29 32 33 33 34 34 37 42 46 48 49 49 47
38 37 35 30 25 20 19 17 17 18 17 18 18 24 28 30 26 23 24 24 24 28 29 31 32 27 26 28 30 30 32 33 36 36 34 35 39 43 47 49 49 49 49
40 37 35 30 27 24 21 20 21 21 19 17 23 23 22 22 24 25 24 25 30 33 28 29 31 28 26 29 31 33 35 36 36 38 39 38 40 42 45 45 47 49 50
33 33 31 32 29 27 24 26 26 23 22 23 22 23 24 23 26 29 28 29 25 28 29 30 31 27 26 31 34 37 38 39 38 40 43 43 43 43 43 44 47 49 49
25 27 30 28 28 27 29 30 29 27 27 26 25 28 27 26 26 29 32 28 34 34 33 30 30 30 31 34 38 39 41 41 41 43 44 45 45 43 42 43 47 48 46
24 27 28 30 32 31 34 36 34 30 26 27 26 30 30 29 30 30 35 36 43 39 33 32 32 30 33 37 39 40 42 43 45 45 46 47 47 45 44 44 44 44 42
29 30 32 33 34 38 43 36 32 29 27 23 29 31 31 30 35 31 39 38 43 40 38 36 33 34 37 36 39 41 44 45 46 47 47 48 48 47 48 46 44 42 40
28 30 33 35 32 45 31 27 28 25 23 28 30 33 36 31 34 31 38 41 45 47 44 41 35 35 37 38 39 42 45 45 46 47 48 48 49 49 48 47 46 44 43
33 34 37 38 38 42 27 19 26 27 28 31 35 37 36 35 38 33 49 44 44 44 47 44 38 37 38 40 41 45 45 47 47 48 48 48 48 49 49 48 48 48 47
35 35 42 40 38 25 19 27 31 32 34 36 37 37 36 42 39 43 45 48 45 43 43 48 46 45 42 40 41 43 45 46 46 46 48 49 49 49 50 53 55 51 46
35 23 29 36 12 17 26 25 29 32 35 38 36 37 42 42 48 48 47 47 45 43 44 46 48 49 44 42 42 42 42 44 46 47 48 49 50 50 51 56 53 54 58
21 19 16 12 17 24 26 27 30 33 37 37 38 40 41 47 49 46 43 46 47 46 45 47 48 44 44 41 41 41 42 43 46 49 50 51 53 52 52 53 56 57 57
22 19 21 19 19 24 27 29 32 34 37 37 38 42 42 46 48 41 45 44 44 44 40 42 44 45 44 41 43 44 47 46 49 49 51 53 55 56 56 57 56 55 52
20 22 22 23 24 27 30 33 35 35 36 38 39 40 41 45 39 44 38 43 42 39 45 44 43 44 42 41 43 46 52 54 53 55 55 55 56 54 54 52 53 52 49
23 24 25 26 28 31 33 33 35 36 36 35 35 39 39 36 42 40 39 39 39 43 42 43 42 41 42 43 47 51 53 55 59 55 58 58 57 57 55 56 47 44 47
27 28 29 31 30 29 32 33 34 33 33 35 35 35 36 39 38 37 41 38 40 41 41 41 41 41 45 47 50 53 54 56 58 57 58 60 55 57 53 51 44 41 38
31 32 33 29 29 31 32 33 32 32 33 33 33 35 37 38 37 38 39 39 38 38 40 40 42 44 47 50 52 54 56 57 58 57 57 60 55 54 48 45 38 34 35
34 32 28 29 31 32 31 31 31 32 33 34 35 36 37 38 38 37 38 37 37 38 38 40 41 44 47 48 50 53 54 58 58 56 54 57 53 49 42 37 32 27 32
30 28 28 30 30 30 30 31 32 33 34 34 35 37 38 38 38 38 37 37 38 39 40 41 43 44 46 48 50 52 55 57 57 59 51 50 49 42 38 30 26 23 24

GFSMA_700_spd_048.txt.gz
Wind_Speed
26 22 20 17 12 9 5 9 10 11 9 8 10 11 10 7 5 3 4 5 5 6 7 8 10 13 14 13 12 12 13 12 11 11 11 13 14 15 15 16 17 18 19
26 24 22 19 13 10 7 8 9 9 8 8 8 8 7 5 2 1 2 4 6 7 9 10 12 13 13 14 15 15 15 14 15 15 16 17 18 18 19 18 18 21 23
24 23 22 20 15 13 10 9 10 10 9 8 7 7 7 5 4 4 5 7 10 12 13 13 15 15 15 16 18 19 18 18 17 19 21 21 21 22 22 22 24 26 28
29 25 24 19 15 16 13 11 10 10 9 9 9 9 8 8 9 9 9 12 15 17 17 18 19 20 20 20 21 21 19 20 21 22 23 25 25 25 26 27 27 29 30
30 26 21 21 20 21 15 12 9 10 11 12 13 11 11 13 12 13 15 17 19 22 22 21 22 23 24 23 22 22 21 22 23 23 25 27 29 29 31 30 30 32 35
33 26 25 23 25 21 20 14 12 13 14 15 13 13 14 16 17 18 20 21 23 26 27 25 25 24 26 25 24 24 22 24 24 25 27 30 31 32 33 33 33 36 38
34 29 28 27 26 23 18 17 17 16 17 14 14 14 16 19 23 24 23 22 22 23 26 26 30 24 26 31 26 24 24 26 26 28 31 31 33 34 35 35 37 40 43
35 35 36 29 28 27 22 19 20 16 16 16 15 17 17 19 19 22 23 20 24 21 20 21 25 29 28 35 28 25 27 27 30 32 33 32 32 34 36 39 42 45 48
41 36 26 31 34 29 25 22 21 18 18 18 17 20 21 22 23 18 19 21 23 21 23 23 25 29 30 32 28 29 29 29 31 35 37 35 34 36 38 42 45 48 52
39 36 35 39 37 32 28 24 23 23 22 21 21 20 20 22 25 26 20 21 23 26 24 22 23 30 26 27 27 27 29 32 34 36 38 38 38 39 40 43 46 49 51
33 36 35 37 37 34 31 29 28 27 27 26 25 24 27 27 27 26 26 27 27 26 28 29 35 30 30 28 29 29 32 34 38 36 36 37 41 43 42 42 45 47 48
32 33 35 35 34 35 31 32 31 33 33 32 30 30 27 29 31 32 29 28 30 32 30 36 31 29 33 34 34 32 33 37 39 38 39 39 42 44 45 46 46 47 47
25 25 30 30 31 32 34 34 34 36 37 40 35 34 31 30 32 31 35 32 35 34 37 35 36 35 36 39 38 40 41 39 38 42 43 42 43 45 46 47 48 48 47
22 25 29 30 32 35 37 39 41 43 39 43 39 40 30 30 33 34 33 38 39 37 40 37 41 36 36 43 38 40 41 42 42 43 44 45 45 47 48 48 48 48 48
26 29 31 33 36 38 41 45 48 50 47 51 35 23 31 32 34 34 38 40 37 43 42 46 43 43 38 45 38 40 42 44 43 43 45 45 47 48 49 49 49 48 47
31 33 35 37 39 44 46 47 50 47 36 22 27 31 36 34 37 39 39 39 47 40 48 53 55 48 42 41 37 42 43 44 44 45 46 46 47 48 50 51 52 51 50
37 37 37 40 47 46 48 43 43 32 19 27 34 36 37 39 41 37 39 40 50 40 51 55 54 50 48 39 37 40 43 45 44 43 44 45 47 48 49 51 53 54 55
26 41 40 49 50 41 36 46 20 24 27 33 35 37 38 40 43 36 41 40 46 47 56 56 51 50 45 42 41 41 42 43 45 43 44 44 47 51 52 52 54 56 57
17 12 22 17 22 27 22 23 29 32 32 32 35 40 42 40 36 41 44 49 52 54 56 49 50 46 45 42 43 44 44 43 43 43 44 47 51 53 52 55 56 57 59
24 25 23 25 25 21 22 26 29 33 33 36 37 38 39 41 41 45 47 52 51 51 45 49 43 50 46 44 46 46 46 45 46 46 48 49 51 50 53 53 54 54 53
25 25 23 25 25 28 28 29 31 33 34 36 39 40 41 43 44 46 48 47 49 43 49 41 48 46 45 46 46 47 49 50 51 50 49 50 50 51 51 52 53 53 53
25 24 23 24 26 27 29 32 35 36 37 39 41 42 43 43 44 41 44 44 40 49 47 43 46 45 44 45 46 47 49 52 54 51 52 51 51 53 52 54 55 56 54
26 25 27 28 29 29 32 35 37 38 40 41 40 42 42 41 42 42 42 42 47 46 41 48 46 45 45 45 46 47 48 51 51 52 54 57 52 55 56 58 56 55 49
29 31 31 32 31 33 35 36 37 37 38 39 40 40 40 42 40 43 46 45 44 45 47 45 44 44 44 45 46 48 51 51 52 54 53 58 56 60 62 56 51 48 42
34 35 35 35 35 36 35 35 36 36 38 38 39 40 41 42 43 46 45 41 46 46 45 44 43 43 46 47 48 49 49 52 55 54 51 57 58 60 57 51 46 37 34
35 36 37 38 37 35 36 37 36 36 38 38 39 40 42 45 47 45 45 47 46 43 42 43 43 45 45 45 46 47 50 52 53 57 53 57 58 57 55 46 39 29 23

GFSMA_700_spd_051.txt.gz
Wind_Speed
26 23 22 20 17 14 11 4 10 13 12 11 12 13 12 11 10 8 7 7 6 3 2 4 6 7 7 7 8 9 10 11 11 11 12 13 15 15 15 15 16 16 15
23 23 21 20 20 14 11 7 9 12 11 11 11 10 11 9 7 5 4 3 1 2 5 8 8 8 10 11 12 13 14 14 14 14 15 17 18 18 18 18 18 18 19
26 24 22 20 17 14 8 5 7 10 11 11 12 11 11 10 9 5 4 3 5 8 12 14 15 14 14 15 16 16 17 17 16 17 19 20 21 22 22 22 22 22 23
27 22 22 18 16 12 7 8 8 14 14 14 13 12 13 12 8 8 6 7 10 13 15 18 19 19 20 20 20 19 20 19 18 19 21 21 23 25 25 25 26 27 27
28 23 22 20 17 12 8 12 9 13 16 15 15 14 13 12 11 9 10 12 14 16 18 22 23 22 21 22 23 23 22 22 21 21 22 22 25 27 27 28 29 30 30
30 27 27 25 19 16 14 16 14 14 17 19 18 16 14 14 11 13 16 17 17 19 22 25 25 25 24 24 25 30 28 24 23 23 24 25 28 29 29 30 32 32 33
33 31 31 28 24 20 18 22 19 15 17 17 17 16 16 14 11 14 20 20 19 21 22 20 20 24 22 23 28 29 34 25 25 25 26 28 30 31 31 31 32 34 36
37 36 33 29 27 25 23 21 20 16 18 18 19 18 18 16 12 16 17 18 19 20 20 18 23 25 23 27 29 31 30 26 27 29 30 31 32 33 33 33 34 37 39
42 40 37 31 31 29 25 21 23 20 21 23 22 22 20 19 18 19 18 15 18 20 21 23 27 20 23 28 28 25 26 27 31 33 34 35 37 36 36 35 37 41 41
47 42 43 37 34 32 28 25 26 25 25 25 26 23 23 22 20 23 21 22 20 22 24 22 26 24 26 30 26 27 29 30 31 33 35 39 41 41 37 35 40 40 41
36 40 40 38 35 32 31 31 28 27 26 28 28 28 28 28 29 29 29 26 27 25 26 21 29 27 27 29 32 33 35 34 33 36 36 37 40 41 42 41 42 42 42
35 33 32 36 37 33 34 34 32 33 31 33 34 34 34 34 36 35 33 29 29 30 26 29 31 31 30 31 36 33 35 37 37 38 41 40 38 41 41 42 40 36 42
30 32 33 34 34 35 38 40 39 37 36 37 38 38 40 41 43 39 37 35 34 33 37 32 31 33 36 36 39 41 38 40 38 41 39 39 41 41 42 42 45 44 41
23 27 31 32 35 37 41 41 42 41 41 41 43 44 44 42 47 48 34 35 35 37 35 37 33 29 34 42 40 44 43 46 37 40 40 41 43 42 43 44 44 45 45
21 25 29 33 37 41 43 43 44 43 47 46 49 50 51 54 47 30 29 34 36 43 41 34 37 34 40 39 46 49 43 41 40 41 44 44 42 42 43 44 45 46 47
24 27 31 34 36 38 39 41 43 46 51 51 52 57 58 55 42 31 35 36 39 40 45 43 44 45 45 39 48 48 44 41 39 41 44 43 42 42 43 43 44 46 48
26 31 34 35 37 39 41 43 45 47 52 58 57 52 36 22 30 34 40 40 42 40 40 43 40 45 43 47 47 45 45 41 40 40 41 41 41 42 43 43 45 49 52
38 36 31 43 47 45 43 45 48 51 53 55 23 25 28 24 30 38 42 40 44 40 42 41 46 48 51 54 49 49 43 41 41 41 40 41 42 42 43 46 50 51 52
35 34 32 34 32 45 39 53 55 45 45 40 27 30 33 36 36 39 41 42 46 41 44 41 50 51 54 50 49 45 47 43 43 41 41 41 41 43 45 48 49 49 51
30 34 33 31 23 20 28 28 30 35 32 27 31 36 38 39 39 40 39 40 42 44 47 50 51 53 53 47 49 47 45 45 44 43 43 42 44 46 47 46 48 50 51
32 31 37 37 31 32 28 30 31 30 32 32 34 37 37 40 41 40 38 42 43 47 50 54 49 50 46 52 50 49 49 48 45 44 46 44 48 48 47 49 50 51 54
29 31 32 36 33 32 34 34 31 35 39 40 39 43 39 41 42 42 45 49 48 52 48 47 42 45 51 51 49 51 49 49 50 50 52 52 51 49 50 52 52 53 56
29 29 29 32 32 32 30 32 33 38 41 40 43 39 44 43 45 49 47 50 46 46 44 45 47 51 50 50 51 49 48 50 52 54 56 56 50 51 51 55 55 57 60
32 31 32 34 34 34 35 35 37 38 41 42 42 43 42 45 48 48 46 44 46 45 47 49 52 52 51 50 47 50 54 55 56 54 51 55 53 53 54 55 56 59 55
33 34 35 35 37 38 38 38 39 40 42 42 41 42 44 46 46 46 46 48 48 48 50 51 52 51 50 47 52 54 54 57 54 52 51 54 54 56 56 57 59 55 47
33 34 37 38 38 40 41 41 41 41 39 40 43 42 44 44 45 46 47 49 50 50 52 51 52 50 47 53 56 54 55 54 53 54 51 52 52 54 61 58 58 46 44

GFSMA_700_spd_054.txt.gz
Wind_Speed
30 27 25 24 23 21 20 17 11 11 12 13 15 15 15 14 14 12 11 9 8 6 3 0 2 4 6 7 8 9 8 9 10 10 11 11 12 12 14 16 17 18 18
29 27 25 25 24 23 20 17 8 12 13 15 15 16 17 14 12 10 8 8 6 4 2 3 5 9 10 12 13 14 14 14 14 14 13 13 14 16 17 18 19 20 19
30 29 25 25 24 23 20 16 12 13 13 14 16 16 15 14 11 8 8 7 7 5 7 8 10 12 14 18 18 18 17 18 18 17 15 16 17 18 19 21 22 22 22
33 32 29 27 24 20 18 13 11 12 14 15 15 16 15 14 11 11 9 9 8 11 11 13 16 19 20 21 21 21 20 18 19 20 19 20 20 20 21 23 24 25 25
38 29 29 27 23 20 16 12 12 12 14 15 17 17 17 15 13 11 11 11 13 15 16 17 20 23 24 24 25 26 24 25 22 23 23 24 23 24 25 26 27 28 28
34 32 31 27 24 20 14 12 12 12 14 17 19 19 18 15 14 13 12 15 17 18 18 22 22 22 20 23 23 26 29 27 26 24 25 26 26 27 28 29 30 32 32
38 34 32 29 26 22 18 15 16 14 15 16 20 20 19 20 16 14 14 14 18 22 22 22 22 22 23 25 24 24 26 25 25 23 25 28 29 31 31 30 33 34 34
38 35 33 30 29 24 24 22 19 18 16 16 18 20 21 21 19 17 17 17 19 18 20 23 22 25 25 23 18 21 24 26 27 25 24 26 32 34 33 33 34 36 37
42 37 33 32 30 27 28 25 22 19 17 16 19 21 23 22 18 19 20 21 21 16 18 20 23 23 23 25 24 27 25 24 28 30 30 33 33 34 35 34 36 39 39
46 40 37 35 32 32 32 29 28 22 21 20 21 21 22 23 22 20 26 23 25 25 21 21 23 23 22 26 30 28 28 28 30 29 31 32 37 38 38 39 40 39 38
46 45 44 42 40 38 34 31 30 26 25 23 24 23 25 28 29 30 31 34 33 31 30 25 26 26 27 27 30 28 30 33 31 34 35 34 39 41 42 43 42 42 41
49 49 46 46 42 41 42 35 35 32 30 29 29 29 30 31 33 35 37 37 44 42 40 33 31 30 30 31 29 34 32 37 39 35 39 39 41 38 41 40 41 42 40
41 48 51 48 44 45 42 40 34 37 36 37 36 35 35 36 37 38 39 42 48 52 49 41 29 34 35 32 32 32 35 38 37 41 43 41 41 40 40 40 41 43 43
31 39 40 40 38 40 41 40 41 42 42 42 41 42 42 42 43 42 46 47 52 41 52 31 33 33 35 33 43 34 38 44 40 46 42 39 44 40 42 42 43 43 44
17 20 27 33 36 37 38 38 41 43 44 44 46 46 46 47 48 50 54 56 60 46 53 35 41 36 35 40 41 39 42 41 41 49 46 40 40 41 42 45 43 43 43
14 16 18 22 26 28 31 36 40 42 44 45 46 48 49 51 53 58 62 63 62 44 43 39 37 35 36 40 43 40 38 42 52 54 45 43 41 41 42 42 42 43 44
19 21 23 26 27 30 33 37 39 40 44 44 48 49 51 54 57 65 59 50 34 30 34 42 43 37 42 37 46 44 38 48 52 53 46 43 42 43 43 43 43 44 45
26 26 29 33 35 39 40 43 42 42 47 49 48 51 55 52 51 37 23 17 21 28 39 42 41 44 45 41 47 40 53 54 54 50 45 45 43 43 42 43 45 45 47
28 29 33 35 34 34 36 44 50 58 55 48 48 48 55 52 33 24 28 33 36 37 40 41 42 41 41 41 46 50 53 56 54 50 46 43 43 43 44 45 45 46 47
33 33 35 36 37 40 39 41 38 37 42 43 48 43 41 40 37 36 39 40 37 40 40 41 43 43 46 47 51 56 55 53 51 50 47 44 44 44 44 46 44 46 49
34 35 37 39 37 43 43 43 38 29 33 37 39 41 38 37 36 38 41 39 43 42 39 40 44 44 50 54 53 49 49 51 53 50 45 45 46 48 47 52 53 49 47
32 36 40 41 41 43 46 47 46 40 42 43 40 38 35 42 43 42 43 40 42 42 41 45 51 51 49 50 48 48 51 54 52 50 48 48 48 54 55 55 49 46 46
27 29 37 40 39 40 43 44 47 47 43 47 45 45 47 47 46 44 43 42 43 45 48 51 51 48 48 47 49 51 55 53 50 48 51 59 59 58 54 51 46 46 48
32 29 31 37 37 38 38 39 42 45 44 45 44 46 48 46 43 48 44 43 46 50 51 49 47 49 47 49 52 55 53 51 51 51 57 63 57 54 52 49 47 48 49
33 30 30 35 39 39 39 41 43 44 45 46 45 45 43 42 47 49 38 44 53 51 48 48 49 50 49 51 53 54 51 52 54 58 60 57 54 53 50 48 47 50 51
33 30 30 33 38 42 42 43 45 47 48 47 46 41 42 39 41 43 48 54 50 46 48 50 51 51 53 55 54 50 50 58 60 59 57 54 49 50 50 47 48 51 53

GFSMA_700_spd_057.txt.gz
Wind_Speed
33 31 27 25 23 22 21 18 17 15 16 17 17 17 15 14 13 13 12 11 10 7 6 4 2 2 3 6 8 10 10 12 13 14 13 13 12 12 12 13 14 15 17
35 30 28 25 24 24 22 21 18 16 15 16 16 16 15 15 14 13 11 10 8 8 5 4 5 6 8 10 12 14 14 15 17 18 17 17 16 16 16 15 15 18 19
35 32 29 26 27 23 24 22 19 16 15 16 17 17 17 15 13 13 11 11 10 9 8 9 9 11 13 14 17 19 18 19 18 18 18 20 20 19 19 19 18 19 20
34 30 30 28 26 26 25 23 19 15 15 16 17 18 17 16 14 11 12 12 11 11 12 13 13 15 16 19 20 23 23 23 21 21 22 22 22 21 21 21 20 22 24
32 32 32 28 27 27 26 21 19 15 15 17 18 19 18 16 15 16 14 12 13 17 15 16 20 18 18 19 18 20 20 22 23 23 23 24 23 22 22 22 24 25 27
36 37 37 31 26 27 24 21 18 15 14 16 17 18 18 18 17 17 16 16 15 16 21 26 23 21 21 20 20 22 18 19 19 18 19 20 21 22 23 24 27 29 30
47 47 38 36 28 27 24 19 17 16 14 14 19 18 19 19 18 19 18 17 17 16 17 23 20 21 19 20 21 16 17 18 20 19 19 20 20 21 23 27 32 32 32
47 42 41 37 28 30 27 22 20 17 17 16 15 16 19 21 21 21 20 20 20 19 20 18 16 19 22 22 15 16 19 22 20 19 21 21 23 24 27 31 33 34 35
51 48 44 35 35 32 30 24 23 18 23 19 17 16 12 15 16 20 22 23 23 24 25 22 18 20 20 22 22 17 21 24 23 24 25 24 25 25 26 29 33 35 37
48 44 41 37 39 34 34 29 27 25 22 25 20 19 18 18 14 17 23 23 23 25 25 25 28 33 28 25 23 27 23 24 26 28 29 32 31 30 33 34 33 34 36
48 48 47 42 41 39 38 34 33 31 26 28 26 22 21 21 23 27 28 28 31 29 29 29 30 35 35 32 29 29 31 31 29 30 29 31 33 35 39 38 39 40 39
40 41 48 45 44 42 40 38 35 34 31 34 30 27 24 24 24 25 27 28 30 34 39 36 38 41 45 46 33 33 37 33 32 32 34 38 36 36 38 37 41 42 40
35 46 50 47 48 47 43 41 39 37 34 38 37 33 30 30 29 31 32 33 37 39 43 44 43 45 47 54 47 38 31 34 39 37 36 40 40 39 43 43 43 42 41
32 37 45 47 43 43 43 46 42 38 39 38 39 39 34 35 38 38 38 39 43 47 50 50 52 53 58 49 41 36 39 35 41 38 41 37 42 46 47 43 42 42 42
26 29 30 34 42 40 43 39 40 42 43 42 43 43 42 42 43 45 43 45 48 53 58 62 63 61 55 44 38 30 32 33 39 37 43 42 42 47 49 46 43 42 42
22 24 28 30 34 38 39 42 41 39 42 42 44 43 44 43 43 46 46 48 50 56 66 66 70 63 55 37 31 38 30 40 41 43 41 41 47 48 48 47 45 45 44
19 22 22 25 27 28 31 36 35 35 37 39 40 41 43 43 46 45 45 48 52 58 62 40 27 21 22 32 35 35 34 40 45 43 40 44 50 51 50 47 47 46 44
22 23 25 27 28 29 31 34 35 34 35 39 39 40 44 43 44 44 47 50 55 39 32 28 29 32 34 37 34 38 40 40 42 43 50 53 53 53 48 48 47 44 43
26 28 30 30 30 32 35 37 39 38 36 37 41 43 51 53 46 47 48 51 47 39 33 41 39 37 36 40 40 40 42 46 45 50 53 57 51 50 49 48 45 44 44
33 34 33 33 34 35 37 38 37 40 40 39 38 40 49 54 55 45 47 45 45 44 43 41 39 38 42 41 40 45 47 44 48 56 57 51 50 52 49 47 46 44 45
33 35 36 36 37 39 40 41 40 42 46 46 43 41 37 35 36 39 43 43 39 40 45 46 43 44 43 47 39 46 46 54 53 50 49 51 53 55 48 46 46 47 50
36 37 37 37 39 41 43 44 43 44 46 47 49 47 44 41 42 41 42 39 45 49 50 50 44 53 45 40 50 52 52 48 48 48 51 54 56 53 48 47 54 56 52
35 32 33 34 35 37 39 42 45 47 49 50 53 55 54 47 45 50 51 53 53 53 50 53 52 46 42 47 51 50 48 50 49 50 53 58 56 52 49 55 57 53 49
34 34 35 35 35 34 35 37 39 41 44 47 48 49 50 51 54 55 55 53 48 55 55 50 44 37 46 52 50 48 49 50 51 51 51 55 52 55 56 57 54 51 46
41 41 41 41 40 35 32 34 38 42 43 44 45 47 46 48 49 50 53 50 54 50 50 46 45 46 51 51 49 50 51 53 54 53 50 54 57 59 57 56 50 49 44
50 49 46 44 43 38 34 34 36 41 44 45 46 47 48 50 50 51 55 48 53 56 47 46 49 51 51 51 51 52 53 54 53 54 55 59 57 55 55 50 49 44 45

GFSMA_700_spd_060.txt.gz
Wind_Speed
22 34 32 27 24 20 20 19 18 18 18 18 16 17 16 14 15 14 13 11 11 11 10 8 6 4 1 3 5 7 8 9 11 12 14 15 14 15 14 14 13 14 13
32 33 32 27 22 22 22 20 18 16 17 17 18 19 19 14 15 15 13 12 12 11 9 6 4 3 5 6 8 11 12 13 14 15 14 14 16 16 16 16 15 16 14
30 36 32 27 25 24 23 23 20 18 18 17 18 18 16 14 16 15 14 13 11 10 8 6 6 7 9 11 12 13 15 16 18 18 17 17 17 17 17 17 18 19 17
36 36 29 28 28 26 25 25 21 20 19 17 16 16 16 16 13 14 14 13 13 12 10 10 10 11 14 14 15 14 16 17 16 17 18 19 18 18 19 20 21 20 19
42 37 31 31 30 23 27 27 23 20 18 15 16 17 17 17 14 13 15 16 14 14 14 13 14 15 16 17 15 14 15 15 12 14 13 12 14 16 18 19 20 20 21
45 37 40 35 35 33 30 27 24 21 18 16 16 18 18 18 16 16 16 16 18 20 16 16 16 17 19 18 16 15 14 10 11 13 13 13 14 14 15 18 19 21 24
47 43 38 39 38 33 29 25 24 20 18 17 18 18 19 19 18 17 17 18 19 18 21 21 15 15 15 15 12 14 11 10 12 15 15 14 18 18 19 20 21 24 27
48 51 46 39 35 32 29 25 24 21 20 17 17 18 18 20 20 18 19 19 20 22 19 22 20 16 16 15 18 16 16 17 17 17 17 18 18 17 20 22 24 24 27
53 52 46 33 36 34 35 33 25 22 20 18 16 18 18 19 16 16 16 20 21 23 22 22 22 22 23 27 22 25 23 21 20 22 22 23 23 21 20 22 22 26 29
48 47 44 37 39 43 41 34 26 27 23 20 21 20 18 17 15 20 19 19 21 21 21 22 24 24 26 29 35 33 32 32 28 26 29 28 28 29 28 27 28 27 27
42 44 45 43 43 40 43 32 32 30 28 24 20 24 23 21 22 22 22 22 24 25 26 26 27 29 30 33 35 35 37 36 39 36 32 32 33 34 34 36 34 34 37
35 44 46 48 46 46 43 37 36 34 30 29 28 27 31 28 25 27 28 28 31 30 29 30 28 31 33 38 42 42 48 49 49 43 35 34 34 35 36 35 38 38 40
32 40 49 49 48 46 42 41 39 37 36 35 35 33 33 33 29 27 29 29 31 31 33 35 35 36 39 42 46 48 50 51 51 44 35 35 36 38 37 34 37 39 43
23 29 41 45 47 43 41 41 42 41 41 41 43 36 34 36 36 36 35 33 37 37 41 40 41 43 45 49 53 56 58 51 50 46 40 35 33 38 40 40 39 41 44
26 32 34 32 40 43 40 40 45 46 45 45 44 42 38 39 37 40 42 41 41 43 44 44 47 46 49 56 57 44 45 39 41 30 27 36 35 41 38 40 44 45 47
25 31 36 37 40 43 42 46 45 46 48 47 44 43 44 42 42 43 45 46 45 46 49 45 47 51 52 31 23 25 30 40 29 32 29 35 35 40 41 41 47 48 50
20 24 26 30 33 37 40 38 41 44 48 45 44 42 41 39 42 43 43 45 46 45 49 48 45 46 40 29 28 27 27 29 31 29 30 34 41 41 36 41 49 51 51
19 19 21 24 26 28 31 32 33 34 38 40 40 42 41 39 40 40 40 46 45 42 44 46 43 42 36 38 38 35 34 32 31 32 36 38 41 41 38 44 50 50 46
22 22 24 25 24 26 28 30 32 34 36 37 38 40 38 38 41 41 43 48 52 52 47 44 48 43 43 43 41 40 36 33 35 39 39 46 38 42 45 54 48 44 46
27 27 28 28 29 29 30 32 33 34 36 37 37 38 39 38 37 38 40 40 38 45 39 44 47 45 40 41 44 47 42 40 48 42 40 46 43 54 54 46 44 47 48
33 33 33 33 33 34 34 34 36 38 39 40 40 41 43 42 41 41 46 39 36 37 44 42 41 41 42 45 50 48 50 46 46 35 44 46 54 52 49 45 46 48 47
36 37 37 37 36 38 35 35 38 41 42 43 43 43 45 45 47 48 47 49 50 41 46 48 48 48 49 53 55 56 48 46 38 42 46 48 50 48 48 51 51 51 50
40 42 44 44 44 40 38 37 37 41 44 43 44 46 47 46 47 48 50 53 56 52 48 50 53 57 69 56 49 52 56 39 44 44 48 51 49 51 53 52 50 51 53
39 39 41 44 43 39 38 37 37 41 41 42 42 43 44 44 44 47 50 52 52 51 54 51 55 56 55 53 64 50 42 42 45 46 49 53 52 54 53 53 50 53 53
42 40 41 43 44 44 43 42 43 43 42 42 40 41 42 43 42 40 42 45 48 50 51 54 52 53 60 52 49 43 45 45 46 48 51 55 53 54 54 57 56 53 51
47 46 45 46 47 49 48 47 45 43 43 42 44 43 41 42 43 44 46 48 48 51 59 64 54 57 59 45 41 41 42 46 49 52 50 52 55 56 61 58 53 48 47

GFSMA_700_spd_063.txt.gz
Wind_Speed
11 28 26 32 29 24 22 23 24 24 23 22 19 16 13 16 17 16 15 14 12 12 12 11 10 7 6 3 2 3 5 5 7 7 9 10 11 12 13 13 13 13 13
19 19 27 31 28 26 25 24 24 23 22 20 20 17 13 17 18 17 16 14 13 12 12 11 9 6 4 3 3 6 7 10 12 12 10 11 12 13 14 16 16 16 15
23 23 27 36 28 27 26 26 24 23 22 20 20 16 15 13 17 18 17 16 13 12 11 9 8 6 5 5 6 8 9 9 8 9 12 15 16 16 16 17 18 17 16
26 27 30 39 29 27 25 25 25 24 20 19 18 16 13 13 16 17 17 16 16 15 13 10 8 8 9 9 9 10 11 11 11 11 12 13 13 15 16 18 18 18 19
22 27 36 37 32 28 27 27 26 21 20 20 20 17 16 15 16 16 16 16 15 13 13 12 11 12 14 14 16 13 14 13 11 10 9 10 10 12 12 14 16 18 19
31 30 37 32 29 26 29 30 28 23 21 20 20 19 19 17 17 18 18 16 15 15 15 13 12 12 13 14 11 11 12 12 11 13 12 12 12 14 14 15 16 17 17
33 37 41 40 40 35 33 31 28 25 24 22 21 20 21 20 18 16 18 17 19 18 16 16 13 11 10 7 5 9 10 14 15 18 16 15 15 15 15 15 16 17 18
38 41 42 43 42 36 39 33 32 29 25 22 20 20 20 20 20 19 18 19 18 20 19 18 15 14 14 13 10 14 12 17 17 19 20 22 21 19 20 20 18 16 18
40 40 45 43 38 43 34 31 31 31 27 21 20 17 17 19 18 20 21 21 20 23 24 20 19 18 18 17 17 18 23 23 21 24 24 25 29 30 25 21 22 22 21
33 47 43 48 44 40 34 33 32 35 39 23 23 19 17 18 19 22 24 23 21 22 21 21 23 20 21 21 22 24 26 27 29 29 29 35 35 34 37 30 29 27 26
37 48 49 49 49 37 38 35 36 40 30 23 24 21 20 21 20 21 22 18 21 19 17 20 22 24 24 23 26 29 30 32 34 37 40 41 38 37 36 37 34 31 31
30 40 36 46 49 43 43 42 36 37 34 29 27 27 24 24 24 23 25 25 26 27 28 28 29 25 25 28 31 34 37 38 40 42 45 43 44 38 38 38 35 33 36
25 33 44 47 45 45 43 41 40 42 37 33 32 31 29 29 27 28 29 31 32 31 31 31 29 26 29 34 36 39 44 47 51 50 46 42 39 40 43 35 29 32 39
17 20 29 38 42 39 41 40 42 41 37 33 34 34 34 33 34 35 33 33 35 36 38 36 34 35 36 37 39 41 45 53 45 44 46 42 46 44 40 32 32 39 36
22 22 22 27 35 38 41 44 47 44 41 42 39 39 40 39 40 40 34 37 39 43 45 43 43 39 39 40 41 38 41 34 36 40 45 37 39 42 35 40 39 38 42
19 26 27 25 27 35 43 44 42 44 46 41 41 42 43 44 45 45 39 40 43 44 50 46 45 43 43 41 39 38 36 34 29 24 24 37 31 32 31 35 38 46 46
16 16 22 27 30 32 33 36 37 41 46 43 44 45 44 44 46 44 42 43 44 44 48 47 46 45 45 42 37 36 36 40 36 36 33 31 34 32 33 36 41 48 47
16 16 18 22 25 28 28 31 31 36 40 41 43 46 43 44 45 43 41 41 43 42 46 51 49 52 51 47 38 38 38 41 41 37 41 40 37 39 39 40 40 43 38
20 21 22 21 23 25 28 29 31 33 35 36 37 38 36 39 40 39 39 38 37 41 44 47 45 49 45 46 49 42 40 46 41 40 45 42 44 40 40 43 44 38 44
25 26 25 25 27 27 29 30 31 32 33 32 34 36 36 38 36 36 39 42 42 42 42 44 47 44 41 41 41 40 40 43 43 45 49 43 47 50 46 44 41 43 49
30 31 31 32 33 33 32 32 33 33 35 36 36 37 37 38 38 38 41 41 43 44 45 48 47 49 49 45 41 44 42 44 47 50 53 56 52 48 48 45 43 50 46
35 37 36 36 38 38 38 37 37 37 38 39 39 40 41 41 41 41 43 43 46 48 51 52 54 54 52 50 49 48 48 52 54 54 61 58 52 47 42 47 48 47 49
42 43 43 43 43 43 41 41 41 43 42 42 42 43 43 42 42 44 45 46 47 49 50 51 53 55 59 55 51 53 59 58 56 56 52 49 42 42 45 48 47 51 53
45 46 46 46 47 48 48 47 46 47 47 46 47 48 48 46 45 45 47 48 50 51 53 53 49 57 59 58 60 66 65 57 56 52 49 42 41 44 45 49 51 51 52
42 45 47 48 49 47 47 47 48 50 51 54 53 53 53 50 48 46 48 46 46 46 50 48 48 56 61 63 65 60 61 54 49 43 37 40 45 48 49 51 51 53 54
41 42 45 47 49 50 48 47 48 51 53 56 56 57 53 53 48 47 43 46 44 49 55 54 57 66 65 62 58 55 54 41 35 38 42 44 47 50 53 55 54 54 53

GFSMA_700_spd_066.txt.gz
Wind_Speed
29 27 27 29 30 28 25 25 26 26 20 18 17 18 17 20 19 18 17 16 15 14 13 13 12 11 9 7 5 3 2 3 4 6 8 10 11 12 12 12 13 13 13
32 29 31 29 28 27 26 25 25 25 24 22 19 19 19 20 20 19 18 17 15 14 13 13 11 10 8 6 4 3 5 6 8 9 12 16 15 14 13 13 15 16 15
22 20 33 38 40 32 27 28 28 27 26 24 21 17 18 18 20 19 19 17 15 14 13 12 11 9 7 7 5 5 7 7 9 12 14 15 14 15 17 18 18 17 17
26 22 28 29 32 34 32 30 30 28 27 24 19 17 16 16 20 20 20 19 17 15 14 13 11 8 7 8 8 9 10 9 12 13 11 10 12 12 13 15 17 18 18
27 26 27 28 33 33 32 30 29 28 26 23 21 17 16 17 18 19 19 18 17 16 14 13 10 9 9 10 13 15 13 12 11 9 9 12 14 13 14 14 15 17 18
30 29 28 33 37 35 32 32 30 29 26 25 22 20 19 17 16 18 17 17 16 16 15 13 11 11 11 11 11 10 7 6 6 10 12 14 15 16 17 17 17 17 17
32 29 27 36 41 42 34 34 35 32 30 27 25 23 21 20 20 19 20 18 18 18 17 16 14 13 12 10 8 5 5 5 7 9 11 15 17 18 21 22 22 22 21
28 27 31 37 43 41 36 34 33 34 28 27 26 26 25 24 23 22 24 23 22 22 20 19 17 15 15 14 14 12 13 12 12 13 15 16 18 18 21 25 26 26 25
30 29 34 43 45 40 40 35 33 33 31 33 30 28 28 21 18 23 24 23 24 23 22 22 19 19 19 19 16 14 14 16 16 17 19 20 22 23 28 29 29 31 30
34 31 38 45 46 41 40 40 38 34 32 34 33 29 29 16 21 22 23 23 24 26 23 23 23 22 20 20 18 18 18 18 21 23 25 27 28 28 31 34 34 36 36
31 32 43 46 46 47 45 43 40 38 33 32 36 39 25 20 21 19 20 21 25 26 22 22 23 21 19 20 22 20 21 21 26 29 31 33 36 37 35 35 37 38 37
28 36 44 45 42 43 45 41 46 29 28 33 38 33 22 23 19 21 21 20 23 20 21 23 25 24 26 25 24 24 26 29 31 34 36 41 42 38 33 34 35 38 38
25 32 42 44 43 43 40 48 33 31 33 40 37 35 28 27 24 23 26 26 29 28 27 29 29 28 27 27 28 30 34 36 37 37 39 41 31 38 43 41 43 41 36
18 19 22 34 44 44 46 45 36 35 37 37 36 40 34 31 29 28 30 31 30 33 34 32 30 31 31 33 32 35 40 41 41 39 39 36 34 44 48 44 43 43 44
20 18 20 26 33 36 35 38 42 43 45 43 41 36 37 38 34 35 34 35 37 39 44 39 40 38 41 40 42 41 43 43 43 41 39 33 29 31 36 39 40 41 41
19 24 26 26 27 35 41 42 41 44 46 49 45 39 41 37 39 38 39 40 42 45 47 37 39 38 38 42 41 44 46 46 45 40 40 40 38 34 32 32 37 37 37
18 18 25 30 30 28 32 39 41 40 41 41 40 39 39 40 44 45 44 44 44 45 50 47 45 43 44 42 43 46 52 49 53 49 42 40 40 37 36 34 41 38 41
14 16 18 20 26 29 31 33 35 37 39 40 39 41 38 41 42 45 47 47 48 47 51 52 48 47 47 45 47 46 46 48 49 54 43 42 45 46 46 44 42 43 47
15 17 18 18 20 24 28 30 32 34 37 38 39 40 38 44 44 46 47 47 47 47 49 52 49 46 45 44 43 40 43 44 45 42 44 46 47 47 45 51 49 49 51
22 23 23 23 25 25 27 29 32 32 33 33 36 38 40 43 42 43 44 44 44 47 46 50 51 52 53 49 49 44 43 43 42 42 41 46 46 45 52 54 56 55 55
29 29 30 31 31 32 32 33 33 34 37 38 38 38 38 39 39 41 44 44 45 47 48 50 52 53 55 56 50 44 51 53 47 48 48 49 49 51 52 58 58 60 54
30 35 36 36 37 37 36 37 38 39 41 42 41 42 42 42 43 43 46 47 48 51 51 52 53 56 57 58 55 51 51 53 53 55 49 55 54 54 61 59 63 63 59
30 33 36 41 42 42 42 42 44 47 47 47 47 48 48 47 46 47 48 50 52 54 55 54 57 58 59 59 59 58 54 56 52 61 53 54 62 61 62 60 58 54 48
37 37 37 38 40 44 47 48 50 51 52 53 53 52 53 52 52 51 53 53 55 55 55 53 54 56 61 61 62 65 62 59 65 70 59 59 58 56 54 56 49 43 47
42 41 41 43 41 42 42 46 51 52 53 54 56 57 56 55 55 55 54 54 55 56 58 60 58 63 57 60 62 66 64 63 70 64 54 56 56 48 46 45 44 49 53
44 45 46 45 49 50 46 44 41 48 52 52 52 49 51 55 55 56 57 61 56 59 62 63 59 66 61 64 67 71 78 64 60 54 49 46 44 42 42 45 49 53 55

GFSMA_700_spd_069.txt.gz
Wind_Speed
27 33 33 33 32 30 27 27 26 23 21 21 20 19 17 18 18 17 17 17 16 14 14 15 15 13 11 9 8 6 4 3 4 5 6 9 10 10 12 12 13 14 12
21 33 31 32 30 31 29 27 24 22 23 22 21 18 18 19 19 19 19 18 16 15 15 15 15 12 10 8 6 4 4 4 5 6 8 11 13 12 16 15 15 15 15
26 32 29 31 31 31 30 30 29 26 26 22 19 20 19 20 22 20 20 19 16 15 14 15 14 12 10 8 6 5 5 6 6 8 11 13 14 14 15 15 16 17 17
36 30 29 32 31 31 32 31 30 27 25 26 23 22 19 21 21 21 22 20 17 14 14 15 13 12 9 7 6 6 6 9 10 11 10 9 10 9 10 12 14 14 16
34 26 29 31 32 32 31 28 30 27 24 24 22 21 17 18 21 22 21 20 19 18 17 16 15 13 9 8 8 9 11 12 11 8 5 7 8 9 10 12 13 14 15
29 28 32 35 36 34 35 39 29 28 26 25 24 23 20 19 20 21 20 20 19 18 17 16 14 13 10 10 9 10 11 7 5 4 6 6 8 10 12 14 15 15 16
23 27 31 29 27 30 31 29 33 32 32 29 28 28 25 22 20 20 21 21 19 18 18 17 15 14 13 12 10 8 7 6 5 5 7 8 11 10 13 14 17 20 23
27 32 31 37 33 35 34 33 34 35 33 32 31 28 25 27 25 24 24 24 21 22 20 18 17 17 17 16 14 13 14 12 12 13 13 14 15 16 16 18 22 24 25
29 29 31 31 33 35 37 35 35 36 35 34 33 29 28 29 26 26 25 24 24 22 22 22 21 21 21 21 19 17 15 16 17 16 15 17 18 20 22 24 25 27 28
30 38 33 31 34 38 41 39 34 35 33 33 33 29 26 30 34 26 25 24 24 26 25 24 25 25 24 23 22 19 18 20 20 20 21 22 23 25 27 30 31 33 32
27 35 29 35 39 40 37 41 39 37 37 36 34 33 34 36 27 32 28 22 25 25 24 23 23 23 22 22 23 21 19 23 23 23 26 27 29 31 32 36 31 29 26
31 34 32 31 38 42 42 40 39 39 39 33 32 35 34 35 36 33 19 21 21 21 22 23 26 26 21 21 21 23 25 25 26 28 31 32 34 34 36 32 31 36 37
36 34 33 30 34 47 46 46 44 43 44 42 35 32 34 35 32 20 24 24 24 23 25 27 27 26 27 27 27 25 26 27 30 34 36 37 38 37 37 34 34 37 45
22 23 23 27 39 44 39 42 42 44 44 40 38 34 39 37 34 28 28 26 29 29 30 32 31 31 31 30 28 29 32 34 37 40 42 41 42 41 40 39 35 37 41
27 21 17 23 27 41 39 42 40 48 48 51 44 44 31 36 35 36 36 35 34 36 35 29 31 26 31 35 38 38 40 41 44 44 43 44 47 47 46 41 41 41 38
18 16 17 19 23 31 38 37 39 40 40 46 40 29 35 38 39 42 39 40 40 41 44 37 35 32 31 33 36 40 42 41 44 45 45 47 50 50 51 49 46 42 38
18 19 22 21 23 22 26 30 33 34 36 35 36 38 43 45 46 44 40 44 45 46 49 44 42 39 41 41 41 42 44 45 46 47 45 47 49 50 49 56 49 43 42
13 17 22 25 26 29 31 29 32 35 38 41 42 42 46 48 51 48 47 45 45 48 52 53 48 48 48 45 46 46 45 46 47 47 49 50 49 51 48 52 47 46 48
15 18 20 22 23 26 32 35 38 37 37 40 42 44 45 47 46 48 48 47 48 50 53 55 55 53 52 48 47 48 48 48 47 46 43 43 47 47 45 43 48 51 50
17 19 21 22 25 27 27 28 31 34 36 37 40 41 43 46 45 46 47 46 45 49 52 57 56 53 52 51 50 51 50 47 48 46 47 46 54 50 51 50 49 52 55
22 24 25 25 27 28 30 32 33 33 33 36 38 38 39 42 41 41 45 44 47 50 52 53 55 54 54 56 55 52 56 53 55 53 52 53 54 58 53 55 57 56 55
26 28 30 31 32 33 33 35 37 39 40 41 42 41 42 43 43 43 46 48 49 53 54 55 57 59 59 59 59 57 57 58 59 58 56 60 57 57 56 59 59 55 59
32 33 34 36 39 38 37 39 40 43 46 47 47 47 48 48 48 49 50 51 53 55 58 58 62 62 62 62 61 63 60 60 61 56 63 59 61 69 65 59 58 74 60
34 34 35 39 42 41 40 41 42 44 45 48 51 51 52 53 54 55 56 58 59 61 62 62 64 66 66 65 62 61 61 60 63 60 65 66 68 67 68 66 71 68 59
37 39 39 39 41 41 40 43 44 44 45 47 48 50 53 57 58 60 63 63 63 64 64 65 65 66 65 63 63 59 60 67 65 70 68 73 66 68 68 62 61 59 56
40 43 45 46 46 46 44 45 45 49 51 49 53 57 53 56 59 60 56 57 60 58 60 62 65 64 63 66 69 69 66 69 66 78 70 70 73 64 56 58 53 49 47

GFSMA_700_spd_072.txt.gz
Wind_Speed
18 20 18 37 32 28 25 25 23 23 22 22 20 16 16 15 17 17 15 15 14 14 14 15 16 15 14 12 11 10 8 6 4 5 5 6 7 8 9 10 10 11 11
22 22 19 32 30 27 24 27 23 22 22 20 21 17 15 19 18 17 16 16 15 14 15 15 15 14 12 11 10 8 7 5 4 4 4 6 8 9 10 11 11 12 13
26 20 27 34 34 31 30 28 27 24 21 21 20 17 21 20 18 17 16 17 16 15 15 15 14 12 11 10 9 8 6 5 5 5 6 7 7 7 7 7 8 9 10
28 24 22 37 36 33 31 29 27 24 24 22 17 23 21 19 17 18 19 18 18 16 16 16 15 14 12 11 10 9 7 8 7 7 8 5 2 4 3 3 5 6 8
30 29 27 35 33 33 31 28 26 23 23 23 24 21 18 20 18 20 20 20 19 18 17 16 17 15 14 12 11 10 11 10 10 9 7 4 3 4 4 4 5 6 8
29 31 38 34 35 34 30 29 25 23 24 24 26 26 26 21 19 20 21 22 21 19 19 19 17 16 14 14 12 12 12 11 9 8 7 6 4 6 7 8 8 7 10
35 29 34 33 33 32 30 28 25 23 27 26 27 28 26 23 22 20 23 23 22 21 21 20 19 18 16 15 14 13 11 9 9 9 8 8 8 10 11 12 13 14 16
30 38 36 36 35 35 33 35 32 33 32 27 29 28 28 26 24 21 22 24 24 24 23 22 21 20 18 17 16 15 13 13 13 13 14 14 15 14 15 16 18 21 21
17 22 27 35 37 37 35 30 29 27 24 30 33 32 32 29 25 25 25 26 26 25 25 24 23 21 20 20 20 19 17 18 18 18 18 18 17 19 19 20 22 25 26
19 22 21 30 38 40 38 32 32 32 30 31 32 34 30 28 26 24 26 30 30 28 24 24 23 23 23 22 21 22 22 21 22 22 21 21 22 22 23 25 27 29 31
26 29 26 28 27 32 31 38 38 35 32 32 33 32 31 30 28 27 33 36 31 25 26 24 25 26 25 25 25 25 26 25 24 24 25 25 26 27 29 31 31 31 31
27 25 26 32 32 29 35 36 39 41 36 34 32 32 31 31 31 35 33 37 32 26 27 30 28 27 26 26 24 25 26 26 26 27 28 29 31 32 34 35 36 36 35
31 32 23 27 28 28 35 37 35 37 42 37 34 33 33 33 33 39 28 30 32 25 31 26 27 25 24 25 24 24 26 28 31 30 30 33 35 37 39 40 40 40 40
28 29 26 28 31 27 30 40 42 42 39 42 46 43 38 36 34 38 41 21 23 25 27 28 28 29 27 27 28 28 28 30 31 32 33 35 39 43 44 44 42 42 42
18 18 26 36 24 28 25 34 40 39 38 37 37 43 44 47 36 36 41 24 29 32 34 33 33 30 31 31 28 28 32 35 37 38 39 39 40 43 44 44 44 45 47
18 20 19 19 19 20 24 28 30 33 39 39 40 42 49 42 45 37 52 31 36 39 43 39 35 33 36 36 33 34 34 33 36 38 41 42 45 46 46 46 47 49 48
8 15 15 17 17 18 20 20 34 31 35 38 38 41 43 48 46 40 32 37 39 41 46 42 41 38 42 39 39 40 40 42 44 44 45 46 47 47 48 48 51 49 48
8 10 14 13 15 21 22 23 27 32 31 33 34 36 36 34 36 35 37 37 43 45 51 52 48 48 47 44 46 47 47 48 49 47 46 45 44 44 46 49 45 45 48
9 10 12 13 14 15 18 23 29 32 32 35 38 39 39 37 39 41 42 45 49 51 53 55 54 48 49 51 51 52 50 48 48 47 47 48 48 50 51 51 50 50 55
12 12 13 14 16 19 22 24 24 26 27 29 32 35 39 40 40 42 46 48 50 52 53 56 57 55 54 54 55 53 52 49 51 51 51 50 50 48 49 51 52 54 56
16 18 19 19 20 21 23 24 27 29 30 32 32 33 36 38 39 40 45 46 49 53 54 56 60 60 59 56 56 52 56 53 56 56 56 56 53 52 52 51 54 54 55
20 20 19 20 24 26 27 29 31 33 34 37 38 39 40 41 41 41 44 46 48 52 54 56 58 61 60 59 58 60 59 59 62 58 59 59 58 58 58 58 58 57 56
24 26 28 29 31 32 34 33 34 37 38 41 42 43 43 44 45 46 46 49 50 52 54 56 61 61 62 62 62 63 65 65 65 66 65 64 64 63 62 60 62 64 63
28 29 30 31 32 35 37 40 42 43 43 46 46 45 45 46 45 46 47 53 56 57 59 61 63 65 69 70 68 68 67 68 68 69 70 66 68 68 69 68 70 67 70
30 33 35 37 38 40 41 42 43 43 45 46 48 49 49 50 50 54 55 57 55 58 64 65 66 69 76 76 72 67 65 59 62 71 70 72 76 71 74 77 75 73 71
25 27 30 33 35 38 40 42 46 49 48 48 48 50 52 55 55 51 51 53 52 59 67 60 64 69 71 74 75 63 62 66 74 80 79 81 78 73 70 71 68 63 56

GFSMA_700_spd_075.txt.gz
Wind_Speed
24 21 19 16 27 30 30 27 25 23 22 23 23 21 18 15 15 15 13 15 14 15 15 14 15 15 16 16 15 13 12 11 9 8 7 7 7 7 9 9 9 9 9
25 24 23 19 28 32 32 27 26 24 23 23 22 21 18 17 14 11 15 14 15 15 15 15 16 17 15 14 14 12 11 9 8 8 8 8 8 8 10 10 10 9 9
23 26 23 19 28 36 30 30 27 25 25 22 21 20 17 16 12 14 17 17 16 15 16 18 18 18 16 16 14 13 11 9 9 8 8 8 9 9 8 8 8 7 6
25 25 21 17 26 31 31 31 29 26 24 22 22 22 18 16 15 18 19 18 18 18 18 18 18 17 16 16 14 12 12 10 10 10 9 9 8 7 6 6 6 5 4
23 26 23 18 31 31 32 30 28 26 24 23 22 20 18 17 15 18 19 19 19 20 20 19 18 18 17 16 15 14 12 12 12 12 11 10 10 8 7 7 6 6 5
29 30 26 21 28 36 33 31 29 27 24 22 23 23 20 18 19 22 21 21 21 22 22 23 22 21 20 18 16 15 14 14 13 13 13 13 12 9 8 8 8 8 8
34 30 32 28 33 36 31 30 30 27 26 27 25 26 23 22 22 24 21 22 22 23 23 24 24 23 22 20 17 16 16 15 14 13 14 14 12 11 10 10 11 12 14
32 35 27 33 38 35 35 31 30 28 27 25 25 26 27 27 28 24 23 21 23 25 24 25 25 24 22 20 18 19 18 15 14 15 14 13 13 15 15 15 16 16 18
22 28 25 36 35 32 31 30 28 26 24 23 24 28 29 29 24 24 24 27 24 25 26 26 26 25 24 22 21 20 19 17 17 19 19 19 20 20 19 20 20 20 23
7 30 29 34 36 34 34 34 32 32 31 35 36 31 26 26 26 27 25 24 28 29 29 29 27 28 25 24 23 23 23 22 22 23 24 24 23 23 24 24 23 24 27
13 13 18 18 31 37 36 36 37 34 31 27 25 26 31 32 32 30 27 25 26 23 23 32 30 28 28 26 25 26 25 25 27 28 28 28 28 29 29 28 28 29 29
21 22 22 23 21 32 38 40 39 37 32 29 30 28 30 30 28 28 28 27 24 27 33 33 30 34 30 27 26 28 27 30 31 32 31 31 31 32 33 33 34 35 35
25 21 27 23 25 31 29 31 27 32 30 35 33 33 32 31 30 29 27 31 36 36 34 41 36 30 31 28 31 30 32 29 28 30 31 33 35 34 34 36 38 41 42
23 26 25 26 21 27 28 23 34 34 34 31 34 39 38 37 37 35 35 38 43 45 41 37 37 32 35 33 31 29 29 29 29 31 33 35 34 35 37 38 42 44 44
12 34 30 23 25 23 27 22 26 35 34 35 36 37 34 43 44 40 38 34 40 37 31 27 33 33 29 33 35 36 36 36 34 33 35 37 40 43 42 44 42 43 49
11 18 21 25 25 25 25 22 29 25 34 36 33 34 30 37 46 43 44 46 38 44 37 32 31 29 31 37 37 41 41 42 40 35 36 37 39 42 46 45 47 49 50
10 17 18 19 25 26 25 24 25 30 25 27 25 35 32 32 38 43 44 45 46 47 53 40 36 34 33 32 39 41 44 44 40 40 40 42 44 45 47 50 51 52 51
5 9 10 13 15 22 23 24 23 25 28 34 31 33 35 37 33 35 42 46 52 44 39 47 40 38 40 38 41 46 47 49 49 47 47 46 49 52 52 53 53 52 51
8 8 8 9 10 10 12 16 17 25 28 31 34 35 32 34 36 38 38 39 39 38 41 44 45 45 46 46 48 48 48 49 53 53 53 54 54 53 51 52 53 53 53
8 9 10 11 12 13 14 14 15 17 21 25 28 30 32 36 42 43 41 41 41 43 46 50 51 48 47 47 52 52 52 51 52 53 52 50 52 54 55 55 55 55 56
12 12 14 13 14 15 17 18 20 22 23 24 25 27 29 30 30 32 36 35 39 43 45 48 49 46 46 49 53 55 60 57 57 57 57 58 56 56 59 60 59 58 57
13 14 16 17 17 22 20 21 22 24 26 28 29 30 32 33 33 36 39 40 42 46 48 49 51 54 54 53 53 56 57 58 61 57 61 62 62 62 63 65 62 60 59
17 18 19 22 26 29 29 29 30 31 32 34 34 35 36 38 39 40 41 43 46 47 50 52 57 59 60 59 61 62 61 64 65 63 64 65 67 67 70 71 70 70 65
23 23 24 25 27 29 29 30 32 34 36 37 40 42 45 46 47 48 47 47 48 46 46 47 49 52 54 57 59 64 67 67 67 71 72 70 75 72 73 77 74 73 72
19 21 23 26 28 29 30 31 32 35 38 41 42 45 47 48 48 50 51 53 52 49 53 61 66 68 72 74 65 70 66 64 73 78 78 77 76 76 74 79 80 77 79
19 21 23 25 28 30 30 31 32 32 35 37 40 43 46 49 50 51 51 51 50 54 53 58 60 58 62 67 71 67 69 67 71 70 72 75 76 73 71 69 67 68 69

GFSMA_700_spd_078.txt.gz
Wind_Speed
29 33 25 25 23 26 31 35 30 28 26 25 24 22 20 19 17 18 17 17 15 14 13 14 15 15 15 15 15 15 15 15 13 11 10 9 9 9 9 10 11 11 11
25 24 23 25 21 26 31 33 30 29 26 26 24 22 20 19 18 18 18 15 16 14 15 15 16 17 17 17 17 17 16 14 13 12 11 11 10 11 11 11 13 13 13
25 26 25 24 18 24 33 33 31 29 27 27 24 21 20 18 18 18 18 18 14 16 17 18 19 18 18 18 18 17 17 14 14 13 12 12 11 12 12 13 13 13 13
26 28 30 22 25 26 33 32 32 31 29 27 25 22 20 18 19 19 19 16 15 20 19 21 21 21 19 19 18 18 16 15 14 13 13 12 12 12 12 12 10 9 9
26 27 32 31 24 23 37 35 34 32 30 28 25 24 21 19 19 20 19 16 20 21 22 23 23 23 22 21 20 19 18 16 15 14 14 14 13 13 13 12 10 8 7
26 30 30 27 23 24 35 41 32 31 30 28 26 24 23 21 21 21 18 19 20 22 24 24 24 24 24 23 22 21 19 17 16 17 16 16 16 15 15 13 11 9 8
33 23 36 28 35 23 32 36 34 33 32 29 28 26 24 23 23 22 20 18 17 24 24 25 25 25 25 25 23 23 21 19 19 18 17 18 18 16 15 14 13 12 12
19 33 36 36 32 32 28 36 32 33 34 31 29 26 27 25 24 21 23 21 25 25 24 24 24 26 26 26 25 23 22 20 19 18 18 18 18 18 18 16 16 17 16
18 31 39 33 33 33 34 36 34 35 32 29 29 27 28 29 24 25 22 24 24 23 22 25 25 26 27 27 26 25 23 22 20 19 19 20 20 20 22 21 21 20 20
11 23 34 29 36 30 37 35 34 34 32 30 30 31 26 19 20 26 24 25 28 30 31 29 28 27 30 30 29 27 24 23 23 22 23 24 25 26 26 26 25 25 26
10 14 21 24 33 38 35 37 35 36 33 31 30 29 26 24 25 21 23 24 24 23 27 28 30 31 31 30 30 29 26 25 27 26 28 29 29 31 31 30 29 30 31
14 13 25 21 30 34 35 33 34 34 32 32 29 29 32 32 32 28 25 30 26 25 27 28 25 22 31 39 39 35 31 35 30 30 30 32 34 35 35 34 33 33 35
17 16 16 16 23 28 36 37 36 37 36 34 31 32 28 29 27 30 30 26 30 27 28 30 30 33 38 35 39 35 33 34 30 27 34 36 37 37 37 36 36 38 38
19 21 28 26 19 25 26 34 36 37 35 34 36 35 37 37 36 34 34 32 32 29 30 36 42 40 37 43 37 37 38 34 35 37 42 38 36 35 36 39 40 41 42
19 24 25 23 25 25 21 29 27 29 27 30 29 34 32 35 34 39 39 41 37 40 33 33 37 32 37 40 37 36 42 48 44 41 36 40 40 40 40 40 42 45 47
12 19 28 29 26 25 25 18 28 21 23 29 31 27 33 30 31 30 40 45 43 44 44 43 41 36 33 32 43 45 42 38 39 45 44 45 46 46 46 45 46 48 51
8 9 19 29 32 22 24 22 22 22 24 26 23 24 32 28 26 31 34 42 43 41 44 48 45 38 35 35 35 37 37 42 45 45 47 47 47 54 49 49 50 51 50
6 10 11 17 20 24 27 26 26 23 25 26 30 27 24 28 24 25 33 37 41 43 47 48 52 48 42 47 45 43 45 45 46 50 49 48 49 50 53 51 52 52 55
9 11 11 13 12 12 17 23 29 28 27 26 27 30 28 30 30 29 32 34 33 36 38 39 46 47 44 38 38 44 49 48 49 51 53 53 52 53 56 58 58 60 62
12 13 14 15 17 16 16 17 17 18 19 24 27 26 26 28 31 32 37 39 41 42 44 45 43 43 42 41 46 48 49 50 50 46 48 51 53 54 55 58 60 61 60
17 17 18 19 20 21 20 20 20 21 22 22 24 26 28 29 31 30 31 30 32 34 35 38 39 37 39 39 40 41 48 46 47 48 48 50 53 56 63 61 60 60 61
16 16 18 21 22 21 22 23 25 26 26 27 28 30 32 33 35 37 39 41 41 42 43 46 48 52 52 49 49 51 54 56 56 50 54 58 61 64 65 67 67 63 61
18 18 19 19 21 22 22 23 24 25 27 29 33 34 34 34 35 37 38 38 39 40 43 44 48 49 52 52 52 50 53 51 52 55 57 60 63 64 74 80 81 74 73
18 19 20 22 23 24 23 24 24 27 31 34 35 37 38 39 41 42 43 45 45 47 48 47 50 50 53 53 53 55 54 57 63 69 68 70 72 73 75 77 76 74 74
18 19 19 20 21 22 22 22 24 29 31 34 36 38 39 41 43 44 44 45 45 48 50 51 53 58 59 60 59 56 59 57 59 60 63 67 72 71 71 73 71 73 69
16 18 19 20 21 22 24 24 24 26 28 30 32 34 35 37 39 40 41 43 46 49 52 56 56 57 60 63 64 65 65 63 64 71 64 63 66 61 59 58 61 55 53

GFSMA_700_spd_081.txt.gz
Wind_Speed
27 26 30 26 26 25 25 27 34 30 26 26 24 26 25 21 20 22 15 18 18 17 17 16 15 15 15 15 15 16 16 16 16 16 14 13 11 11 10 11 10 10 11
29 30 28 30 23 26 22 26 29 36 29 27 23 26 24 24 17 19 17 17 18 17 18 18 17 16 16 16 16 17 18 18 17 15 14 13 12 12 11 13 12 13 13
24 24 31 32 28 25 24 27 32 35 31 29 25 25 25 21 19 18 17 18 19 19 19 19 17 17 17 18 18 18 18 18 16 16 15 14 13 13 13 16 14 15 15
26 26 25 23 24 24 21 31 33 32 31 29 28 27 24 21 20 19 18 19 19 20 20 17 16 18 19 20 20 20 19 18 17 16 15 15 14 14 15 16 15 14 12
25 24 24 30 30 26 21 35 32 31 31 32 28 25 23 22 19 19 20 19 21 19 19 16 17 20 21 23 22 21 20 19 17 16 17 16 16 15 16 15 14 12 10
22 26 28 28 30 25 22 35 31 32 31 30 26 26 23 22 20 20 21 20 21 20 19 15 19 21 23 23 23 22 21 20 18 18 18 18 17 17 18 16 14 13 11
24 25 28 28 33 35 25 39 32 33 31 31 31 28 24 24 22 21 20 21 21 17 14 16 18 23 25 25 23 22 21 21 20 19 20 20 19 20 19 17 16 15 14
22 21 31 29 32 34 32 33 39 35 33 34 33 29 26 23 23 20 20 21 21 19 18 17 19 24 25 26 25 24 24 23 22 21 21 21 20 21 20 19 18 17 16
14 16 20 26 34 37 29 29 40 40 40 35 30 29 27 24 21 23 22 23 24 21 20 21 22 22 24 25 26 26 26 25 24 23 22 21 20 21 21 21 20 20 21
18 21 24 29 40 32 31 33 26 35 34 34 31 28 24 14 18 24 24 23 24 23 21 20 19 21 23 25 26 26 27 28 27 25 24 22 21 23 24 26 26 26 26
19 23 17 22 37 31 35 37 36 35 33 32 32 30 26 22 18 14 17 26 25 24 24 26 26 27 30 32 28 30 31 31 30 29 27 27 26 28 31 28 29 31 31
21 17 13 22 30 32 35 34 35 34 33 34 32 29 29 24 23 24 16 19 20 23 23 24 27 28 30 32 29 30 33 31 33 33 32 32 32 32 33 31 33 35 35
19 14 9 16 23 31 30 32 33 34 33 33 31 30 30 29 26 27 25 25 16 19 30 28 28 30 31 34 30 29 33 42 40 37 38 37 39 37 35 33 39 41 40
16 15 10 17 18 24 30 33 34 34 32 33 33 32 30 29 30 32 23 26 26 27 27 26 30 30 33 36 36 32 33 38 44 41 39 41 45 39 40 42 43 42 42
14 16 18 18 14 18 19 31 31 34 35 33 39 38 36 33 29 29 36 38 30 34 30 26 26 31 32 39 41 39 39 41 39 41 45 46 42 42 44 44 45 44 44
15 17 19 23 24 25 20 24 25 26 34 38 29 30 29 27 30 31 28 27 35 35 38 39 36 39 28 41 39 37 37 37 40 45 48 50 49 52 51 47 46 48 50
11 10 11 21 21 23 23 25 21 22 28 20 23 24 25 30 32 36 28 23 27 31 37 35 37 36 41 44 44 42 40 37 39 43 44 42 46 49 48 49 50 53 55
8 8 7 16 26 24 23 23 21 18 21 20 19 22 24 22 23 21 24 23 26 29 30 35 33 36 37 36 39 45 45 43 44 49 44 42 45 48 52 54 54 54 56
8 10 9 11 15 20 24 24 24 19 23 22 20 24 26 27 27 27 27 26 27 33 31 37 36 35 36 36 37 37 36 38 41 39 47 50 49 50 52 54 57 59 60
12 12 14 15 16 18 21 23 23 25 25 23 25 26 23 24 26 26 28 29 29 30 31 33 33 33 35 31 34 35 35 36 40 41 44 47 47 48 53 56 57 59 61
16 16 18 19 20 20 19 18 19 18 18 17 21 24 21 22 24 24 25 26 29 33 35 36 38 38 36 36 37 37 41 38 39 42 46 47 51 52 55 57 58 58 57
19 19 19 19 20 20 20 21 21 23 25 26 28 27 27 29 31 31 32 33 34 39 40 40 40 42 39 40 42 48 50 47 47 43 47 50 53 57 61 63 65 65 65
20 21 22 22 22 22 22 22 24 28 29 29 28 27 27 30 31 31 32 32 35 38 41 44 46 48 51 51 51 50 53 52 54 56 58 61 62 66 66 67 67 71 71
20 20 21 21 21 21 20 21 23 25 28 31 33 34 34 36 36 37 38 40 42 44 45 47 48 50 51 52 51 52 51 52 54 55 57 58 60 67 67 68 66 75 73
24 25 25 25 26 27 26 27 28 30 32 32 33 34 35 36 36 37 37 40 42 44 46 48 51 54 56 56 57 58 56 59 61 62 64 65 62 59 60 59 65 66 63
19 20 20 20 20 21 21 23 24 25 26 27 28 29 29 30 31 32 33 35 37 39 41 43 45 48 50 53 56 57 60 57 59 63 64 63 61 61 62 58 55 53 54

GFSMA_700_spd_084.txt.gz
Wind_Speed
18 19 22 22 24 18 20 16 26 24 30 28 26 27 26 24 31 25 15 16 16 16 17 17 15 15 15 15 15 16 16 16 16 16 16 15 14 12 11 10 10 11 10
20 21 23 23 25 23 21 19 25 26 33 35 31 28 26 27 29 24 15 15 17 18 18 17 16 17 16 16 16 16 16 16 16 16 16 15 14 12 12 12 12 13 12
21 22 22 24 21 24 25 23 21 24 37 33 30 28 30 30 26 20 16 16 17 17 18 17 17 16 17 18 17 17 17 17 17 18 17 15 14 13 14 14 14 15 14
22 24 22 21 24 25 25 21 23 26 36 35 29 29 30 25 22 21 18 18 17 17 17 18 18 19 18 18 17 18 18 19 19 18 17 16 15 15 15 15 15 16 15
24 25 23 25 23 22 25 24 24 25 35 35 32 29 26 23 23 23 19 16 17 17 17 18 17 17 19 17 17 18 19 19 19 18 17 16 16 16 15 16 16 16 14
25 26 26 25 23 28 29 20 23 32 31 29 28 26 25 25 22 21 19 15 17 17 17 17 17 17 17 15 16 18 18 19 19 18 17 17 17 16 16 17 17 16 14
24 25 26 24 23 26 29 19 31 38 33 35 35 29 26 25 24 22 19 18 20 19 18 18 18 17 17 16 17 19 19 19 19 19 18 18 18 19 19 19 17 16 16
26 24 23 22 23 27 27 25 33 34 32 30 31 32 28 26 24 20 20 19 19 18 19 19 17 16 16 16 17 19 21 21 21 21 20 20 21 21 21 20 18 17 18
18 19 19 20 23 26 26 31 27 39 29 33 34 30 28 27 22 23 21 20 20 17 18 18 16 16 15 15 17 19 21 23 23 23 23 23 23 22 21 21 19 18 20
17 18 18 17 16 30 30 36 31 37 31 35 30 29 25 21 22 20 21 21 20 21 20 19 18 17 17 16 16 18 21 23 25 25 25 25 24 23 22 22 20 21 22
22 18 20 18 24 25 30 33 35 36 43 34 32 30 27 23 21 21 17 18 21 20 20 21 21 19 18 18 18 21 19 21 25 27 27 27 26 25 25 26 26 26 30
22 22 22 20 22 24 32 35 35 30 37 31 33 31 25 25 19 17 10 15 14 15 19 21 23 24 25 24 23 23 24 25 28 31 32 28 28 29 30 30 29 31 32
20 19 21 22 18 17 31 32 37 33 29 30 32 28 28 26 24 21 18 17 18 19 16 18 24 24 25 24 28 28 29 29 30 29 35 37 35 35 37 35 36 37 39
18 18 15 10 12 21 27 24 35 35 35 31 29 28 29 26 23 25 25 26 20 23 28 29 21 20 24 27 28 29 31 33 34 34 34 37 42 41 41 44 42 39 43
17 14 13 10 10 17 25 23 30 32 31 31 29 30 29 28 28 28 28 32 33 34 30 22 28 32 26 24 27 28 32 37 37 35 35 40 44 40 41 44 43 44 45
10 11 12 14 11 10 15 23 25 28 30 33 28 29 32 35 39 37 35 30 30 32 34 31 31 26 33 28 28 32 32 31 35 36 34 36 38 41 42 44 49 48 48
8 11 12 15 18 17 14 17 26 26 23 31 36 34 39 37 35 31 23 26 29 29 26 25 28 30 35 35 34 33 36 37 36 35 38 35 34 37 41 46 48 49 48
7 7 8 9 18 19 21 21 17 20 24 33 26 20 17 19 24 24 26 20 23 23 30 28 26 30 27 26 30 34 34 37 39 38 37 38 35 36 45 48 47 44 45
8 5 6 4 15 20 17 21 21 19 18 14 18 18 15 16 23 25 26 26 23 25 25 29 27 30 29 29 30 32 31 31 29 29 30 31 32 34 35 40 47 50 52
12 9 9 10 12 21 22 20 18 17 20 21 19 14 19 19 20 18 23 23 29 24 26 28 31 26 26 24 28 29 29 29 29 30 30 29 35 37 42 44 46 48 49
15 12 11 11 13 15 18 21 20 19 23 21 22 21 20 22 21 20 22 23 23 25 26 26 27 31 33 31 32 31 29 31 28 37 40 40 41 44 47 51 49 51 54
19 17 16 15 15 15 15 15 16 17 17 22 24 20 25 24 25 25 30 30 28 30 31 33 35 37 39 41 40 42 43 43 43 45 51 50 48 51 52 55 59 54 57
20 20 20 20 20 19 19 18 19 20 21 21 24 30 31 30 29 28 31 29 31 31 33 33 38 40 44 45 47 48 48 49 51 52 52 50 53 53 56 62 58 58 59
18 19 21 22 22 23 21 22 22 23 22 23 25 26 28 28 28 32 36 37 39 39 40 41 42 44 46 48 48 50 51 52 54 56 57 57 56 57 58 62 60 61 65
25 25 21 20 20 20 20 20 22 24 26 28 30 31 33 34 35 36 38 39 41 42 43 44 44 45 46 46 48 49 51 52 53 53 53 57 57 58 59 60 61 61 59
35 32 21 22 23 23 25 26 27 28 29 29 29 30 29 29 30 30 31 32 34 35 36 37 38 39 40 42 42 43 42 41 42 42 42 42 42 44 45 44 44 44 43

GFSMA_700_spd_087.txt.gz
Wind_Speed
17 18 16 18 17 16 13 13 14 19 16 21 22 25 28 26 24 27 22 14 17 17 17 17 16 16 17 16 15 15 15 14 14 15 15 16 16 15 14 13 11 11 9
18 18 17 18 18 18 18 15 20 22 24 20 28 29 30 29 28 28 18 13 16 17 17 17 17 18 16 15 15 16 15 16 16 16 17 17 17 16 15 13 12 12 11
20 19 19 20 17 17 22 22 25 21 26 28 29 33 33 31 32 26 16 13 15 18 17 16 17 17 16 15 16 17 17 17 17 17 17 18 17 15 15 13 13 13 13
21 21 21 20 17 21 20 26 24 25 26 26 33 34 34 33 31 25 19 18 15 17 17 18 18 18 17 17 17 17 17 17 17 17 18 17 17 16 15 14 14 14 14
22 21 20 20 17 20 23 26 24 25 22 26 31 33 35 32 28 24 20 17 17 18 18 18 17 16 16 16 17 17 17 16 16 17 17 17 16 16 15 15 14 14 14
21 22 20 21 19 22 24 22 25 26 27 28 39 35 33 32 27 23 17 18 18 19 19 18 17 16 16 16 17 17 17 16 16 16 16 16 16 16 16 15 15 16 15
22 23 22 23 23 23 23 25 27 27 28 39 42 38 36 33 25 24 21 20 20 20 19 18 18 18 17 17 17 17 17 16 15 15 16 17 17 17 17 17 17 17 15
22 22 24 24 24 24 25 23 26 22 29 34 38 38 34 32 30 27 23 19 20 20 20 19 18 17 16 16 17 17 17 16 16 17 17 18 18 19 19 19 18 18 17
20 21 26 25 21 23 24 23 29 24 40 35 37 36 34 32 27 24 21 20 19 20 20 18 18 18 18 18 19 18 18 17 17 17 18 19 20 20 20 19 19 19 19
17 17 20 21 22 21 20 26 30 30 44 36 43 39 30 18 16 19 22 21 21 20 19 19 19 18 18 17 17 17 18 18 18 18 19 19 20 21 21 21 20 20 20
17 18 18 20 19 17 18 25 30 39 32 38 41 35 29 23 27 17 17 19 20 17 17 17 18 17 17 19 18 16 16 18 18 18 19 21 21 22 22 21 20 22 21
17 18 19 20 22 21 24 25 33 39 34 39 31 35 32 32 31 22 20 18 15 16 17 19 19 19 18 19 20 18 16 16 19 20 22 24 25 26 26 28 29 27 28
14 17 18 21 24 25 23 25 33 33 36 34 31 35 31 34 20 19 17 16 16 17 15 16 18 19 20 20 21 24 22 21 22 23 25 28 26 27 31 33 33 33 33
12 16 17 19 19 20 19 25 33 38 29 30 36 28 34 27 27 23 20 19 20 16 18 19 13 16 21 24 22 22 23 25 25 28 29 29 29 34 35 37 37 39 40
11 15 16 14 16 13 18 26 26 36 31 30 32 32 30 25 26 25 24 22 26 25 21 23 23 19 21 25 21 25 25 26 27 29 31 32 36 33 29 34 40 40 38
10 11 14 19 16 11 17 28 23 22 33 25 30 31 29 31 30 34 31 31 31 31 31 34 31 31 26 25 21 18 20 19 23 27 28 31 34 34 36 35 34 40 37
8 10 10 12 15 14 14 22 24 24 25 36 31 33 31 35 35 35 33 34 36 35 34 28 30 34 33 33 27 25 25 27 25 26 29 31 30 30 31 33 34 37 43
8 8 9 9 15 17 12 14 18 24 25 24 28 33 25 29 31 32 34 37 31 25 32 29 22 29 22 24 25 25 24 27 30 29 28 30 33 32 32 32 38 38 40
10 8 8 9 13 21 20 18 18 23 18 19 23 23 24 20 18 16 16 22 20 25 21 25 22 21 21 27 25 28 28 27 26 28 31 32 29 29 29 31 29 33 33
12 9 8 7 8 19 18 21 19 19 22 22 19 16 26 25 21 18 20 20 23 23 23 27 24 23 25 26 30 26 24 27 25 26 30 33 34 36 36 37 38 39 36
13 12 9 9 7 19 23 19 17 16 16 21 23 24 23 17 19 20 22 26 22 24 27 26 27 27 24 22 25 26 26 26 29 24 28 33 41 38 37 40 44 44 46
17 15 14 12 11 12 18 23 22 20 23 24 23 19 25 25 23 23 20 20 19 22 25 24 25 29 30 30 35 31 37 35 39 39 40 44 45 52 54 54 55 55 56
22 19 18 18 16 15 16 18 19 20 19 23 22 23 23 24 25 20 22 25 27 27 26 26 31 31 34 36 38 38 44 44 46 46 49 46 49 51 50 55 56 58 59
25 24 22 23 22 19 19 20 20 20 18 20 22 20 23 24 28 29 29 27 27 31 36 36 37 38 39 41 42 43 45 49 50 52 53 55 55 55 56 57 56 58 58
28 26 23 22 23 27 23 21 21 21 20 20 20 22 22 25 28 30 32 33 35 35 36 40 42 44 45 43 42 42 43 43 44 44 44 44 44 43 43 43 43 45 45
30 28 30 24 27 28 22 24 25 25 24 25 27 27 27 30 33 34 35 36 35 35 35 35 36 36 37 37 37 38 38 38 37 38 37 37 38 38 39 38 40 41 41

GFSMA_700_spd_093.txt.gz
Wind_Speed
10 12 14 18 21 20 20 20 20 18 21 23 33 31 29 27 26 24 24 23 22 21 20 16 19 18 17 16 15 14 14 13 13 12 12 12 13 13 13 12 11 9 8
9 11 13 17 19 19 19 19 19 17 15 17 29 30 28 26 27 26 25 22 24 21 23 22 22 19 17 17 16 15 14 14 13 13 12 12 13 13 13 12 11 10 9
9 11 15 17 18 19 19 20 20 19 16 16 33 32 29 26 26 25 24 21 24 24 22 23 22 19 17 17 16 14 14 14 13 13 13 13 14 13 13 12 12 10 10
11 13 15 17 18 20 20 22 23 21 21 19 17 20 27 26 26 27 27 27 23 21 21 23 22 19 18 17 15 15 15 14 13 13 14 13 14 14 14 13 12 11 11
14 15 15 17 18 20 21 23 26 26 25 25 23 22 21 23 23 31 29 26 26 21 22 22 22 21 20 17 15 14 14 14 14 14 14 15 16 16 15 14 12 12 13
18 17 17 18 19 20 21 25 27 26 28 27 23 22 24 26 27 29 33 28 27 23 24 22 22 22 20 18 15 15 15 14 15 15 16 16 17 16 15 14 13 12 12
20 19 20 21 19 20 20 25 27 29 30 29 28 28 28 30 30 38 36 29 27 25 24 23 22 22 20 18 17 17 16 16 16 17 17 17 17 16 15 14 13 12 12
22 21 22 23 21 22 22 27 29 31 31 33 32 30 33 31 35 43 37 32 28 26 26 24 23 22 21 20 18 18 18 18 18 18 18 17 17 16 15 14 14 13 13
23 21 24 25 23 22 23 28 27 29 29 32 33 34 35 38 38 39 39 35 32 27 26 24 22 23 22 20 19 19 19 19 18 18 18 17 17 17 17 15 15 15 15
23 22 25 25 24 20 24 28 28 29 29 30 33 33 34 34 44 43 41 36 29 27 26 23 22 23 22 20 20 19 18 18 19 19 19 19 19 18 18 17 17 16 16
23 23 25 25 22 21 27 28 28 28 29 29 31 33 34 39 43 56 45 37 30 28 28 25 23 23 22 21 21 20 18 18 19 19 19 20 21 20 20 19 18 17 16
24 23 25 23 22 22 27 27 26 26 26 30 30 32 40 44 46 52 41 26 24 29 25 24 23 23 23 23 22 20 20 22 22 20 21 21 22 22 21 19 19 21 22
25 24 25 22 20 21 25 29 28 28 25 25 26 34 35 43 42 36 35 30 25 27 28 25 24 23 22 24 23 22 23 23 24 24 23 24 23 24 24 28 26 24 25
26 25 22 22 21 22 25 28 29 31 31 33 31 33 31 36 46 42 39 34 33 28 23 24 26 25 26 25 23 24 24 25 27 27 27 28 28 28 28 28 27 27 27
24 24 20 20 20 25 27 29 31 32 38 33 33 32 42 39 36 33 40 33 26 36 25 24 23 23 24 24 25 26 24 28 28 28 29 31 30 30 31 31 30 31 34
23 22 20 19 19 23 26 29 30 33 33 29 36 35 44 41 32 33 38 25 22 23 24 22 25 21 18 19 18 20 22 26 27 32 33 29 31 34 35 36 36 36 36
22 20 20 17 18 25 27 27 32 32 28 31 26 32 42 34 42 32 35 26 26 29 32 27 29 21 20 24 23 20 24 26 26 25 27 34 40 40 38 34 33 32 34
20 21 21 17 18 19 21 22 24 20 18 22 25 28 38 41 38 35 33 29 31 35 32 30 31 24 26 25 26 30 29 34 36 36 31 30 24 26 32 32 33 31 34
20 22 20 14 14 16 19 19 21 21 16 25 25 28 27 36 33 35 30 34 35 35 34 26 29 30 33 33 33 35 35 38 35 37 33 30 31 30 36 33 33 33 34
21 21 17 15 14 13 12 17 15 13 22 17 23 25 33 30 38 34 36 33 31 30 31 29 26 27 31 33 34 32 29 31 34 30 28 31 33 33 30 35 35 37 36
20 20 17 17 14 11 12 16 16 14 14 18 19 21 30 33 34 35 33 29 33 34 29 23 23 24 27 22 27 26 25 24 29 29 30 30 33 36 37 36 38 35 40
17 20 19 18 15 12 11 17 21 15 16 15 11 20 29 32 25 28 31 33 26 23 25 19 18 19 19 22 27 30 31 28 30 27 31 31 34 36 41 40 41 46 47
22 22 22 21 17 13 14 12 14 15 14 13 18 18 20 22 31 34 28 26 28 21 21 22 24 25 22 21 24 25 29 31 33 38 37 37 40 38 43 47 48 51 53
26 28 27 24 20 17 16 20 22 22 20 20 19 18 22 24 26 31 28 29 20 26 26 22 23 27 30 29 26 26 30 32 33 38 38 42 42 43 49 46 48 46 44
28 27 27 26 25 22 21 22 25 27 28 25 23 23 27 28 31 28 27 30 29 30 30 29 29 28 29 30 32 33 35 37 37 38 43 45 42 41 41 40 41 41 41
27 25 27 26 26 27 23 23 25 27 29 30 31 32 34 34 33 32 29 27 27 31 31 33 32 35 33 33 36 35 33 34 35 34 33 33 34 35 37 38 39 40 41

GFSMA_700_spd_096.txt.gz
Wind_Speed
17 15 12 12 15 16 17 19 22 23 24 23 24 28 26 30 32 27 27 26 25 25 24 23 21 21 22 18 15 15 14 13 13 12 11 11 10 11 13 13 11 10 9
19 15 11 10 13 15 16 18 22 24 24 21 19 13 29 36 31 29 29 26 28 24 23 22 18 17 19 18 17 15 13 13 13 12 11 11 11 12 13 13 12 11 9
20 17 12 10 12 15 17 20 22 25 24 22 16 15 29 32 30 30 29 27 26 25 21 20 20 19 18 18 18 15 14 13 13 13 12 12 13 14 14 14 13 11 9
23 20 15 12 12 14 18 20 23 24 23 20 14 24 23 29 30 29 27 27 27 26 26 23 25 24 22 18 20 17 15 14 13 13 13 14 14 14 15 14 14 13 12
25 22 18 14 13 14 17 20 22 25 23 21 18 17 15 30 29 28 26 26 25 22 22 22 23 24 21 20 20 18 16 15 15 14 15 15 16 16 16 16 15 14 12
26 24 22 17 14 14 17 19 21 25 24 23 22 20 23 14 25 30 27 26 27 26 25 22 23 23 21 20 20 20 17 17 16 16 16 16 16 16 16 15 14 13 12
28 26 24 21 17 16 16 19 21 26 26 27 27 26 25 22 24 30 19 22 29 29 25 24 23 22 22 22 21 21 19 19 18 17 16 16 15 16 16 15 14 13 13
31 27 26 22 20 19 19 21 24 26 29 28 30 26 28 28 27 27 29 25 28 33 29 26 24 23 22 24 21 21 20 18 17 17 16 17 16 17 16 16 15 15 14
30 28 26 24 22 21 22 23 25 26 29 29 32 30 33 34 30 25 35 32 35 40 31 27 24 24 24 24 23 23 20 19 18 18 18 18 18 18 18 17 17 17 16
32 28 27 25 23 22 24 25 25 28 29 31 31 32 36 33 32 30 29 35 45 41 34 30 26 25 24 24 24 23 21 20 19 19 19 20 19 19 19 18 18 17 16
23 29 27 25 24 24 24 24 24 27 29 28 30 31 33 32 34 32 35 38 44 35 35 31 29 25 24 25 25 24 22 20 19 20 21 21 21 20 20 19 18 18 18
27 30 27 25 24 25 25 23 24 27 28 29 31 33 33 32 34 32 35 37 43 43 39 28 28 25 25 26 25 24 23 22 22 22 23 23 22 22 21 20 20 20 19
28 29 25 24 25 26 25 24 26 31 30 30 31 31 33 32 33 33 36 35 47 43 38 31 29 26 28 28 27 26 26 25 24 24 26 26 26 25 23 23 23 23 23
29 27 26 25 25 26 24 24 27 31 31 31 32 28 25 29 29 34 35 38 46 43 36 29 28 30 31 28 27 27 27 25 24 27 29 29 28 26 23 26 28 29 29
30 30 26 25 25 25 24 24 26 28 31 33 34 32 31 34 31 36 31 35 43 38 39 34 33 31 28 27 26 26 26 24 26 29 30 29 28 29 30 33 33 33 32
32 28 26 24 24 24 22 25 27 28 31 31 34 38 40 34 32 31 31 36 35 33 25 33 33 29 30 28 27 27 24 26 27 27 29 29 30 31 34 36 35 33 35
29 27 25 24 23 22 23 26 25 27 30 35 35 39 35 35 34 37 37 39 30 33 28 31 44 28 26 24 24 23 23 24 29 27 29 28 29 35 36 35 35 37 34
29 27 24 24 22 20 24 26 25 31 32 33 34 37 32 34 37 31 35 33 29 25 27 29 34 33 31 28 28 30 32 29 28 25 28 29 31 31 27 32 34 36 37
29 27 25 21 19 20 24 21 20 22 28 26 17 19 29 27 28 33 31 34 24 27 26 30 32 38 38 38 33 31 30 35 32 32 33 36 36 37 32 29 33 32 34
30 29 23 18 18 20 22 17 17 14 15 14 11 17 20 25 30 26 37 30 31 28 28 32 35 31 31 29 33 32 36 37 36 33 36 34 35 31 30 32 31 34 35
30 26 19 16 18 19 20 16 12 13 14 20 18 17 22 19 28 23 34 29 28 30 33 35 33 35 32 32 33 32 34 35 36 27 28 25 30 28 33 33 34 32 36
23 19 16 14 15 19 19 16 13 15 12 15 13 15 15 23 23 23 24 35 31 31 31 27 27 28 27 28 28 27 25 22 22 23 29 26 27 28 33 33 33 37 37
21 20 17 16 16 18 19 15 13 15 16 9 6 5 20 17 26 33 27 30 30 25 29 24 23 22 20 23 20 20 21 25 28 29 33 32 31 35 38 40 37 40 40
21 19 17 17 20 18 20 17 12 12 14 15 14 9 12 15 27 27 21 25 30 27 27 30 28 25 24 25 24 23 25 27 28 31 29 32 33 34 40 42 42 45 44
15 16 16 17 22 22 20 20 18 18 21 16 20 21 20 16 23 21 28 27 32 38 31 28 29 28 27 27 30 28 29 31 32 33 34 37 40 40 42 44 47 43 41
18 18 19 23 23 20 18 19 23 25 22 25 25 22 24 20 23 26 27 25 27 29 29 31 28 32 31 34 31 32 34 37 34 37 38 39 41 41 40 37 37 37 38

GFSMA_700_spd_099.txt.gz
Wind_Speed
23 22 21 20 19 17 17 18 19 22 21 22 21 23 22 23 25 18 35 31 29 29 28 27 26 24 21 19 19 16 16 16 15 14 12 12 12 13 14 14 14 13 12
27 25 21 20 18 17 17 18 20 23 22 22 21 22 22 24 25 30 39 31 27 28 30 28 26 23 21 21 22 18 15 16 16 14 13 13 13 14 15 15 16 15 14
31 27 22 20 18 18 19 20 21 23 24 23 22 21 21 22 25 35 37 32 29 29 27 29 26 22 18 19 21 18 18 17 16 16 15 15 15 16 16 16 17 15 13
34 30 25 22 19 19 19 21 22 22 24 23 21 22 19 17 12 32 31 33 29 28 29 24 20 21 19 18 21 19 19 18 18 17 17 16 17 17 16 18 17 16 14
37 32 28 24 22 20 18 19 21 22 23 21 21 21 17 16 17 28 32 32 31 28 28 26 25 22 23 22 23 21 19 19 19 18 18 17 17 17 17 17 17 16 15
38 35 31 27 24 22 19 18 19 20 22 22 23 20 17 16 16 28 28 32 30 28 30 28 26 23 22 21 21 22 21 20 19 19 19 18 18 18 18 18 17 16 15
37 39 34 30 27 24 21 18 20 21 24 24 25 23 23 20 18 28 28 31 29 30 28 28 25 25 22 21 22 23 22 21 19 18 18 18 18 18 18 18 18 18 16
39 41 36 32 29 26 24 21 20 22 25 27 27 26 26 28 26 20 26 33 28 26 28 28 27 25 24 22 22 23 23 21 20 19 19 19 19 20 20 19 19 17 16
36 38 38 35 32 29 26 24 21 23 25 26 25 31 29 32 28 28 27 22 24 25 25 33 31 28 26 24 24 24 24 24 22 21 21 21 20 21 21 20 19 18 17
41 43 46 37 34 31 28 25 23 24 25 29 27 31 30 29 29 28 27 29 27 30 35 35 34 32 28 27 26 25 26 26 25 24 23 23 22 22 21 20 19 19 18
41 45 55 37 32 33 28 25 24 25 27 30 30 29 28 33 30 33 31 28 26 34 33 39 45 36 30 28 28 27 26 26 26 25 23 23 23 22 21 21 20 19 19
36 40 48 40 37 32 29 25 25 25 26 29 30 30 31 29 30 31 29 29 27 33 37 43 46 36 33 28 28 28 27 28 27 25 24 23 23 23 23 23 23 23 22
27 17 22 34 31 31 27 26 25 26 27 30 30 29 28 30 29 30 30 30 30 28 32 38 36 39 41 32 31 30 30 29 28 27 27 26 26 26 26 26 26 25 25
39 34 27 26 30 28 28 25 26 24 28 32 31 31 30 31 31 32 32 29 30 34 34 39 40 46 36 33 31 32 32 31 30 29 28 27 28 28 28 27 27 28 27
37 27 32 28 32 30 26 25 25 23 25 33 32 32 32 32 30 27 27 29 27 38 33 44 47 46 35 35 33 33 31 30 32 30 29 29 31 29 29 30 31 31 29
42 32 28 31 31 29 26 25 24 23 25 27 31 34 34 35 35 32 33 30 32 36 37 36 45 39 43 36 31 31 29 31 32 30 30 30 29 30 31 31 30 33 32
39 25 30 32 30 28 25 26 23 21 23 27 31 33 34 34 34 37 36 32 33 27 32 35 42 35 43 34 33 29 31 34 32 29 28 25 28 29 29 29 32 35 36
35 32 31 32 29 27 26 24 21 21 25 31 32 32 33 37 35 41 40 33 33 29 38 34 32 30 31 32 32 34 34 31 30 29 25 31 31 32 29 30 29 28 34
34 26 29 31 30 27 22 22 22 22 27 30 32 31 34 39 40 37 37 34 29 34 33 30 28 31 37 32 34 32 30 33 33 29 31 33 34 30 31 28 34 32 34
42 32 32 31 29 23 22 22 20 22 24 20 14 22 24 20 30 28 25 31 32 37 30 29 27 31 41 40 44 38 38 36 36 34 37 36 34 39 36 37 38 36 36
38 35 32 30 28 23 21 19 19 18 17 15 17 19 21 19 21 24 24 27 38 30 34 26 30 31 34 40 43 44 45 44 42 43 41 42 40 39 36 31 35 34 34
33 32 31 28 25 21 18 18 17 17 18 18 16 17 16 21 14 23 17 26 22 37 34 29 30 37 32 33 37 32 37 39 44 40 38 33 30 29 28 29 30 35 35
31 28 29 27 26 21 17 16 16 17 19 18 13 8 8 18 16 18 18 20 26 27 25 23 29 36 33 33 31 33 31 33 34 28 22 25 24 27 28 31 28 31 34
30 27 26 26 24 18 16 15 16 15 18 16 15 9 8 6 13 15 15 31 29 26 34 25 29 29 28 25 23 26 29 23 25 26 26 28 30 33 35 35 35 34 35
27 27 25 22 19 17 16 15 16 15 18 18 16 16 13 14 8 13 24 22 24 34 39 30 29 30 27 31 28 26 24 28 27 29 32 35 34 36 36 35 35 35 37
25 25 18 18 17 15 14 14 19 20 20 18 21 17 19 21 17 18 23 27 25 26 25 33 29 36 32 32 34 28 30 34 35 39 38 38 35 33 36 40 41 41 39

GFSMA_700_spd_102.txt.gz
Wind_Speed
25 24 22 22 20 21 21 21 20 21 22 22 24 25 24 23 24 23 22 21 36 29 29 26 27 27 26 23 20 17 14 16 19 19 16 16 15 15 15 15 16 16 16
28 28 25 24 22 22 20 21 21 23 23 24 25 25 24 24 23 26 23 23 37 32 34 32 30 29 26 22 20 19 17 18 19 19 17 18 17 17 16 16 17 18 16
31 31 30 28 25 23 21 21 22 25 25 25 26 26 26 23 24 24 25 30 42 39 40 34 33 29 26 23 21 21 20 19 19 19 18 19 17 17 18 18 19 19 19
35 35 35 32 29 27 23 21 21 24 26 25 26 26 24 24 24 24 22 29 37 41 45 40 32 29 27 22 19 21 20 18 20 20 19 19 18 19 18 18 18 19 18
38 36 38 35 32 30 25 23 21 23 25 25 27 26 24 24 24 23 26 30 36 43 25 27 30 28 25 21 18 19 19 20 20 21 19 19 19 19 19 20 20 20 20
39 38 38 38 35 32 29 25 22 21 23 24 27 27 27 24 23 24 27 33 41 33 33 26 22 23 23 22 21 24 23 21 20 20 20 19 19 20 20 20 21 22 21
41 39 38 37 37 34 31 27 24 23 23 24 28 28 28 25 26 25 19 20 26 31 32 28 28 27 26 21 22 23 24 23 21 20 20 20 20 21 22 22 22 22 21
45 40 39 37 38 35 34 30 27 25 23 25 29 27 32 26 29 24 17 18 30 31 30 30 27 26 25 23 22 24 24 24 22 22 22 21 22 22 23 22 22 22 21
47 41 40 38 39 37 35 33 30 27 25 26 28 31 34 31 28 27 23 21 26 33 36 30 31 30 29 26 25 24 26 25 24 24 25 24 25 24 24 23 23 23 22
52 43 40 42 42 40 37 35 32 30 28 28 30 32 33 33 27 28 24 23 22 20 23 30 30 30 33 29 28 25 25 27 27 27 27 27 26 25 25 24 23 23 23
51 48 50 56 39 32 40 39 35 31 30 31 32 34 33 33 35 31 26 25 29 25 23 27 26 29 35 33 34 28 27 29 29 28 29 28 28 27 26 25 25 25 25
53 50 47 49 41 40 54 41 37 33 33 34 33 33 35 32 33 30 33 27 28 29 25 25 31 32 33 39 34 31 29 31 29 30 31 30 28 28 27 27 27 26 26
48 47 45 44 46 43 48 60 38 35 34 35 32 32 30 33 34 31 32 31 29 27 28 32 35 41 40 44 43 37 31 32 32 33 32 31 30 29 29 30 28 27 28
41 44 42 37 29 47 60 39 41 34 36 33 30 29 34 32 32 33 32 30 31 30 31 32 30 41 41 43 38 38 31 34 35 34 34 32 32 31 31 31 29 29 29
45 48 46 39 29 33 39 39 36 34 34 32 29 31 30 32 32 31 33 32 32 34 31 29 32 29 36 42 37 38 38 37 37 35 34 33 33 33 33 31 30 31 31
42 46 42 46 50 35 29 37 36 34 33 31 30 31 29 33 35 32 34 34 35 32 33 33 32 32 35 45 40 44 33 37 40 37 35 34 33 34 33 31 30 31 31
40 39 39 48 46 29 31 33 35 33 32 29 28 29 32 34 35 34 34 35 36 35 35 37 32 32 29 49 47 37 37 39 40 38 36 32 34 34 32 30 29 30 30
36 37 44 43 42 33 35 36 34 31 29 29 29 25 28 31 33 35 35 39 46 43 40 36 33 31 31 41 35 35 41 43 35 39 33 34 32 31 31 31 30 31 30
36 39 34 35 40 34 37 36 32 30 25 23 26 28 28 32 37 36 37 40 42 39 38 35 34 31 31 29 28 38 43 37 40 37 32 33 33 33 31 29 35 36 33
34 39 34 37 34 34 34 30 30 27 25 24 22 26 26 29 32 38 43 43 39 35 32 33 32 31 33 31 38 43 39 39 38 33 34 35 34 33 31 36 38 35 36
26 26 26 34 35 33 31 30 28 26 25 24 23 19 23 25 22 29 26 32 36 37 37 33 38 39 33 32 36 37 37 35 34 35 36 38 37 37 43 48 45 43 41
27 31 35 41 43 39 31 30 29 26 23 22 21 21 22 27 29 25 30 25 22 29 32 31 42 36 31 32 34 39 38 40 38 44 40 46 45 42 44 45 49 49 37
38 45 47 42 47 37 33 30 29 26 24 21 23 20 21 16 19 26 24 24 19 26 25 30 38 31 34 31 33 38 34 43 43 39 40 47 46 52 46 43 35 32 35
28 33 43 41 37 34 33 31 30 26 22 20 23 21 20 17 11 21 22 19 21 23 22 28 31 28 30 36 35 33 35 41 47 43 48 44 42 37 33 30 30 31 32
31 40 39 38 33 34 32 30 29 25 22 21 22 20 19 16 12 10 15 17 20 16 25 34 31 27 25 29 32 34 31 32 33 33 33 35 35 33 31 33 33 36 38
32 35 36 32 30 27 25 26 27 23 20 21 23 23 22 20 14 15 13 14 16 18 28 28 28 34 29 39 33 34 29 35 36 38 33 34 36 36 37 39 40 41 40

GFSMA_700_spd_105.txt.gz
Wind_Speed
28 27 24 22 22 20 20 19 19 19 21 21 23 24 24 24 25 27 28 28 25 28 32 30 30 35 29 27 25 22 19 16 16 18 19 18 17 16 15 15 15 15 16
31 30 28 26 24 23 21 21 19 21 20 23 24 25 25 26 27 29 27 29 27 28 29 32 32 34 31 29 26 24 20 17 17 18 19 19 18 17 16 15 16 16 17
35 34 32 30 27 28 24 22 21 22 22 23 26 27 27 27 27 27 28 30 31 28 27 31 36 43 33 31 28 25 21 18 16 17 19 19 19 17 17 16 18 18 18
39 37 37 34 32 30 28 26 24 23 22 24 25 28 27 27 28 28 28 31 32 29 30 36 31 39 34 31 28 26 23 20 19 19 19 19 19 17 18 18 19 20 20
44 42 40 39 38 36 34 29 27 25 23 24 25 27 29 28 29 30 29 31 31 25 35 40 36 35 31 32 29 25 21 22 19 19 19 19 19 19 18 19 20 21 22
46 46 44 43 41 40 38 34 30 29 26 23 25 27 28 29 32 32 31 30 29 34 32 39 44 33 34 30 28 25 22 21 19 19 20 19 19 19 19 21 21 23 22
53 48 47 46 43 41 39 38 33 33 29 26 24 26 30 29 30 33 31 27 31 34 37 33 49 41 35 36 31 24 23 23 21 21 21 20 20 20 21 22 22 23 23
57 54 49 48 42 42 40 39 36 34 33 30 25 24 28 29 31 32 33 30 27 28 28 33 31 36 33 27 32 25 23 24 26 23 23 22 22 22 23 24 24 24 24
59 62 57 54 44 44 41 40 38 37 34 33 27 26 27 30 30 31 30 31 25 17 23 39 17 32 27 26 27 27 23 23 24 24 25 24 24 24 25 25 25 25 25
51 54 54 51 50 47 43 41 41 38 37 35 32 28 27 31 31 31 27 28 26 23 23 28 30 25 23 27 26 24 22 24 23 25 26 25 26 26 26 27 26 26 26
44 39 52 56 55 50 44 42 44 39 38 38 34 30 29 30 31 34 30 29 28 28 20 17 37 27 27 29 26 27 25 24 24 26 26 28 26 28 28 27 27 28 27
46 44 46 56 55 50 47 46 54 41 37 37 35 34 32 32 32 34 33 31 29 29 25 24 20 17 28 28 31 33 30 29 26 27 28 29 28 30 31 29 29 30 29
46 47 43 50 52 50 49 51 49 37 37 39 36 35 34 33 32 32 33 33 30 32 28 28 25 22 27 28 32 29 32 35 31 29 30 31 31 32 32 30 31 32 31
46 43 38 42 46 52 49 47 45 37 40 41 37 37 36 34 34 35 34 34 33 32 28 29 27 27 28 31 33 38 34 38 37 35 33 33 32 34 33 33 33 33 32
42 40 41 43 49 51 49 49 46 42 43 51 39 38 41 35 31 31 34 33 31 36 32 27 34 28 29 31 29 34 43 39 41 38 32 34 34 34 34 34 33 33 33
39 37 36 42 47 45 44 40 48 49 40 41 47 44 40 34 30 30 32 35 35 33 38 36 30 30 29 31 30 31 33 37 36 38 38 36 36 35 36 36 34 34 34
39 35 36 36 40 45 47 44 38 42 44 43 43 40 36 32 33 30 32 31 37 37 37 36 35 32 32 34 31 29 38 39 39 36 41 38 37 37 38 36 35 32 33
37 36 35 38 38 38 46 47 47 38 43 40 37 36 34 30 28 33 36 36 33 34 37 38 33 36 32 31 30 30 43 48 45 37 37 39 38 36 37 35 33 32 32
35 32 32 35 36 39 45 49 52 30 28 34 35 36 32 32 33 30 34 33 32 37 37 39 41 39 41 36 32 32 46 41 33 36 37 36 37 36 37 32 35 35 34
38 35 35 34 32 35 37 33 35 40 34 33 35 33 29 29 30 34 34 36 32 37 43 40 45 42 42 30 34 37 43 36 37 42 38 36 36 38 36 36 39 37 34
39 49 39 37 38 41 36 38 40 35 34 35 32 27 26 26 29 32 30 31 34 39 46 50 44 45 34 33 37 34 35 38 42 43 35 37 37 37 34 38 39 36 36
18 36 38 36 36 36 37 34 28 31 34 33 31 29 28 33 29 30 29 33 35 38 37 38 38 41 36 36 36 35 33 35 47 44 35 36 36 38 38 41 37 43 41
22 29 32 37 37 40 36 42 40 33 35 33 31 33 31 28 26 27 29 35 34 34 33 31 29 38 38 38 42 33 35 36 31 30 34 40 41 39 39 43 47 43 48
26 34 42 34 37 38 40 40 38 34 35 34 32 33 29 26 25 24 28 31 26 24 30 27 21 32 30 35 39 30 32 31 34 37 38 42 40 42 49 43 51 45 48
17 17 35 42 45 46 44 40 40 38 39 36 34 33 29 29 25 22 15 18 24 25 28 18 23 22 19 32 31 31 34 35 42 39 45 46 44 40 42 48 47 46 38
8 17 23 25 25 41 42 39 39 41 37 34 34 33 31 28 25 23 21 19 19 20 19 21 19 19 31 28 25 31 36 37 34 37 41 46 43 47 44 40 40 40 37

GFSMA_700_spd_108.txt.gz
Wind_Speed
30 30 26 26 24 22 20 19 18 17 17 18 19 19 18 22 23 24 24 24 25 23 23 23 24 32 31 27 26 25 23 20 18 18 19 19 16 15 14 13 13 13 14
34 32 32 29 28 27 24 22 21 19 18 19 19 20 20 21 23 26 27 27 28 23 25 24 27 34 31 28 28 27 24 22 20 18 19 20 19 17 16 14 14 14 15
37 35 34 34 32 32 29 25 24 22 22 21 20 20 21 22 24 27 28 29 29 25 26 27 27 32 26 35 36 28 26 23 21 19 18 20 20 18 17 16 16 16 17
38 39 39 39 35 33 34 30 27 26 24 24 22 22 21 23 25 27 29 29 30 28 27 27 28 28 31 28 30 28 27 25 23 20 19 20 20 20 18 17 17 17 19
43 43 44 44 38 36 40 34 31 30 28 27 25 23 22 23 26 28 30 31 31 30 28 26 26 28 37 40 31 29 30 28 25 23 21 20 21 21 20 18 19 20 20
48 48 48 49 46 44 43 42 35 34 32 29 29 27 25 23 27 29 31 33 31 31 29 26 34 30 35 43 41 35 32 30 26 24 22 20 22 22 21 20 20 21 22
52 51 50 50 53 52 47 46 38 37 35 33 33 32 27 26 26 27 30 30 31 29 29 29 31 36 38 44 42 39 37 32 28 26 23 22 24 23 22 22 22 23 24
57 53 56 55 56 52 55 48 43 41 37 35 36 34 30 27 25 27 28 29 27 28 29 30 31 33 34 37 37 39 38 31 27 28 22 23 25 24 24 23 25 25 25
59 63 58 60 61 56 44 47 38 40 35 34 38 36 32 31 26 25 27 28 26 25 27 30 27 23 30 31 41 35 33 28 25 27 27 26 26 26 25 24 25 26 26
61 60 57 53 60 56 51 49 34 39 35 34 38 37 32 33 29 28 26 26 26 26 25 25 24 24 28 34 38 35 34 27 26 26 26 28 27 27 26 26 27 28 27
59 65 59 54 49 56 54 52 48 49 37 38 39 34 32 33 32 32 30 26 26 24 23 26 25 22 29 31 31 32 27 24 26 24 24 26 28 29 27 27 27 28 28
57 52 53 54 45 43 47 49 52 51 41 41 39 47 34 33 33 32 32 31 26 24 26 22 23 18 25 24 26 27 28 29 26 24 23 26 31 30 29 28 29 30 29
52 42 53 48 44 42 40 44 45 50 35 40 37 40 44 32 31 33 32 33 29 27 26 25 28 23 19 22 30 28 27 29 28 28 28 28 32 31 30 29 30 31 30
44 52 27 39 40 42 40 40 43 44 43 40 39 45 58 39 30 32 32 34 33 30 26 27 27 29 23 18 19 21 23 27 25 31 29 33 31 31 32 31 31 31 31
35 43 38 37 38 41 43 43 40 45 38 44 44 49 35 34 30 32 33 34 33 34 30 28 28 29 27 26 25 25 30 32 35 29 30 31 34 31 34 32 33 32 33
33 35 35 36 34 35 39 36 43 46 43 48 41 38 33 37 35 34 34 33 33 34 32 28 26 28 31 31 31 28 29 27 29 34 40 34 38 36 34 33 33 34 33
27 36 37 37 39 32 35 38 39 41 46 39 41 42 42 42 41 38 35 35 34 32 31 32 26 31 33 35 28 28 27 28 31 33 33 34 39 34 33 35 36 36 33
31 33 36 38 36 33 26 31 37 39 41 40 45 44 44 42 38 37 36 34 32 27 30 28 30 32 33 29 31 29 29 31 36 31 37 35 32 34 41 36 36 36 35
28 35 34 33 36 34 33 32 32 37 42 33 37 40 30 31 33 37 33 33 30 29 35 34 31 30 31 29 32 30 30 30 34 34 40 43 42 39 37 37 36 37 36
29 32 34 28 37 28 29 33 36 43 42 38 37 26 31 32 33 32 33 35 33 31 29 31 30 33 33 35 35 34 36 36 38 39 44 46 43 40 35 36 37 36 34
29 32 35 37 35 24 27 28 32 37 38 35 45 46 36 32 30 32 32 31 31 36 32 37 35 35 39 43 44 42 39 36 41 42 45 41 38 39 34 35 37 35 34
35 23 39 50 30 31 31 30 31 32 36 35 29 35 28 30 30 30 30 30 31 34 33 35 36 39 40 42 47 48 39 36 40 42 39 42 37 39 38 34 37 34 37
27 25 38 49 28 39 33 32 32 35 29 31 29 28 31 31 34 36 31 31 32 31 34 34 41 39 34 35 41 37 38 36 39 32 36 42 44 38 38 33 38 38 37
17 25 18 18 28 30 38 32 35 34 33 39 35 31 36 34 33 33 31 30 32 32 35 31 33 34 30 30 33 36 37 35 36 35 32 44 47 38 38 36 36 39 37
9 15 16 25 28 32 33 29 34 36 38 37 36 37 36 36 33 31 31 32 25 23 19 24 28 34 25 26 24 28 27 34 34 39 41 41 37 38 39 39 40 41 42
16 12 8 10 25 32 35 43 41 40 43 36 35 36 35 37 32 31 31 29 28 24 19 22 30 28 28 20 20 23 24 28 31 40 37 42 34 39 42 44 43 43 41

GFSMA_700_spd_114.txt.gz
Wind_Speed
35 34 34 32 30 27 27 25 24 24 22 21 19 18 18 20 19 19 19 18 19 18 19 17 16 20 19 20 21 23 31 29 32 26 25 23 21 19 17 16 13 13 13
37 37 37 36 35 32 30 29 27 26 25 23 23 22 20 20 22 21 20 19 19 19 19 20 15 20 21 21 22 21 29 27 36 29 28 25 23 21 19 17 14 14 14
39 41 41 41 38 37 33 33 32 31 29 29 26 25 25 22 22 22 22 20 20 20 20 19 20 20 20 21 21 25 31 37 43 34 29 27 24 23 21 19 17 16 16
41 40 42 41 38 38 37 35 35 36 33 32 30 27 28 27 24 23 23 22 22 22 21 21 22 21 22 21 20 25 26 32 36 34 30 28 25 24 24 23 20 18 18
40 41 41 41 39 47 43 40 39 39 38 35 33 31 31 30 29 27 26 24 22 24 22 23 22 22 23 22 19 21 20 27 37 35 31 29 27 26 25 25 22 21 20
40 41 44 42 40 41 42 44 43 42 42 40 38 36 35 33 31 30 29 28 24 22 23 24 25 24 23 24 21 21 22 21 14 36 34 31 28 27 25 25 24 23 23
42 43 44 45 46 43 44 44 45 45 46 45 44 42 42 40 37 33 31 30 29 24 22 22 23 23 23 24 21 22 23 24 26 35 42 36 30 29 27 26 27 25 24
45 47 48 47 47 48 48 48 47 46 48 47 48 47 50 46 42 35 33 31 29 28 25 22 23 23 23 25 25 23 24 24 30 27 32 37 34 31 30 26 26 26 25
44 47 47 48 50 52 54 53 52 48 46 49 50 48 62 46 40 34 32 31 29 30 28 24 23 22 24 27 27 26 26 33 35 35 42 43 37 33 31 27 27 27 27
43 46 49 50 52 53 56 56 52 52 50 52 54 56 28 30 33 35 32 31 33 33 29 25 24 22 23 26 26 25 30 30 33 36 44 43 39 34 33 30 29 28 27
40 42 45 48 51 54 56 55 55 55 52 54 55 47 50 42 47 40 31 33 35 34 31 28 26 23 24 25 27 25 22 26 31 39 52 51 42 39 35 31 30 29 28
35 40 43 46 50 54 57 54 53 52 52 52 55 59 49 41 38 39 46 38 35 35 33 32 28 26 23 26 27 29 31 27 37 42 47 53 44 42 37 33 31 30 29
29 32 39 42 45 46 48 51 56 53 53 55 55 53 47 42 40 50 45 39 34 33 34 34 31 28 24 26 27 26 27 26 28 39 37 51 44 42 36 34 33 31 31
28 29 31 38 39 40 38 43 50 53 52 55 52 66 46 41 42 43 44 38 35 37 34 31 31 31 26 26 25 28 27 17 31 33 34 38 41 37 33 32 31 32 32
28 28 30 32 36 36 37 35 38 43 45 49 54 33 35 41 45 45 43 39 39 42 37 36 33 31 27 25 25 22 22 19 26 40 43 41 43 33 30 26 26 30 32
31 30 29 28 31 33 32 35 37 41 42 44 50 42 39 41 43 42 43 46 34 38 36 36 33 29 26 26 27 25 21 18 18 27 30 30 32 30 30 29 27 29 30
32 32 30 29 29 29 30 35 39 38 40 35 31 38 39 39 41 47 42 46 37 38 35 39 33 30 27 27 28 25 23 28 22 18 20 25 25 34 26 30 33 29 31
32 31 32 31 30 28 30 29 33 40 42 36 32 34 39 38 37 35 48 50 46 32 30 34 30 29 27 25 26 25 29 27 31 22 27 33 27 27 29 30 31 31 34
32 29 32 34 34 33 34 33 36 35 38 35 36 35 37 40 39 41 43 46 41 39 37 34 30 26 27 27 29 29 33 32 27 26 28 29 29 31 29 32 33 39 37
28 27 31 33 32 37 36 34 37 40 41 33 34 34 39 40 40 46 41 45 46 39 39 39 33 31 28 27 27 31 33 32 31 31 30 30 35 31 33 40 40 38 37
24 25 24 29 26 29 32 35 36 37 38 40 30 34 34 42 31 29 28 32 39 39 45 39 42 35 30 29 31 31 31 32 34 36 32 33 35 35 35 35 41 38 39
24 24 21 22 22 26 30 22 31 22 23 26 30 33 23 27 24 27 30 35 29 43 48 46 35 35 30 29 29 31 34 36 37 34 32 34 36 41 43 33 36 39 43
18 17 18 20 22 24 26 17 24 28 27 29 26 34 38 33 31 29 33 28 19 23 26 30 31 34 30 30 30 30 33 36 36 35 35 41 40 39 38 43 37 47 47
27 27 23 16 13 20 22 20 24 21 26 22 34 34 34 38 36 34 26 30 30 21 23 30 29 31 27 28 31 31 30 35 34 40 41 42 41 40 42 40 41 43 48
25 27 28 30 25 17 10 10 15 17 18 34 39 37 38 39 35 32 29 27 31 28 28 28 28 28 30 30 30 34 37 34 41 39 39 42 44 40 47 41 44 54 51
26 26 25 25 25 27 27 21 11 7 13 19 30 33 46 30 28 28 29 25 29 33 30 34 36 33 33 31 33 32 31 31 39 40 38 38 40 37 43 45 44 44 44

GFSMA_700_spd_117.txt.gz
Wind_Speed
38 38 37 36 34 33 31 29 27 25 24 24 23 22 21 20 21 20 19 17 16 17 19 19 20 18 20 19 18 18 21 24 27 27 29 25 25 24 22 20 18 15 15
40 40 40 39 38 37 34 33 31 29 27 27 27 26 24 22 22 22 21 19 18 18 19 21 21 20 19 20 20 19 20 22 24 28 27 27 26 25 23 22 20 17 16
39 41 42 42 41 39 38 37 34 33 33 32 31 30 28 27 25 24 22 21 20 19 19 20 21 23 21 20 21 22 19 23 24 30 32 31 29 27 26 24 21 19 18
41 43 44 44 42 43 42 40 38 34 37 36 35 34 33 31 30 28 26 23 21 21 19 19 22 23 23 22 23 22 21 23 25 26 34 36 32 30 29 27 24 22 20
42 43 43 45 45 46 46 53 43 46 43 40 37 37 36 36 35 33 31 28 25 23 20 20 23 24 25 23 23 23 23 21 22 23 34 41 36 32 32 29 27 25 23
40 42 43 44 43 45 43 36 41 56 59 44 37 37 38 38 38 37 35 33 30 28 23 20 22 24 27 25 26 25 24 23 22 20 26 42 38 34 33 30 28 28 27
42 41 42 44 44 43 43 40 40 38 42 41 43 52 45 39 39 39 41 38 34 30 27 23 21 23 26 27 26 28 25 22 22 23 16 34 35 35 34 32 30 28 28
42 45 46 46 46 46 46 45 43 43 44 41 41 42 44 46 52 52 42 44 38 32 29 27 23 24 25 27 26 26 24 25 24 24 25 27 42 40 37 35 31 28 28
41 42 44 46 47 49 50 49 49 47 47 48 46 44 46 47 45 33 41 50 40 34 31 28 25 26 27 26 25 27 25 25 26 27 27 31 38 42 40 37 32 29 28
40 42 43 45 46 47 49 49 50 52 51 53 52 49 50 48 50 48 37 39 38 31 33 32 30 28 28 27 25 25 26 25 29 28 32 33 35 41 44 41 35 31 29
36 39 42 44 45 46 48 49 49 51 53 53 54 52 54 53 50 47 51 44 50 35 31 38 36 31 31 29 27 25 26 27 25 29 32 38 41 44 47 44 37 34 30
33 35 39 41 43 44 45 47 49 50 51 51 51 53 55 53 53 51 48 45 41 44 41 42 43 34 34 31 29 27 28 28 29 29 30 36 45 48 55 48 41 37 34
33 34 36 37 40 41 43 45 46 47 49 50 49 49 52 53 51 49 49 51 45 41 44 51 42 39 37 35 30 30 28 29 30 28 34 37 44 51 56 49 41 41 36
33 33 35 37 37 38 39 40 40 40 41 42 44 45 49 51 51 52 50 54 47 45 46 43 44 42 37 35 31 32 31 29 29 33 33 37 47 46 49 49 48 43 39
33 33 33 34 35 36 37 38 40 40 43 43 41 40 44 50 51 49 47 46 50 48 50 51 44 37 36 36 32 33 33 27 28 27 29 31 43 45 51 52 47 42 41
33 33 32 33 33 34 35 36 37 38 40 40 35 35 39 41 46 49 52 52 54 52 54 46 39 35 35 34 35 35 32 29 27 25 24 34 29 46 43 42 40 39 35
32 33 32 32 33 34 34 35 36 35 37 38 39 39 41 42 47 40 38 43 47 46 50 49 37 35 38 37 36 34 33 31 29 24 22 31 36 33 36 37 45 36 28
33 34 32 31 32 33 34 35 35 35 36 35 39 42 38 37 31 38 41 41 45 49 52 48 32 38 41 41 35 35 33 31 29 25 23 20 34 38 41 54 38 44 39
30 33 33 31 32 32 33 35 36 37 38 34 33 39 38 37 36 37 41 40 41 43 43 43 37 35 37 38 38 34 34 33 33 28 31 27 24 24 25 29 31 40 35
27 28 30 30 30 26 28 31 36 40 39 37 38 38 40 42 41 40 44 43 43 39 45 52 43 39 37 38 36 36 34 35 33 34 32 29 31 33 34 35 29 33 38
21 22 24 25 26 27 25 25 26 33 37 39 41 41 41 47 45 42 42 41 43 40 39 43 49 47 46 36 38 31 34 33 32 35 32 32 32 33 33 35 36 38 44
19 20 19 19 20 21 22 21 25 27 28 34 37 46 47 50 48 35 38 45 46 46 44 49 54 58 54 45 34 38 37 34 35 36 37 36 35 33 34 36 38 34 35
26 28 28 21 18 18 21 22 24 26 27 31 32 30 37 49 48 36 44 37 49 39 36 38 44 52 51 41 39 37 37 35 33 34 37 37 36 38 38 36 37 39 36
25 27 28 28 33 30 22 15 16 21 25 24 27 30 21 24 32 27 27 29 32 36 40 33 41 36 39 38 36 38 37 34 34 37 37 40 39 41 35 39 42 41 41
21 21 23 23 24 29 33 33 25 16 13 18 19 25 24 27 34 34 30 34 35 34 36 31 30 27 33 35 37 37 36 39 38 38 37 40 41 42 42 44 44 46 42
22 22 22 23 23 19 18 23 29 30 25 22 17 15 27 25 30 35 38 37 31 32 36 33 34 35 34 34 32 35 36 38 39 37 36 37 38 43 45 53 45 46 45

GFSMA_700_spd_120.txt.gz
Wind_Speed
40 39 39 38 36 34 34 33 31 30 29 27 26 26 24 22 20 19 17 16 14 14 16 18 19 19 20 20 21 19 19 21 20 19 23 24 27 24 23 21 21 20 17
42 42 43 42 41 39 37 35 34 34 33 32 30 29 28 27 25 24 21 19 16 16 16 17 20 21 21 22 22 22 20 21 20 21 18 22 29 28 25 24 22 22 19
42 43 44 46 45 43 39 39 39 38 36 35 34 33 33 32 30 28 25 23 20 19 18 17 18 21 21 24 23 23 23 23 21 23 20 20 28 32 29 27 24 24 22
37 42 45 45 45 45 43 43 43 42 41 40 37 34 36 36 35 34 31 27 25 23 22 21 20 20 22 25 25 26 25 24 24 22 20 21 29 36 32 31 28 25 25
34 37 41 41 43 44 46 45 44 45 46 51 55 47 37 36 38 36 36 33 31 28 27 26 24 23 23 25 25 26 27 27 25 24 23 25 28 30 34 34 30 28 27
39 39 41 44 48 46 44 42 45 46 48 45 59 57 53 47 43 37 37 37 33 29 29 27 27 25 24 24 26 26 26 27 26 26 25 27 23 36 41 36 33 30 29
37 38 42 43 44 47 46 45 44 40 44 37 44 47 53 42 60 48 44 37 36 37 40 34 31 30 27 25 25 25 26 27 28 28 26 26 24 34 44 39 36 33 32
39 39 40 43 46 46 47 45 45 45 45 40 38 38 44 38 42 56 53 49 48 52 47 41 36 34 31 27 26 24 24 25 27 29 27 27 26 34 42 38 36 36 34
39 40 41 41 43 47 48 48 48 47 46 43 40 41 40 41 38 44 45 39 42 43 44 42 46 36 32 30 27 24 24 25 27 28 30 28 28 25 33 39 40 40 37
35 36 39 41 41 43 45 46 47 49 49 48 48 46 47 46 47 51 49 43 39 36 35 38 34 40 33 32 30 26 27 25 27 28 31 31 30 31 31 42 46 43 40
33 34 36 38 39 39 41 43 44 45 47 48 48 49 48 49 50 51 52 48 47 43 36 37 34 43 36 37 33 32 30 28 27 28 30 33 34 35 36 39 45 45 44
34 36 35 37 38 39 40 40 41 42 44 45 46 48 50 50 52 52 52 51 49 47 40 42 36 46 44 40 36 36 34 32 30 29 30 31 35 37 40 41 45 47 49
29 31 34 36 37 38 38 39 39 40 40 41 44 45 46 46 48 49 50 52 50 46 44 43 39 44 43 48 40 40 37 35 33 31 31 33 33 33 41 47 46 46 50
31 32 31 34 36 37 37 39 39 39 38 37 38 39 39 38 42 45 47 47 50 48 47 46 41 52 53 52 45 42 41 38 36 35 33 34 37 37 40 45 53 51 52
32 31 32 35 35 36 35 37 38 38 38 38 37 39 40 38 37 39 45 47 47 50 51 50 49 49 57 53 43 44 44 39 38 38 33 35 37 42 41 47 54 53 61
34 32 31 33 35 35 34 36 36 37 37 37 36 36 37 35 35 37 41 46 50 51 55 51 45 46 50 50 43 45 44 41 42 36 35 36 38 39 41 43 53 59 63
29 29 30 31 33 33 35 35 35 37 38 37 35 34 34 33 35 33 37 42 44 47 52 51 52 46 46 50 47 43 43 44 42 37 37 37 37 36 36 39 46 43 52
27 29 29 30 32 32 33 33 33 35 37 37 35 34 33 31 33 37 39 42 46 47 48 51 47 54 43 61 49 44 42 45 42 38 37 37 37 33 31 33 38 44 47
23 25 26 27 30 30 30 30 32 34 36 39 38 37 35 32 34 35 36 39 40 38 43 42 41 42 46 41 52 40 42 42 40 38 38 38 36 30 29 33 30 32 43
19 19 21 23 25 27 27 28 29 31 35 37 39 39 35 35 38 35 40 37 38 33 39 42 40 41 42 48 50 36 43 46 44 42 38 39 35 32 25 21 41 37 38
21 21 21 20 20 21 23 24 27 30 29 28 28 33 38 39 35 39 36 38 43 40 42 41 42 44 43 36 38 36 40 43 41 40 38 38 38 35 30 28 29 26 37
20 21 23 28 29 24 20 18 21 25 26 28 27 29 37 40 41 40 44 41 49 46 42 41 43 43 42 40 45 41 41 39 41 43 37 40 36 36 32 35 39 35 36
17 17 19 22 26 29 32 29 24 19 19 25 25 28 29 32 34 36 38 48 47 49 43 35 41 44 43 42 40 40 46 44 41 40 37 40 41 41 37 36 34 34 34
17 18 19 20 20 20 23 27 31 33 30 23 15 21 25 26 32 33 27 33 37 47 44 42 47 47 46 46 50 50 49 52 49 45 41 43 45 40 38 41 38 37 37
17 19 20 20 20 20 19 19 19 23 32 34 32 26 18 17 24 28 25 29 43 52 48 50 49 47 43 45 46 42 45 49 45 43 43 43 41 44 45 41 43 39 39
20 21 21 21 21 21 21 20 20 20 19 21 28 35 30 29 24 17 24 29 29 36 35 34 38 46 53 39 41 39 46 54 41 44 44 45 41 40 43 45 45 42 43

GFSMA_700_spd_123.txt.gz
Wind_Speed
36 40 40 41 40 38 37 36 34 34 33 32 30 28 25 24 22 21 19 18 17 17 16 16 16 17 18 19 20 20 20 20 19 20 21 22 25 21 27 24 21 19 18
32 36 41 43 43 43 42 40 38 37 37 37 35 33 31 29 28 26 24 22 21 20 20 19 17 19 20 20 21 22 22 23 21 21 20 21 22 24 29 27 24 22 21
23 32 38 42 44 45 45 44 42 42 42 42 40 38 36 33 32 30 29 26 25 24 24 24 22 20 21 22 23 25 24 24 23 23 22 22 21 25 28 29 27 25 24
23 26 28 35 42 46 46 45 45 45 44 45 44 43 41 37 36 35 32 31 30 30 28 28 26 26 25 23 22 24 26 25 25 24 24 21 21 23 33 33 32 30 27
27 30 32 33 34 40 46 47 46 47 48 47 46 44 43 41 39 35 45 37 34 33 32 31 32 30 28 27 26 24 25 27 27 27 25 26 24 25 28 32 34 32 30
31 32 33 35 36 38 39 41 41 44 50 52 44 50 47 47 46 41 52 45 41 37 38 34 34 32 31 31 30 28 27 25 27 28 27 26 26 25 29 35 38 39 35
32 36 37 34 35 36 40 41 43 43 46 47 50 49 56 67 60 38 66 43 45 46 44 39 41 35 33 31 33 32 29 28 26 28 29 28 28 28 30 34 35 39 39
36 38 35 34 34 35 36 39 43 43 43 44 44 47 30 36 31 31 31 35 54 53 51 49 42 36 42 41 43 34 30 28 26 26 28 29 30 31 33 32 37 47 44
37 39 35 33 34 35 36 38 41 44 46 47 46 45 46 47 38 35 33 30 35 43 54 56 36 31 38 50 45 37 34 30 27 26 27 28 30 31 33 34 36 46 43
38 38 35 33 32 33 35 37 39 42 45 46 46 47 44 46 43 44 42 39 38 37 45 46 42 36 37 44 48 44 39 32 31 28 27 26 28 32 35 33 33 42 47
38 40 38 38 37 35 34 35 37 39 41 44 44 45 46 46 45 46 48 46 45 43 42 44 45 41 35 38 43 51 43 38 33 31 29 27 28 33 35 35 31 34 44
37 38 41 40 37 36 35 36 36 37 38 40 41 42 44 45 46 46 49 49 48 49 46 44 42 39 38 38 38 45 43 40 36 35 33 30 31 33 35 38 36 36 46
36 36 38 37 37 35 35 36 37 36 37 37 36 38 40 42 43 44 45 45 48 48 49 48 46 44 42 44 40 49 46 43 42 40 37 34 33 33 36 39 40 40 42
35 37 38 40 38 36 35 35 36 37 37 36 35 35 36 37 38 39 40 41 41 44 49 50 47 46 45 43 42 48 51 44 42 45 42 38 37 36 36 39 40 42 44
35 36 39 38 37 37 35 35 35 35 37 36 35 34 35 35 36 37 36 37 38 43 46 45 47 45 45 44 42 45 54 54 46 49 47 43 39 39 37 42 43 42 41
33 35 35 36 32 33 35 35 33 33 35 35 36 35 34 34 34 34 36 38 38 42 46 43 46 44 43 44 46 47 57 62 55 53 51 46 43 41 40 42 46 45 43
30 30 30 30 30 31 32 34 33 32 32 33 34 35 35 33 34 32 33 36 38 40 43 41 45 49 47 48 50 53 56 63 59 55 54 49 46 43 42 44 46 46 47
23 24 25 26 28 29 29 30 29 30 33 32 31 33 32 31 34 32 33 35 38 38 40 44 44 48 47 48 51 54 48 51 57 50 50 52 47 46 44 45 45 45 45
17 18 19 20 23 24 23 24 25 26 27 30 29 30 33 34 35 36 37 35 35 36 42 46 47 47 47 49 52 51 52 47 56 52 54 53 51 47 45 44 43 43 45
15 17 18 18 17 16 16 16 17 20 22 25 27 28 31 34 37 37 36 35 36 35 36 42 43 42 41 43 42 44 52 55 52 49 52 52 51 46 44 43 42 39 38
10 11 14 16 20 20 20 18 15 15 19 23 24 24 27 25 29 33 33 34 37 41 38 45 41 41 37 41 37 35 42 53 47 49 56 55 46 45 44 43 42 36 36
11 12 12 13 15 19 22 23 24 22 18 15 20 26 28 30 30 33 35 36 38 37 39 38 43 41 40 43 39 38 36 43 55 50 53 50 48 48 46 44 41 40 40
13 15 16 17 18 19 19 18 18 20 21 23 20 15 19 26 30 31 35 39 38 44 47 45 46 47 49 43 40 38 37 32 34 35 42 44 46 46 44 42 41 43 37
12 14 16 17 19 19 19 20 20 20 18 19 22 23 21 21 16 26 30 34 39 40 41 43 49 47 50 42 50 42 35 38 44 50 39 45 40 46 51 43 42 42 41
14 15 17 18 19 19 19 19 19 19 19 20 18 17 21 27 24 22 13 20 26 28 35 41 45 48 47 46 49 41 36 38 40 41 41 45 43 42 46 43 44 43 44
18 21 22 23 23 23 22 21 20 20 20 19 19 20 20 19 18 25 25 24 16 15 26 29 36 37 37 39 41 40 44 47 44 43 46 49 48 46 50 47 44 44 43

GFSMA_700_spd_126.txt.gz
Wind_Speed
23 25 29 37 41 40 40 40 38 37 34 33 33 31 30 27 27 26 25 23 22 21 21 19 19 18 19 20 20 19 20 21 20 19 19 20 21 21 25 22 24 22 20
23 25 27 31 37 42 42 41 42 41 39 38 38 35 34 32 31 30 30 29 27 25 24 23 23 21 21 22 22 22 22 23 22 21 20 21 21 23 25 24 27 26 24
22 22 23 26 35 39 42 44 44 42 42 43 42 40 40 38 35 35 34 33 31 30 29 28 27 26 25 24 24 24 24 25 25 23 22 23 21 23 25 23 32 29 27
22 20 19 21 22 26 37 40 43 44 45 46 46 45 44 43 40 39 38 37 37 34 33 32 31 30 30 29 27 26 27 27 27 25 25 24 24 23 23 23 29 29 28
22 20 19 20 22 26 29 33 40 43 46 46 50 49 48 48 46 45 43 40 39 40 36 36 35 35 33 33 31 29 29 27 28 28 27 26 25 27 25 24 27 33 30
25 24 23 23 25 26 29 34 38 38 40 47 50 52 59 53 50 46 42 44 43 45 43 38 41 38 38 35 34 33 31 30 29 29 29 28 27 27 27 25 26 30 36
29 26 25 27 29 31 30 31 37 40 40 40 44 50 53 47 49 51 41 33 55 50 47 47 55 52 38 38 33 38 36 34 32 31 29 29 29 28 29 29 28 31 36
31 29 29 28 30 34 32 31 34 37 40 40 44 43 47 48 47 38 39 37 29 29 40 61 57 54 47 43 39 41 39 38 32 31 32 31 30 30 31 32 30 31 36
34 32 31 30 31 33 31 31 33 36 38 39 41 44 47 49 47 47 42 39 36 35 33 37 50 56 54 42 45 42 46 42 33 34 35 34 32 33 33 34 34 33 36
34 32 29 31 34 35 35 34 35 35 38 37 38 43 44 44 44 47 47 43 41 40 38 35 39 41 51 58 51 42 41 47 43 40 37 37 37 37 34 34 35 34 36
35 33 31 37 39 41 35 36 39 38 38 38 37 38 42 41 42 43 43 42 39 44 41 40 40 39 45 47 50 51 45 44 47 48 40 41 39 39 37 35 35 36 35
37 32 36 39 41 40 38 37 39 40 39 39 37 37 38 40 42 42 41 43 43 42 41 40 42 45 45 47 47 47 44 46 49 53 49 44 43 41 39 37 35 36 36
29 36 37 43 41 41 39 37 37 39 38 39 37 36 37 38 39 41 44 41 40 39 43 44 44 44 45 46 48 49 48 45 45 53 58 49 46 44 40 38 39 37 37
35 36 42 39 40 39 41 41 39 39 39 38 37 36 36 36 37 39 40 40 38 41 41 41 43 45 43 47 50 50 48 48 46 49 56 52 48 47 44 41 39 39 38
28 35 34 33 35 36 38 39 39 39 39 38 37 36 36 35 35 38 39 38 36 37 42 39 40 39 38 42 46 47 46 47 49 49 56 53 50 50 48 45 43 41 39
26 27 28 30 31 32 34 34 35 37 36 36 36 36 35 35 36 36 37 38 38 38 41 40 42 42 36 40 41 44 45 47 49 54 54 58 52 48 48 49 46 45 42
22 24 27 26 25 27 29 30 30 32 33 34 34 35 35 34 35 35 36 37 39 38 40 38 40 39 39 42 43 45 45 47 51 54 54 62 59 55 50 52 51 48 45
14 18 18 18 20 21 23 24 26 27 30 30 31 32 34 33 34 34 35 36 39 36 41 42 41 37 38 38 43 45 46 47 49 55 52 58 63 65 57 51 54 51 48
5 7 9 10 13 15 14 14 16 17 20 23 25 26 29 30 31 32 34 35 36 37 38 38 40 41 39 39 44 47 48 48 52 56 60 62 62 62 66 61 59 55 50
4 6 8 12 14 18 17 14 13 12 13 16 19 22 26 28 30 31 33 35 37 38 37 39 39 38 40 42 45 48 49 49 52 55 57 60 54 58 56 59 59 56 50
7 8 10 11 13 12 13 15 16 15 17 15 13 16 23 27 26 28 28 33 35 38 38 41 41 44 37 43 44 46 50 52 46 45 51 54 53 56 55 55 55 53 52
9 10 12 14 15 15 17 16 16 15 15 15 16 16 18 18 21 28 32 35 34 37 40 41 43 42 49 51 47 47 47 43 42 37 43 44 56 58 62 67 64 57 51
9 11 12 14 16 18 19 19 18 17 17 16 17 15 13 15 18 16 24 28 33 37 39 43 44 47 49 46 47 44 47 39 41 41 40 41 40 64 66 60 53 54 52
9 11 12 14 15 17 19 20 21 21 21 20 19 19 21 18 15 14 14 16 23 31 38 41 45 46 51 51 55 50 45 53 46 41 44 42 41 54 44 56 47 50 53
11 12 13 15 15 16 17 18 20 21 21 21 21 21 20 21 19 20 17 13 14 16 20 30 35 44 52 53 52 54 56 54 57 54 40 43 41 38 50 49 52 54 52
13 14 16 17 19 19 19 19 19 20 21 21 21 21 21 22 22 21 20 19 19 15 13 14 18 24 31 37 38 43 50 52 53 53 46 45 41 40 43 54 53 52 51